GFSMA_925_spd_000.txt.gz
Wind_Speed
8 5 4 5 6 6 6 8 8 8 10 12 12 13 12 11 10 9 9 10 10 13 12 14 14 15 16 16 16 16 16 16 16 16 16 14 14 14 13 12 12 11 11
12 9 8 8 8 8 9 10 10 11 11 12 11 10 11 11 11 11 9 10 11 13 15 14 15 16 17 17 17 18 17 19 18 18 17 17 16 14 13 14 13 12 11
12 11 10 10 8 8 9 10 10 11 10 8 8 9 12 12 11 11 10 9 9 11 13 15 15 16 17 18 18 19 20 20 21 19 19 19 19 17 18 16 14 13 12
13 12 12 11 9 8 9 9 8 8 8 10 12 13 12 11 9 9 9 11 11 11 14 13 15 16 17 19 20 21 22 21 21 22 23 21 19 19 19 18 17 16 15
12 12 13 12 9 9 9 7 6 7 10 11 13 14 13 11 9 7 8 9 9 12 14 15 13 16 18 19 20 21 22 23 24 23 23 24 23 21 21 21 20 19 18
13 12 11 8 8 7 5 5 6 8 10 11 13 14 13 6 11 6 10 10 9 7 8 13 13 11 16 18 19 20 20 22 24 25 25 26 26 25 25 24 22 21 20
10 10 7 6 5 5 6 6 7 7 8 7 8 13 5 1 9 9 7 9 10 11 10 5 5 8 11 12 15 18 19 21 23 24 25 27 26 27 29 28 26 25 23
12 8 6 6 6 6 6 7 7 6 4 4 2 2 3 2 3 8 9 10 15 11 9 7 5 6 7 8 11 13 15 19 21 24 25 25 27 27 28 29 29 28 27
10 7 6 7 5 6 6 5 6 5 4 3 2 1 1 1 5 3 4 8 17 15 14 10 9 9 9 9 10 11 12 15 19 22 24 27 28 28 28 29 29 30 30
11 8 7 6 7 7 6 7 4 4 5 3 2 2 2 1 1 3 4 7 15 15 15 15 14 11 11 12 12 13 13 13 14 18 21 26 27 30 32 31 30 31 31
13 11 11 9 9 9 8 5 5 5 6 4 3 3 3 2 2 2 3 7 13 12 12 15 13 12 14 18 19 17 15 15 16 17 18 20 24 30 33 34 34 31 31
15 15 15 13 9 11 8 6 6 6 6 6 6 5 5 4 4 4 3 3 5 7 15 16 13 11 15 20 22 21 19 18 18 19 21 22 22 23 28 34 35 34 31
17 15 15 15 12 9 8 6 5 6 6 7 7 7 8 8 7 7 6 5 3 6 5 10 14 11 16 20 23 23 23 23 22 22 22 24 25 25 25 27 32 36 35
17 14 14 12 9 8 9 6 6 8 10 7 9 11 12 12 11 11 9 7 2 3 5 8 14 11 18 21 24 25 28 27 27 27 26 25 27 28 27 28 29 32 37
16 15 14 12 13 12 11 10 7 7 6 9 10 12 15 16 15 15 15 13 7 2 3 9 7 15 22 25 25 28 29 30 31 30 27 26 26 29 31 30 31 33 35
19 18 15 14 14 14 13 12 11 10 11 12 15 15 16 17 19 18 19 17 15 12 4 8 15 25 27 28 28 29 29 29 29 30 32 32 30 29 31 33 33 33 34
20 19 18 17 17 16 14 14 13 12 14 15 15 16 17 17 18 19 20 20 19 18 10 19 18 25 30 31 32 29 29 32 33 34 34 36 35 33 31 33 34 35 35
22 20 20 19 19 18 16 15 12 12 14 14 14 14 17 16 17 17 19 23 24 25 20 19 21 18 26 34 35 33 32 33 33 34 35 36 38 36 32 33 35 36 36
22 21 20 20 19 19 16 13 13 13 15 16 16 17 17 15 17 16 17 21 25 27 28 19 23 20 23 29 30 34 34 35 31 29 32 35 36 36 37 36 36 37 39
22 23 22 21 19 17 15 14 14 16 18 19 18 18 16 15 16 17 19 21 24 25 25 21 20 23 21 24 23 24 26 26 27 29 35 35 36 39 40 37 36 39 38
27 24 22 22 20 18 17 16 17 18 19 19 17 17 16 15 16 18 20 21 22 23 24 17 18 20 21 20 21 23 24 27 29 31 34 35 32 31 33 33 32 36 40
31 29 26 24 21 20 18 19 20 21 21 20 19 17 17 18 19 18 17 20 23 24 25 18 18 18 25 23 23 22 24 26 15 29 32 39 35 36 33 35 37 34 37
32 31 28 26 24 21 16 22 21 20 21 21 19 20 20 20 18 16 19 21 21 21 21 20 17 22 23 29 25 25 24 28 33 40 38 45 34 37 34 35 37 36 37
31 26 26 27 25 23 17 22 20 21 20 21 22 20 18 20 19 18 19 21 19 17 19 19 19 25 28 33 29 29 32 32 38 38 38 30 37 36 35 35 36 36 35
26 24 23 24 24 24 22 22 16 22 20 19 18 18 16 17 17 17 17 17 18 18 19 21 23 25 26 27 28 27 27 26 26 37 37 33 35 36 34 34 33 35 38
12 10 6 3 13 30 29 20 20 18 18 15 16 16 14 14 15 16 14 12 13 16 21 26 27 26 23 25 24 25 27 28 32 32 34 29 30 27 10 28 36 34 33

GFSMA_925_spd_003.txt.gz
Wind_Speed
9 7 5 3 3 3 2 4 7 8 10 11 9 9 9 10 9 8 9 9 8 7 10 9 12 15 15 14 15 17 16 15 14 15 14 13 14 14 13 12 12 11 10
13 10 8 6 4 5 4 6 6 7 8 9 10 9 10 10 9 9 8 8 8 8 10 11 11 14 17 17 16 16 17 17 17 16 16 17 16 14 15 15 14 13 12
12 11 10 7 7 7 7 7 6 6 6 6 8 10 10 10 8 6 5 7 7 8 8 9 12 13 15 18 18 18 19 17 19 19 17 18 18 18 15 15 15 15 14
13 12 11 8 9 8 7 6 6 6 5 5 8 9 10 8 8 6 5 5 7 8 10 10 9 11 13 16 19 19 20 20 20 21 21 20 19 19 18 19 19 17 16
12 11 10 10 10 8 9 6 4 5 6 7 8 9 7 6 4 4 4 4 3 5 8 10 10 10 12 14 17 17 20 22 22 22 23 23 22 21 20 19 19 19 19
13 12 11 9 9 8 4 5 4 5 5 6 9 8 5 4 5 5 6 6 7 7 5 5 6 7 9 11 14 14 18 18 22 23 24 24 25 24 23 22 22 20 21
12 10 9 8 6 5 4 4 4 4 5 4 6 6 1 3 8 4 5 6 8 7 7 7 5 3 4 7 7 9 14 17 18 21 22 24 26 27 26 25 25 24 23
12 11 8 6 6 5 4 5 5 4 4 2 3 2 2 3 1 4 6 10 10 9 9 8 8 8 6 5 4 4 8 11 15 18 20 22 23 24 27 26 25 26 26
12 10 8 6 5 5 4 3 2 4 4 1 1 2 2 1 6 0 2 7 11 11 12 11 10 9 9 8 8 7 7 7 10 13 16 18 21 23 25 26 27 27 27
12 11 8 6 6 6 4 2 2 2 2 2 1 2 1 2 2 2 2 2 6 8 9 9 9 8 10 11 11 10 9 9 10 11 12 14 18 19 23 25 27 29 29
14 13 10 7 7 7 7 5 3 3 3 3 3 3 3 2 3 3 5 7 6 4 8 10 7 5 7 10 11 13 14 12 11 11 13 16 17 18 20 23 26 29 30
16 17 14 11 9 9 10 6 6 5 4 5 5 5 4 3 2 4 5 8 10 8 9 8 10 9 8 10 11 14 16 17 15 13 14 15 18 21 22 21 23 27 32
16 18 16 15 12 12 10 8 7 6 6 6 7 7 7 7 6 5 8 10 10 11 7 8 6 7 7 10 12 17 18 18 18 18 18 19 19 20 23 26 26 25 27
18 18 16 16 16 14 12 12 6 5 8 9 9 9 8 10 10 10 10 9 8 11 11 10 11 9 9 11 14 17 15 19 19 19 20 21 21 22 23 25 30 30 30
18 19 16 17 17 15 14 12 9 7 7 9 11 10 10 11 12 13 12 12 11 9 10 15 11 10 11 14 17 17 15 18 21 19 20 20 24 25 25 25 28 32 33
20 19 19 20 18 16 14 12 11 11 9 10 10 11 11 11 12 13 13 13 13 14 11 17 16 18 17 16 16 16 18 23 21 22 21 23 28 28 27 28 29 30 34
24 21 21 21 18 17 15 14 14 13 12 12 11 11 12 12 11 11 11 14 15 14 16 23 20 17 19 20 17 17 19 20 20 22 27 28 30 32 33 32 30 31 32
22 22 22 21 19 15 14 15 14 15 14 13 12 10 11 10 10 11 12 14 16 17 18 20 25 22 20 21 21 21 21 20 21 23 26 29 29 35 36 36 33 32 33
18 22 22 23 21 17 16 16 17 16 15 13 12 12 13 11 13 13 13 14 15 17 16 19 22 23 22 20 22 23 22 23 22 23 27 27 31 33 36 38 37 36 35
13 24 23 24 21 18 18 16 16 18 17 15 16 15 16 14 14 13 14 14 16 17 17 17 21 23 23 21 20 22 24 24 26 26 28 30 31 33 35 38 39 40 37
24 34 29 26 22 22 19 18 19 18 17 17 16 16 18 17 17 16 14 17 15 17 17 19 22 22 22 22 22 23 25 26 28 28 30 31 31 37 38 38 39 38 39
21 41 33 31 26 26 22 20 21 18 17 17 17 17 19 20 20 19 19 19 19 19 21 22 24 23 23 23 23 23 25 27 21 27 27 37 34 38 40 40 40 40 41
30 42 36 40 35 28 25 22 22 22 18 18 20 21 20 16 19 16 17 19 20 22 23 21 19 19 21 24 24 26 26 27 28 32 33 38 37 41 42 42 42 43 44
34 32 32 30 30 27 26 20 14 15 22 22 18 20 17 18 13 15 15 16 17 16 15 13 15 18 19 22 22 24 28 27 29 30 29 33 40 45 44 45 43 44 45
27 27 19 18 17 19 19 19 15 16 20 29 27 18 14 13 14 16 15 15 15 14 12 15 18 21 23 25 21 19 23 22 23 30 33 36 44 45 43 42 41 41 42
21 15 14 15 18 19 22 23 19 24 23 30 26 15 13 11 13 13 12 10 12 11 11 16 18 18 17 18 19 14 18 18 22 26 35 36 39 35 19 32 35 32 31

GFSMA_925_spd_006.txt.gz
Wind_Speed
7 5 4 4 4 4 3 5 6 6 7 7 8 8 8 9 8 8 7 9 6 4 7 9 10 11 12 12 13 14 13 11 11 11 11 13 14 13 12 12 12 12 11
8 7 6 6 6 6 4 4 6 7 8 8 7 8 9 9 8 8 7 7 8 5 7 10 10 11 14 14 13 15 15 16 14 13 13 14 15 15 14 13 14 14 13
9 8 8 7 7 5 5 6 6 6 8 9 9 9 10 9 8 6 6 6 6 6 5 8 10 11 12 14 16 16 13 15 17 18 15 16 17 18 17 15 14 14 14
9 10 8 9 8 8 9 8 7 8 9 9 9 10 10 8 7 5 3 4 4 6 7 6 8 8 10 11 14 15 17 18 18 19 19 19 17 18 19 18 17 17 16
11 10 10 9 9 10 8 8 7 7 9 9 9 9 7 6 4 4 3 3 3 3 4 5 6 8 8 11 12 13 14 17 19 19 20 20 21 20 20 20 19 20 18
10 9 9 9 8 8 7 6 6 8 8 8 10 8 5 2 3 3 3 4 5 4 4 2 3 4 5 7 11 14 14 15 15 18 19 22 22 23 23 23 22 21 21
9 8 8 8 7 7 5 5 8 7 8 4 8 3 2 2 3 2 3 5 5 5 5 5 5 2 1 3 5 7 10 14 16 15 16 19 21 24 25 25 25 24 24
11 10 9 7 4 5 5 5 5 7 4 3 6 5 2 6 5 2 3 5 6 6 7 6 6 5 3 2 4 2 6 8 10 12 14 17 19 21 23 26 27 27 26
10 8 6 5 4 5 4 3 3 4 6 1 2 5 3 1 4 5 3 3 5 7 6 6 6 6 6 4 4 5 5 5 7 8 11 13 15 18 21 23 25 26 27
9 8 7 6 4 4 4 3 3 3 4 3 2 2 2 5 4 2 5 2 1 2 5 5 4 3 4 4 5 7 7 6 6 7 9 11 13 15 18 20 24 24 25
11 11 11 8 5 6 6 3 3 3 3 5 4 3 1 4 2 5 6 3 4 2 3 3 4 3 1 2 2 4 6 7 8 8 8 9 12 14 17 18 20 23 24
13 14 13 10 8 7 7 5 5 5 4 5 5 4 5 4 3 5 6 7 6 6 5 7 6 5 6 5 5 7 8 6 7 6 8 9 10 12 15 19 22 22 22
13 14 14 11 9 8 7 6 6 5 4 5 5 6 5 6 7 7 8 9 9 10 7 7 6 8 7 7 8 10 12 9 11 9 7 8 9 10 12 15 19 22 25
13 11 13 11 10 10 9 9 8 8 7 7 6 7 9 8 9 10 11 12 8 11 10 8 7 8 9 10 12 14 12 14 15 14 13 12 10 11 14 15 17 21 24
12 12 14 12 10 11 11 11 11 9 8 8 10 10 12 12 11 11 12 11 14 9 9 13 12 9 11 12 13 15 15 15 21 21 16 15 14 16 18 17 18 20 23
13 12 14 13 13 11 12 13 12 11 11 10 10 10 11 13 13 12 11 13 14 15 12 17 15 16 13 15 16 17 17 21 22 20 23 20 20 21 21 21 22 23 24
12 13 12 13 13 12 14 16 14 12 11 11 12 12 12 12 13 12 11 12 13 15 16 22 20 19 15 16 18 19 20 21 22 22 20 22 27 27 24 25 26 28 27
18 18 10 11 13 12 15 18 17 14 13 14 14 13 12 12 10 12 13 13 15 15 19 19 22 22 19 18 18 19 21 22 22 22 25 29 26 26 28 28 31 29 30
24 24 21 19 18 19 19 20 20 18 15 15 15 14 14 13 13 14 14 15 16 16 17 20 19 21 22 21 22 21 20 23 22 23 24 23 25 28 30 30 32 30 35
30 31 31 27 19 21 22 22 21 19 17 16 16 16 16 16 15 14 16 16 16 16 19 21 20 21 17 23 23 22 22 24 25 25 26 29 31 30 31 30 30 34 35
37 36 35 27 23 23 26 25 22 20 19 18 17 18 18 17 17 18 18 16 16 19 20 21 24 23 22 18 21 25 25 25 26 27 28 29 32 30 29 33 34 36 39
46 38 34 28 24 28 26 26 23 20 19 18 16 16 15 17 21 22 21 21 20 17 19 21 24 24 24 23 23 23 23 25 21 27 29 32 31 34 33 36 39 43 48
31 25 19 20 27 27 26 27 26 22 19 17 14 14 15 19 19 17 18 18 18 17 20 19 22 22 22 22 22 22 25 26 29 32 31 33 29 33 36 39 45 45 44
29 23 17 18 25 27 24 24 23 20 20 17 13 9 9 18 21 23 17 16 17 17 17 18 18 19 19 20 20 23 26 28 28 29 29 28 30 34 40 42 47 48 49
30 25 18 17 23 22 23 26 27 22 22 19 19 18 20 21 18 18 12 14 16 17 17 15 15 19 21 23 20 17 22 21 21 25 28 30 32 36 41 44 41 42 44
25 24 18 19 21 21 22 26 26 25 21 20 19 16 15 14 15 15 11 11 14 15 13 15 17 17 19 20 19 18 18 19 22 23 28 27 32 30 19 37 35 38 39

GFSMA_925_spd_009.txt.gz
Wind_Speed
4 4 4 7 8 6 7 7 5 6 7 10 9 9 10 10 8 7 5 5 5 4 7 11 10 12 12 13 13 13 12 12 10 11 11 11 11 11 9 10 10 10 9
2 6 8 8 7 5 5 6 7 7 8 5 7 8 10 8 7 7 8 4 5 3 7 10 10 11 13 13 13 14 15 13 11 11 11 11 12 11 12 11 11 11 12
8 9 9 6 9 5 6 9 6 8 8 9 7 8 9 7 6 6 5 6 5 4 3 9 11 11 10 13 15 13 14 16 15 14 13 11 13 13 14 14 12 12 13
9 8 11 10 5 5 7 8 8 11 9 10 9 7 7 7 6 2 1 3 3 3 6 7 8 9 10 11 14 15 16 15 14 15 14 16 15 15 16 16 16 14 14
11 10 12 9 6 9 5 7 7 12 7 9 9 6 5 4 5 6 4 3 6 4 4 5 2 6 8 10 12 11 13 15 16 16 17 17 18 18 17 17 16 17 17
11 11 11 6 8 9 9 6 3 8 9 7 8 7 2 2 4 3 2 4 4 3 6 5 6 8 7 6 8 11 12 14 14 15 17 19 19 18 19 19 19 19 19
11 9 10 10 7 12 2 8 8 8 6 2 7 6 4 5 3 1 6 4 4 4 3 3 6 4 4 2 4 5 6 7 12 15 14 15 18 19 20 20 21 21 21
12 10 9 8 6 7 4 3 4 6 5 1 7 5 3 7 5 8 4 3 4 5 5 5 4 5 5 5 4 3 4 5 6 7 8 11 15 16 18 20 21 23 23
11 10 6 7 2 2 6 3 3 2 8 1 1 6 3 3 6 8 7 4 2 3 4 2 3 3 4 2 1 6 5 4 5 6 8 9 11 13 15 18 20 21 22
11 10 8 6 4 5 1 3 3 4 3 4 2 5 1 5 5 1 7 7 3 2 3 5 3 1 2 2 2 5 6 5 5 7 8 10 12 13 15 16 16 18 22
10 10 8 6 4 4 5 3 3 4 3 5 2 3 5 4 4 4 6 1 4 3 3 4 4 7 3 4 4 6 8 6 5 5 7 8 9 10 12 15 17 19 18
11 11 11 9 6 5 5 5 4 5 6 3 6 2 3 3 2 3 4 7 7 7 4 4 7 5 7 8 8 9 9 12 9 9 8 8 8 9 10 11 14 17 20
14 16 13 10 9 8 6 5 5 5 5 5 4 7 4 4 4 5 8 9 9 14 5 6 6 7 6 8 8 7 11 14 11 13 12 11 11 11 11 11 13 15 17
12 16 16 14 12 10 9 7 8 7 7 6 6 7 8 5 10 6 7 8 4 14 17 8 10 7 8 7 9 15 12 12 14 16 17 17 16 14 14 14 15 15 16
15 16 16 16 14 12 10 9 9 10 7 8 9 10 10 9 8 8 7 6 4 4 6 15 10 11 7 10 7 9 15 16 18 19 23 20 18 19 18 19 19 19 19
21 21 20 19 17 18 16 13 12 11 11 11 11 10 10 10 9 10 8 12 11 11 8 14 14 13 12 13 16 13 15 18 22 21 22 23 19 19 22 25 24 23 23
22 19 23 23 22 20 20 18 14 11 10 11 13 11 11 11 11 11 10 11 11 13 14 16 20 19 16 18 20 18 19 20 23 25 22 19 20 26 28 25 25 25 25
25 26 27 28 26 26 22 18 17 16 14 14 16 16 15 14 14 13 10 13 12 12 15 15 19 18 18 20 17 17 21 21 22 22 23 28 32 31 26 25 28 29 28
29 29 30 30 28 28 25 24 20 18 16 17 16 17 15 15 13 14 12 13 14 15 13 18 18 19 21 23 26 21 22 24 24 29 31 32 31 28 27 30 33 33 31
32 34 33 30 29 28 26 23 21 19 19 18 18 17 16 16 16 15 16 16 18 17 19 17 18 19 19 23 26 17 19 25 27 25 25 25 29 30 33 34 36 35 32
34 34 34 30 28 25 21 22 19 18 20 20 17 16 16 18 19 18 16 18 19 18 21 20 20 20 21 20 20 23 24 23 22 22 24 26 28 27 27 30 32 33 31
29 29 27 27 27 26 22 22 20 18 20 19 18 18 19 18 15 16 18 17 22 26 22 20 20 20 21 20 21 20 21 24 18 23 25 27 27 30 32 34 35 33 33
29 31 31 26 22 21 20 23 22 19 18 18 19 18 19 20 18 15 15 15 18 24 26 22 19 21 20 18 20 20 21 22 25 26 26 29 27 28 29 34 33 31 40
30 28 26 23 18 19 20 20 20 21 20 21 20 20 19 19 17 15 16 21 21 21 20 20 22 21 19 18 17 20 23 25 27 27 22 23 26 29 30 31 33 37 49
25 26 25 23 21 20 17 22 23 21 22 23 23 20 17 18 20 23 22 20 19 20 18 22 22 19 20 21 20 18 19 20 21 21 21 26 27 27 28 31 36 37 44
19 19 22 21 18 16 18 20 23 26 24 24 24 20 21 24 22 19 17 13 14 16 17 17 13 17 21 23 23 26 23 21 21 21 23 21 26 28 23 32 32 39 43

GFSMA_925_spd_012.txt.gz
Wind_Speed
2 1 2 3 9 7 6 7 5 6 6 10 6 5 10 9 5 7 4 1 5 1 6 10 11 12 13 13 13 13 12 11 10 10 11 10 10 10 9 9 8 7 7
4 3 6 7 6 3 1 4 7 7 9 10 11 4 9 9 8 3 6 5 2 2 4 7 9 11 12 13 13 13 14 12 11 11 12 12 12 12 12 10 9 8 8
4 6 7 6 6 4 5 4 6 7 14 14 6 6 7 8 3 5 4 8 6 5 3 7 9 10 10 12 13 13 15 15 13 12 12 12 12 13 11 12 10 9 9
9 6 8 9 4 2 1 5 4 6 10 9 9 5 6 5 7 2 3 2 3 6 7 7 7 8 9 11 13 13 14 14 15 16 16 15 15 13 13 13 13 13 11
9 8 7 8 4 4 7 3 4 5 10 9 8 5 2 2 5 7 3 10 4 8 8 6 2 5 9 9 8 11 12 14 15 15 15 15 15 16 16 15 14 13 13
9 8 10 9 6 7 4 4 1 6 6 5 6 8 0 2 4 4 4 8 5 6 10 5 2 8 4 4 7 8 9 11 12 13 14 16 16 17 17 18 18 16 15
7 9 11 8 7 4 3 1 2 5 9 1 6 12 14 5 5 6 9 6 6 5 4 6 10 6 4 3 1 3 4 5 8 12 14 14 15 17 18 18 18 18 18
9 10 9 9 12 5 6 4 1 5 9 3 3 12 1 8 8 11 8 7 4 9 9 6 5 7 4 4 4 4 3 4 6 8 9 12 14 16 17 17 18 18 19
9 10 6 7 3 2 1 5 3 1 8 0 2 2 4 1 1 11 11 8 6 5 4 4 2 5 5 1 2 5 6 2 2 3 5 8 10 11 12 14 16 18 19
15 14 10 10 8 4 8 3 3 2 4 7 6 4 2 1 2 2 10 11 9 10 6 1 3 3 4 3 4 5 7 6 5 5 5 6 7 9 11 12 13 14 15
13 17 12 11 8 6 7 7 4 3 2 5 10 5 6 3 3 1 1 5 9 14 7 7 6 3 6 2 4 5 4 11 9 8 8 8 7 8 9 11 12 14 15
19 15 16 14 12 9 10 8 7 5 5 2 5 6 7 2 6 5 3 7 6 6 9 8 7 7 7 2 4 7 8 11 14 10 10 10 9 9 9 9 10 11 13
20 22 17 18 15 14 11 10 11 8 7 4 3 7 10 4 4 6 4 7 4 7 7 5 7 8 9 8 9 9 9 11 12 12 14 14 14 14 13 12 12 12 12
21 27 27 24 18 17 17 18 15 17 14 10 7 4 8 6 4 11 6 2 2 3 12 7 11 8 10 9 10 8 9 9 12 14 17 19 20 21 18 16 15 16 16
16 26 29 24 22 19 16 16 16 16 9 12 9 9 7 10 9 7 2 3 3 2 2 13 7 9 9 7 9 9 11 16 18 18 20 18 20 19 19 19 19 19 20
23 26 27 26 23 23 24 21 17 18 18 15 12 13 15 12 9 8 11 8 11 12 2 8 9 11 7 7 9 9 13 19 21 21 24 24 24 23 22 22 23 22 23
26 24 29 28 27 26 25 25 23 22 23 22 19 16 9 11 11 10 10 6 7 7 2 12 16 16 18 17 17 18 21 23 20 23 25 26 26 26 27 26 24 22 21
29 35 30 30 29 30 29 29 27 22 22 24 20 16 14 12 15 14 12 10 10 12 11 12 17 18 15 13 15 18 19 22 21 23 24 27 29 31 32 31 29 27 25
33 32 33 35 33 34 33 35 32 27 24 24 21 20 18 17 16 14 12 14 13 11 11 14 18 20 23 22 23 22 24 24 22 24 26 27 31 30 33 35 34 32 31
35 32 34 32 32 33 35 35 29 26 26 23 21 20 18 18 18 19 19 17 16 15 14 16 24 18 16 18 21 17 17 19 20 23 23 26 27 27 24 24 29 34 32
32 32 29 29 30 30 29 28 27 26 26 23 21 21 19 18 18 20 19 19 18 16 15 16 17 19 20 19 17 21 21 21 23 23 25 23 25 23 25 24 22 23 29
30 30 30 30 28 27 27 28 26 24 27 24 22 19 19 19 22 24 26 21 20 18 21 20 17 19 19 19 18 19 18 17 15 20 20 24 28 28 31 35 30 29 30
29 29 28 27 23 23 26 24 31 27 24 23 22 20 19 20 19 19 18 17 21 22 23 23 25 21 21 21 21 20 17 17 19 25 27 27 26 27 25 24 28 31 28
25 22 21 22 25 20 20 21 17 21 26 24 23 22 23 22 19 17 21 21 24 23 28 23 22 24 25 23 19 19 23 24 25 25 26 18 18 26 30 28 29 26 30
18 19 19 21 18 19 20 21 22 26 29 26 21 20 19 21 24 23 24 22 25 24 22 19 23 25 25 22 23 23 24 17 17 18 21 23 25 27 23 27 30 32 36
17 17 19 19 20 24 22 22 23 25 22 23 23 25 25 26 24 23 20 21 15 16 13 16 15 13 16 24 26 26 32 20 18 16 18 19 22 25 18 29 24 31 30

GFSMA_925_spd_015.txt.gz
Wind_Speed
4 5 4 2 0 1 1 2 1 3 7 6 5 2 8 5 3 4 4 2 2 5 10 13 13 13 13 13 13 12 11 10 11 11 10 10 10 8 9 8 7 7 7
7 6 3 3 2 1 4 2 5 4 8 10 10 5 6 4 3 4 5 3 4 3 7 9 11 13 13 14 13 14 14 11 10 10 11 11 11 11 11 9 8 8 8
7 6 4 2 2 5 2 3 3 5 6 12 7 2 6 5 3 8 3 4 8 4 4 6 9 10 12 12 13 13 13 13 12 10 11 12 13 12 12 11 11 9 9
9 7 4 4 5 3 4 2 2 3 7 9 8 6 3 3 4 5 5 7 3 5 7 6 6 7 8 10 12 12 11 14 14 14 13 12 12 12 12 13 13 12 11
8 6 6 3 4 3 3 4 2 0 5 5 3 9 5 4 7 5 9 9 9 3 7 5 3 2 7 7 6 8 11 13 14 14 14 15 15 15 15 14 14 13 13
9 8 5 4 4 5 2 2 3 3 2 7 7 7 2 2 3 6 13 9 12 14 10 5 1 4 3 3 4 7 8 9 12 14 15 16 16 16 16 16 17 16 15
15 13 11 9 7 5 7 6 2 3 3 4 2 7 7 3 7 12 12 9 12 13 12 10 9 10 6 3 2 2 3 6 8 11 12 12 14 16 17 18 18 18 17
18 14 11 7 8 10 8 7 2 3 2 4 2 1 2 2 5 11 5 8 13 11 8 5 6 7 6 5 4 4 2 3 4 4 5 7 10 13 15 15 17 19 19
18 12 11 8 6 8 13 8 7 2 2 3 4 4 3 1 1 9 10 11 9 6 6 4 5 9 7 3 3 4 5 4 2 4 5 6 8 10 11 10 12 15 17
18 16 14 12 12 8 13 9 10 7 3 2 1 5 4 3 2 1 7 9 9 7 10 7 8 7 6 5 4 1 3 6 7 5 4 4 6 8 9 11 12 13 13
20 17 16 15 16 11 11 14 13 12 12 8 3 4 7 4 3 3 2 4 11 11 8 10 11 6 9 7 6 4 4 4 6 6 5 6 5 6 7 8 9 11 12
20 21 20 19 18 13 14 12 9 10 9 5 6 6 5 2 6 3 2 2 3 7 15 12 12 8 10 12 8 7 6 4 6 5 5 7 8 9 10 10 9 9 9
26 23 26 24 19 16 16 17 16 12 11 8 5 4 3 3 4 4 3 1 2 0 1 2 14 12 13 11 9 10 9 7 6 6 9 11 11 12 14 14 14 13 12
31 28 28 26 20 18 18 16 15 14 14 15 15 15 10 4 1 3 5 7 0 1 2 1 3 11 13 13 13 13 11 12 11 12 13 13 13 11 12 14 15 17 16
28 31 32 30 25 21 23 20 20 17 18 16 14 14 14 13 7 2 3 7 5 2 2 3 1 5 6 4 9 11 12 14 15 16 17 16 16 18 18 18 18 17 18
25 30 37 34 30 25 24 24 23 20 21 21 18 16 14 14 9 6 1 6 8 8 2 3 2 5 5 8 10 13 15 17 18 20 23 23 22 23 24 24 25 24 21
29 25 33 36 34 30 28 27 26 23 25 23 22 19 17 17 13 13 6 2 3 4 6 5 7 9 10 14 14 16 17 20 22 24 25 24 23 24 24 25 25 26 26
32 32 33 38 36 35 32 31 30 28 27 27 25 23 20 15 18 16 13 9 5 5 4 6 10 13 15 16 15 17 19 20 23 23 24 22 26 28 29 28 31 34 33
37 35 36 39 41 38 35 34 34 31 28 27 28 25 23 21 21 19 17 15 12 10 9 10 15 17 19 20 21 20 20 15 11 12 18 21 23 24 24 27 25 24 27
40 40 39 41 41 40 37 36 35 33 31 25 25 26 26 24 23 22 19 17 16 17 16 15 17 18 18 20 15 10 15 20 23 20 20 20 24 22 21 19 18 17 17
36 39 38 37 39 38 36 36 36 34 32 29 25 27 28 27 25 24 23 22 21 20 20 19 18 20 23 20 14 15 16 22 25 25 24 22 22 22 25 28 29 30 27
36 35 35 35 33 33 35 37 37 35 31 28 29 28 29 27 26 25 25 23 23 24 24 22 22 22 24 21 18 17 18 18 6 21 13 28 28 25 21 22 21 21 24
33 32 33 34 33 33 34 32 28 32 30 30 30 30 29 28 27 27 27 27 26 27 24 23 22 26 27 26 22 20 22 19 21 29 24 25 25 24 15 21 26 23 24
33 34 35 33 32 30 28 27 28 29 30 30 31 31 29 30 27 24 20 22 23 19 20 20 24 26 26 23 22 22 23 21 26 26 23 14 20 21 22 20 19 23 31
30 31 31 27 29 27 26 26 21 19 26 26 28 27 27 25 25 21 20 21 21 26 21 23 20 19 20 22 23 21 22 23 15 23 25 23 24 22 23 25 23 25 25
29 24 22 23 22 22 24 26 26 26 28 30 28 27 22 21 21 16 17 26 22 22 15 13 13 13 14 17 20 24 28 21 18 11 14 16 25 26 14 23 27 28 32

GFSMA_925_spd_018.txt.gz
Wind_Speed
7 8 7 3 1 3 5 4 3 2 3 1 1 3 2 1 6 9 9 6 6 8 11 14 15 16 17 16 16 15 14 13 14 12 12 12 11 9 9 8 8 7 7
10 9 7 4 3 4 4 3 2 0 4 4 3 5 6 3 5 7 7 8 4 3 9 11 13 14 16 16 16 16 15 13 13 13 13 13 11 11 10 10 9 9 10
11 8 6 5 0 5 5 3 1 2 4 5 5 3 7 2 7 7 7 7 9 5 6 10 11 12 13 15 16 16 16 15 13 12 13 14 13 13 14 12 11 11 10
14 10 8 7 2 5 5 4 3 2 1 4 6 6 4 3 8 7 4 4 10 10 8 6 7 8 8 10 12 14 13 15 15 15 12 13 13 13 14 14 12 13 12
16 11 9 6 4 6 5 6 5 2 1 0 1 4 5 7 5 7 8 8 4 8 8 7 6 6 7 8 8 10 12 13 15 15 15 14 14 14 15 14 14 14 14
17 10 11 9 8 9 8 7 5 2 1 2 2 2 3 4 10 12 12 12 13 12 10 7 7 7 6 7 7 7 8 9 11 12 14 14 14 15 16 15 16 16 16
17 13 13 10 10 8 8 8 5 3 4 2 1 2 3 6 14 16 12 15 13 10 10 5 2 10 7 4 2 3 5 7 8 9 11 11 12 13 15 16 16 17 17
19 17 16 15 13 10 11 9 5 5 5 4 4 3 2 4 7 10 13 17 14 10 8 7 6 7 6 6 3 3 2 3 6 5 4 5 7 10 11 13 14 15 17
21 20 17 16 14 13 13 12 9 11 7 4 2 4 2 3 2 6 11 13 13 8 7 5 5 8 7 4 3 2 5 5 3 2 3 4 6 7 8 9 9 9 12
23 21 20 16 12 13 15 16 12 10 7 4 2 1 2 5 3 0 6 10 11 8 8 9 7 7 7 5 3 2 3 4 5 5 3 3 4 5 6 8 9 9 11
26 24 21 18 17 16 17 17 14 13 9 5 4 6 4 4 5 3 2 3 9 10 11 11 13 11 9 7 6 5 3 1 4 6 5 6 6 6 6 7 7 8 8
30 26 24 21 19 18 19 17 14 12 13 12 10 9 8 5 5 4 2 1 4 7 12 13 14 17 14 12 9 8 7 5 4 3 4 7 8 8 7 8 9 9 9
31 30 28 26 24 22 19 18 17 15 15 15 12 10 7 8 5 7 6 3 3 4 4 9 19 17 17 18 15 12 10 9 8 8 8 8 7 8 9 10 11 11 12
36 33 31 30 27 24 19 20 18 15 15 16 14 13 11 7 6 6 4 5 1 1 3 2 3 9 17 18 17 14 12 12 13 13 13 12 9 10 10 11 12 13 13
33 37 33 33 30 27 23 23 21 18 16 16 16 14 13 11 7 3 5 9 7 2 2 3 2 0 5 9 11 13 14 15 16 17 16 16 15 16 16 17 17 18 18
34 36 35 35 33 30 25 24 24 21 18 18 16 15 15 14 11 6 5 7 7 7 2 7 6 3 3 6 7 10 13 15 18 20 21 22 20 21 22 22 21 21 22
33 37 39 39 36 33 30 28 27 24 22 20 21 20 18 15 13 12 8 4 8 8 6 4 8 8 8 10 12 14 16 17 19 20 23 24 26 25 26 25 22 23 23
33 38 41 42 40 38 35 32 30 29 26 24 23 22 22 18 18 19 16 14 11 11 9 9 10 12 11 13 16 18 19 20 20 17 15 18 17 18 21 23 21 22 22
39 38 37 39 41 41 39 36 33 31 30 27 27 27 25 22 20 18 19 17 16 12 11 11 12 14 18 18 17 12 16 17 14 15 22 21 21 21 21 22 18 16 14
42 42 39 37 37 39 41 39 37 35 33 32 28 28 28 27 26 25 25 22 20 18 17 17 17 17 17 16 16 19 18 17 20 21 20 18 19 19 19 19 20 22 23
39 40 39 38 37 38 41 41 40 39 38 35 31 29 27 29 30 28 24 25 22 22 21 19 19 19 20 21 21 15 14 16 20 21 12 15 17 20 18 15 15 15 16
38 38 38 38 38 39 41 41 41 41 40 35 33 31 28 27 29 29 28 26 25 26 24 12 23 22 25 22 22 20 17 17 6 14 9 23 17 18 17 13 16 18 19
34 36 34 33 36 39 40 40 39 38 34 35 33 32 30 30 28 27 27 27 26 23 20 19 29 27 25 22 22 20 20 19 20 24 22 22 22 21 18 18 17 19 22
34 34 35 35 35 38 39 38 36 33 31 29 31 32 32 30 27 24 26 26 23 19 17 25 24 26 23 22 18 18 19 22 23 24 24 9 25 24 22 18 19 22 19
30 34 38 37 38 31 36 36 31 28 26 25 28 29 28 27 26 20 22 19 19 18 18 23 24 21 18 16 15 15 17 17 15 25 25 14 20 22 22 25 20 20 24
36 35 32 36 30 33 30 28 26 25 25 27 29 24 22 21 21 21 21 21 20 22 21 20 15 12 13 15 15 16 17 19 19 9 8 9 18 20 9 17 16 21 23

GFSMA_925_spd_021.txt.gz
Wind_Speed
8 9 8 6 3 4 4 3 3 2 0 2 1 1 1 5 11 9 7 7 5 7 8 12 14 14 14 13 12 11 12 11 11 11 10 11 9 9 8 8 7 7 6
10 10 9 6 4 5 3 2 4 3 2 2 5 3 5 6 8 11 10 7 4 3 8 9 13 13 14 14 13 12 12 12 11 12 12 12 12 11 9 10 9 9 9
14 13 10 8 5 7 6 4 4 1 2 3 4 2 4 2 3 7 8 8 7 4 4 7 9 11 12 13 13 14 14 14 12 12 13 13 14 12 13 11 11 9 10
16 14 10 10 6 7 8 7 5 4 2 2 4 2 4 4 6 5 6 5 10 8 4 4 6 7 8 9 11 14 15 15 15 13 12 12 14 14 14 14 14 12 12
19 13 11 9 7 8 7 5 5 3 4 1 0 3 4 3 10 6 5 5 7 7 7 5 5 6 7 8 9 11 13 14 15 16 15 14 14 14 15 15 14 14 13
22 17 12 11 8 8 7 7 5 4 3 2 3 2 5 4 9 9 7 5 6 8 8 7 7 7 6 7 7 8 9 11 11 13 14 15 15 16 17 17 16 16 15
23 20 15 14 11 10 9 8 7 7 5 3 1 4 4 3 11 11 10 9 9 9 6 5 7 9 6 5 4 3 4 7 9 9 10 12 13 15 16 17 17 16 16
23 22 19 16 14 13 12 12 10 6 5 3 1 4 2 3 8 8 12 10 9 8 7 3 3 7 6 5 3 1 1 2 3 4 4 4 6 9 11 12 12 14 14
26 24 21 18 17 16 16 14 11 7 6 2 3 2 2 3 1 4 9 13 10 9 6 4 4 5 5 4 3 2 4 5 3 2 2 3 5 6 7 8 9 9 10
26 24 22 19 18 18 19 16 12 10 9 9 5 3 3 4 3 0 6 12 10 10 8 6 5 6 6 5 4 3 3 4 5 5 4 4 5 5 5 6 6 8 9
25 26 25 22 20 18 17 16 15 12 12 11 9 5 3 2 3 3 2 5 10 11 10 11 9 9 9 9 6 4 2 1 3 5 7 7 6 7 6 5 6 6 6
26 25 27 24 22 20 18 18 17 14 13 13 11 11 7 3 4 3 2 2 5 6 13 13 14 14 13 13 12 9 6 5 3 4 5 7 7 7 7 8 8 9 9
25 26 29 26 26 23 20 18 19 16 15 15 13 11 10 8 4 6 3 2 1 2 3 8 11 14 17 16 16 14 12 11 8 9 9 8 8 7 8 8 9 9 10
29 27 32 30 28 25 23 19 21 19 16 16 16 14 11 8 7 6 5 6 1 2 3 7 4 6 13 20 18 18 17 16 15 13 13 13 12 11 10 11 13 14 14
30 27 33 34 32 29 26 23 23 22 19 17 17 15 13 12 8 7 9 9 7 3 3 5 4 3 3 8 10 13 15 16 16 16 17 18 19 17 17 16 16 17 20
33 31 32 36 34 32 30 26 25 24 21 19 17 17 17 14 13 9 8 7 8 6 2 6 7 6 3 4 6 9 10 11 13 16 19 21 23 23 22 22 21 21 20
33 32 32 37 37 34 33 30 28 26 25 22 19 18 16 14 14 14 11 9 10 10 8 7 9 8 8 7 8 11 12 14 15 16 16 17 18 19 19 16 16 18 20
37 34 30 34 39 37 37 35 32 30 28 26 24 22 21 18 16 15 14 13 11 10 10 10 8 10 11 9 11 14 15 13 14 15 10 11 17 18 18 19 19 19 19
41 38 35 36 39 39 38 38 35 33 30 30 28 26 24 22 21 19 17 19 17 15 13 12 10 8 11 13 13 13 15 19 20 14 15 19 18 15 16 16 15 14 14
42 40 40 38 39 41 41 39 39 37 34 33 32 28 27 25 25 22 21 18 17 16 16 16 14 13 12 14 14 15 18 21 20 18 19 19 11 15 16 16 17 20 18
41 43 40 38 38 39 41 41 40 41 38 38 32 30 27 26 27 26 23 22 20 19 18 17 14 11 12 19 21 19 19 19 19 19 16 14 15 17 13 13 12 10 12
40 41 41 41 39 40 40 39 40 40 41 39 35 30 28 28 28 27 25 24 24 21 20 17 13 12 14 19 21 22 23 16 5 14 11 15 19 16 16 17 16 17 16
37 40 40 40 41 41 41 41 38 38 37 36 33 32 31 31 30 26 22 21 23 23 20 15 14 13 14 18 23 20 20 16 18 21 18 16 21 22 18 17 17 18 20
38 37 40 40 40 44 43 38 36 36 34 30 28 26 29 30 31 26 22 20 19 19 18 21 16 15 17 19 22 19 17 17 17 20 20 7 18 22 17 13 15 19 22
33 36 37 39 40 37 34 32 31 32 30 26 22 22 26 26 24 23 20 20 20 16 12 14 17 17 19 18 13 12 15 14 12 17 19 8 9 15 18 20 17 14 17
33 30 36 36 36 34 31 28 24 28 27 24 20 21 21 19 18 17 19 19 17 15 15 15 14 13 9 11 13 15 14 15 14 5 4 5 11 11 6 16 13 19 17

GFSMA_925_spd_024.txt.gz
Wind_Speed
6 6 6 4 3 3 3 1 4 4 1 2 1 3 2 3 5 4 3 3 2 3 5 9 11 10 12 11 11 9 9 8 7 7 7 7 6 6 6 6 5 5 5
7 7 8 6 5 4 3 1 2 3 3 4 5 3 3 4 5 6 5 3 2 3 5 7 10 12 11 12 11 11 11 10 9 9 9 8 8 8 7 7 7 7 8
10 8 9 8 6 6 6 3 3 2 2 3 4 2 1 3 3 4 5 5 4 1 1 4 5 8 10 11 11 11 11 11 10 9 10 10 10 10 10 10 9 9 8
14 12 13 10 8 6 8 6 4 3 4 1 3 3 2 2 2 2 4 5 6 4 2 1 2 4 6 8 11 12 11 12 12 12 11 12 11 12 12 12 12 12 12
16 13 14 11 11 9 7 6 4 2 2 2 3 2 3 1 5 2 1 2 3 4 4 3 2 2 3 5 6 7 9 10 11 14 15 14 13 12 13 14 13 13 13
20 19 16 13 11 9 7 5 4 3 0 3 2 2 4 3 8 4 3 0 2 4 3 2 4 3 4 4 5 5 5 7 9 11 13 14 15 16 16 16 16 15 15
20 22 18 14 12 10 8 6 4 4 1 1 2 4 6 4 6 5 4 4 5 4 2 2 4 4 3 1 0 1 2 4 6 7 8 10 12 15 15 16 16 15 17
20 23 21 17 14 12 10 8 7 3 1 3 3 3 2 3 4 3 5 4 5 4 2 2 2 2 2 2 2 3 2 1 0 2 4 5 5 8 10 12 13 12 13
23 25 23 19 15 13 12 11 9 7 5 4 4 3 2 2 1 2 4 5 5 5 3 3 4 4 3 2 3 5 7 7 5 4 3 4 5 5 6 8 9 10 10
23 25 24 20 17 15 13 13 12 9 8 7 4 4 4 4 2 0 3 8 7 6 3 3 2 2 3 4 3 4 5 6 7 8 8 7 6 5 5 6 5 6 7
24 23 23 22 21 18 14 16 15 12 10 10 9 5 4 4 5 3 2 5 11 10 8 8 6 6 6 5 5 3 3 2 3 4 6 8 8 7 7 7 8 7 7
27 25 25 25 23 19 16 15 17 14 11 12 11 9 6 3 4 3 2 3 6 7 12 11 11 11 12 10 9 8 6 5 4 3 4 5 7 7 7 7 8 8 9
28 27 25 23 25 23 18 17 18 17 15 14 14 12 11 7 3 4 4 2 2 4 3 9 10 13 16 16 15 12 12 11 10 9 8 8 8 8 8 8 8 9 10
31 27 24 24 25 24 20 19 20 18 16 15 13 13 11 9 7 6 6 7 1 1 3 6 6 6 10 16 18 16 15 14 14 14 13 13 13 13 13 13 13 12 13
34 32 27 26 28 27 24 22 22 21 19 17 15 15 14 12 9 9 9 8 6 2 2 4 5 5 4 5 7 12 11 13 15 16 16 16 16 17 19 20 19 19 18
35 33 31 28 29 30 28 26 25 23 21 20 17 17 18 16 14 12 10 11 11 9 2 5 6 5 4 3 4 6 7 8 10 12 14 14 15 16 16 17 19 21 19
40 35 33 31 28 32 31 30 29 26 24 23 21 20 19 18 17 16 14 12 11 11 7 4 6 7 9 6 6 7 8 8 9 10 11 12 11 10 11 12 13 14 16
40 37 34 34 31 32 34 33 32 30 28 27 26 24 21 18 19 17 16 15 13 11 9 8 6 8 9 7 6 8 8 5 8 12 12 9 12 15 16 17 17 16 17
40 37 36 36 34 34 36 35 34 34 32 31 30 28 25 23 23 20 18 17 17 15 13 12 11 10 7 7 8 7 8 13 14 15 13 14 15 16 13 15 15 16 18
42 40 41 39 37 33 35 37 37 36 35 34 33 30 27 26 24 23 21 19 18 18 16 14 12 11 10 8 7 8 14 14 15 17 15 15 13 9 12 11 12 12 11
45 44 42 42 41 39 37 39 39 38 37 36 35 32 28 25 23 23 24 22 20 18 17 16 15 11 11 11 11 7 13 18 23 18 15 13 11 14 15 12 13 12 12
41 41 42 42 42 44 42 39 37 38 36 36 37 36 31 29 26 27 24 22 23 23 21 20 20 16 13 10 9 9 11 12 6 13 8 13 17 18 18 18 16 16 16
39 42 41 40 43 45 43 40 38 38 35 36 36 35 31 30 30 28 25 22 22 22 20 19 19 16 14 12 10 12 14 15 12 18 15 12 17 20 20 17 15 15 17
40 39 40 43 41 43 44 41 39 38 37 35 34 32 27 29 30 28 25 22 19 19 18 17 20 20 16 13 12 13 13 13 14 17 16 6 14 18 13 14 15 16 19
35 37 37 38 43 43 43 42 39 39 38 36 34 28 24 25 24 22 21 20 19 18 14 13 14 15 14 13 12 10 9 7 5 9 13 6 7 11 16 18 12 12 14
33 32 35 43 45 45 43 42 39 41 36 34 32 26 24 22 18 16 18 17 18 17 13 13 16 15 11 8 7 9 9 7 5 3 5 6 10 9 6 15 11 16 16

GFSMA_925_spd_027.txt.gz
Wind_Speed
5 2 2 2 1 1 0 1 2 1 0 3 0 1 2 1 1 2 2 3 2 2 3 8 8 8 8 8 8 7 7 7 7 6 6 6 6 5 5 5 5 4 4
5 3 4 4 4 4 4 2 3 3 2 2 3 1 2 2 3 4 3 2 2 1 2 3 7 9 9 9 9 9 9 9 7 7 8 7 7 7 6 6 6 6 6
8 6 5 6 5 5 6 3 2 4 4 5 3 3 2 4 4 4 3 3 1 2 4 2 4 7 9 9 10 10 10 9 9 8 8 9 10 9 8 9 8 8 8
11 9 8 8 6 5 5 3 3 3 2 4 4 2 2 3 3 3 1 1 2 2 4 5 3 3 5 7 10 10 10 10 10 10 9 8 10 11 11 11 11 11 11
13 13 10 8 8 6 4 4 1 2 2 2 3 3 2 2 4 3 2 0 2 3 2 2 3 2 1 3 4 5 7 9 10 11 12 11 11 11 11 11 12 13 12
16 16 13 11 8 6 5 3 2 1 1 2 2 3 3 4 4 3 4 4 2 3 2 2 1 1 1 1 2 2 4 5 7 8 9 10 11 12 13 13 14 15 15
20 19 15 14 11 8 6 5 3 3 2 0 4 4 5 5 5 4 4 6 6 4 4 3 2 0 1 2 1 2 2 2 3 4 5 6 8 9 10 11 13 14 14
17 17 18 14 11 8 9 7 5 3 0 3 2 2 3 3 3 4 4 4 4 5 5 6 5 5 5 4 3 2 3 3 2 2 3 4 5 4 4 6 6 6 5
16 17 18 16 13 10 9 7 7 6 2 3 3 1 3 2 3 2 3 3 3 3 4 5 5 4 5 4 5 5 6 6 7 7 6 6 5 5 5 5 5 5 4
19 19 19 18 17 11 11 8 8 7 4 6 4 2 1 2 3 3 4 5 5 4 3 2 3 3 4 3 4 5 6 7 8 9 9 9 8 7 7 7 7 7 6
22 20 20 20 19 16 13 11 9 9 7 6 5 4 3 3 2 2 4 7 8 8 6 5 4 4 4 4 3 3 2 2 2 3 5 7 8 9 8 7 7 7 7
21 24 21 21 19 17 16 12 11 11 9 7 8 6 5 4 5 5 4 5 8 7 9 8 9 8 8 8 8 7 5 4 3 3 4 4 5 7 7 7 6 6 6
22 23 24 22 18 19 18 15 12 12 12 10 11 8 8 7 5 6 5 3 5 7 5 9 10 9 10 11 10 11 11 10 9 8 9 8 8 8 9 10 10 11 10
22 22 25 23 21 20 19 18 13 13 14 12 12 12 10 9 9 7 5 5 3 5 6 6 7 8 7 8 12 13 13 12 13 12 12 12 13 12 13 14 15 15 15
21 22 25 25 22 21 21 21 16 17 16 16 14 14 12 11 9 9 8 7 7 4 4 6 7 8 7 6 5 7 10 11 10 12 12 13 13 14 15 16 17 19 19
30 22 25 25 24 22 22 24 19 19 20 17 15 16 16 13 12 11 10 9 9 10 6 6 6 7 7 5 5 6 6 8 9 10 12 13 15 15 15 15 16 17 19
35 30 28 28 26 24 23 26 24 21 23 20 19 18 18 16 14 13 12 11 10 10 10 5 5 6 9 7 5 6 6 8 8 9 9 10 13 13 12 13 15 17 18
37 39 35 31 27 27 25 28 27 23 25 22 21 19 20 16 17 15 14 14 13 11 11 9 6 6 7 8 8 8 7 7 7 9 9 10 11 11 14 16 16 15 16
38 37 34 33 30 27 29 29 30 30 28 27 24 23 22 19 19 18 18 14 13 12 12 12 10 6 7 8 8 9 7 7 9 10 8 10 13 14 15 11 14 15 14
38 37 39 38 34 30 30 31 29 29 29 28 28 27 25 24 23 25 18 16 14 14 12 13 13 11 9 9 9 10 11 10 9 11 12 12 14 15 12 12 14 12 13
41 42 39 37 37 33 32 31 30 29 29 28 28 30 30 30 28 26 19 19 18 16 15 15 13 12 12 12 12 10 13 10 11 10 9 7 9 9 11 13 13 13 13
38 36 37 38 39 38 37 40 38 31 31 31 31 29 29 32 31 28 27 26 22 21 19 16 16 15 13 14 14 12 11 11 12 9 5 8 8 12 13 14 16 17 17
37 39 39 39 40 42 42 47 44 35 33 34 33 29 25 23 32 31 32 28 26 25 22 19 18 17 14 18 12 10 10 11 13 9 7 12 11 14 14 14 14 12 13
41 40 39 40 40 43 45 48 47 45 34 34 32 31 26 24 27 33 26 25 25 25 25 23 20 18 19 11 12 9 8 10 11 10 8 10 11 12 10 11 15 15 13
38 40 37 38 41 41 44 47 46 42 35 32 30 27 25 26 27 30 28 23 20 20 21 20 19 17 15 13 12 10 10 8 10 9 6 8 7 10 12 15 12 11 11
38 36 38 39 41 39 40 46 45 38 30 28 25 24 30 27 26 25 24 21 21 20 18 19 19 16 14 13 12 12 9 11 10 7 4 7 10 11 9 10 8 14 13

GFSMA_925_spd_030.txt.gz
Wind_Speed
1 1 2 1 1 1 2 1 3 3 1 1 1 3 4 5 3 3 7 6 5 4 6 9 8 7 7 7 7 5 5 6 6 5 4 5 5 4 4 3 3 3 4
3 1 2 1 1 1 1 3 2 3 2 2 1 3 4 4 5 3 7 6 4 3 4 5 9 9 8 8 7 7 6 6 6 5 6 6 6 7 6 5 5 5 5
5 3 0 1 1 1 3 1 1 3 3 4 5 4 4 3 8 6 4 6 8 6 4 4 6 7 8 8 8 8 8 8 8 9 7 9 8 8 8 8 7 6 7
8 5 2 2 1 0 1 1 2 2 3 3 3 1 2 7 5 6 5 1 2 8 7 5 4 5 6 8 8 8 8 9 10 10 9 8 8 9 9 10 8 8 9
9 8 5 3 1 1 1 1 1 1 3 2 4 1 2 5 3 9 5 3 3 1 5 4 4 4 3 2 3 4 7 8 10 10 10 10 10 10 10 9 8 9 9
10 8 8 5 3 2 1 2 1 1 0 1 4 3 4 6 4 5 5 6 6 5 3 2 3 6 3 4 2 3 4 4 5 6 7 7 8 10 10 10 10 10 10
10 11 10 7 6 4 1 3 2 2 2 2 6 7 7 6 5 4 4 7 5 3 2 2 3 2 7 3 3 2 1 1 3 3 2 2 3 5 5 6 7 8 9
13 12 12 8 6 4 3 3 3 1 1 3 2 4 6 7 7 3 4 5 4 6 5 4 4 4 4 7 3 3 3 3 4 3 2 2 2 3 3 0 2 4 6
13 12 10 9 8 6 5 4 4 3 1 5 3 4 3 2 9 7 6 4 4 4 5 5 5 5 4 4 5 5 6 7 7 8 8 7 7 6 6 5 4 3 2
14 12 11 11 11 7 5 4 5 4 4 6 6 6 4 5 4 6 8 7 7 5 4 3 5 5 5 4 6 6 8 9 8 8 8 9 9 8 6 5 4 3 3
16 14 13 13 12 10 8 6 6 7 7 6 7 6 6 7 6 6 4 10 9 9 7 6 4 5 5 4 5 4 5 5 4 3 4 5 6 6 6 5 5 4 4
19 18 16 15 14 12 11 9 9 10 9 7 8 7 7 6 6 7 5 4 5 9 9 9 8 8 7 7 7 7 7 6 5 3 1 1 2 2 3 4 3 3 3
21 21 20 18 16 16 14 12 11 11 12 11 11 10 9 7 5 4 5 3 4 4 7 10 10 10 9 9 10 11 12 11 9 9 8 7 7 6 7 8 9 9 8
19 19 21 21 20 18 16 14 13 13 13 13 12 12 9 9 9 8 6 4 4 6 6 7 6 8 9 10 9 13 13 13 12 13 12 11 11 12 12 13 13 14 15
20 20 22 23 22 20 18 17 16 15 15 14 13 13 12 11 10 9 8 7 8 5 5 10 9 8 6 7 7 6 8 11 13 12 12 13 13 14 16 16 16 16 16
25 21 22 23 23 22 20 20 18 17 17 16 15 15 15 14 12 11 10 10 10 11 6 4 6 5 5 6 7 5 6 10 9 10 11 12 15 17 19 19 18 16 16
28 28 26 24 25 24 23 22 22 20 19 18 18 17 18 16 15 13 13 13 14 13 10 8 7 6 8 8 7 8 9 8 9 11 13 13 13 15 18 18 17 19 20
33 32 30 28 27 27 26 25 24 24 23 22 21 20 20 18 16 14 15 16 15 11 12 10 8 9 10 11 13 12 11 11 11 6 11 13 15 15 15 16 18 19 17
36 35 33 33 31 30 29 28 27 27 26 25 24 23 21 20 19 18 19 16 14 14 14 14 11 11 11 11 12 12 12 11 10 13 14 14 13 14 17 18 17 15 18
36 36 36 35 35 33 31 31 30 29 29 27 26 25 24 23 22 21 20 18 15 14 14 13 15 14 12 12 12 13 13 11 13 12 15 15 16 17 19 18 16 17 17
37 37 37 36 36 35 35 35 34 33 31 30 27 27 26 25 25 24 20 19 18 18 17 17 17 16 14 13 13 11 13 15 11 13 14 12 15 13 13 14 17 15 14
39 39 39 38 38 39 41 41 38 35 33 32 30 28 25 27 29 31 30 23 21 20 20 19 18 17 13 13 13 13 15 12 13 6 7 12 10 13 15 17 15 13 17
37 41 40 40 41 43 45 46 47 39 35 33 31 29 27 26 28 27 33 30 29 27 25 20 21 19 15 15 14 14 14 14 14 11 8 16 14 15 16 17 10 12 12
39 38 39 41 40 42 46 49 48 45 34 33 32 31 31 30 27 26 25 27 29 27 29 27 24 21 19 14 14 15 14 12 12 14 11 10 12 14 13 13 15 12 12
33 34 32 34 37 40 44 48 49 43 40 35 36 33 31 30 29 31 25 25 22 24 24 26 25 23 20 18 14 14 14 11 13 11 7 7 10 11 12 16 14 11 15
32 32 34 34 35 35 35 43 48 40 36 37 34 33 36 33 30 31 28 25 25 24 22 19 25 26 23 18 18 17 12 13 11 10 2 6 11 11 11 13 8 15 15

GFSMA_925_spd_033.txt.gz
Wind_Speed
3 3 2 2 2 3 1 4 6 4 4 1 3 8 4 2 2 13 12 8 8 9 10 9 9 8 8 7 6 6 5 6 5 4 4 4 4 3 3 3 3 4 4
3 3 3 6 2 3 4 3 1 3 6 3 3 4 5 5 2 5 13 12 9 8 9 11 10 10 9 8 8 7 7 6 5 4 4 5 5 5 4 4 4 5 5
4 2 1 2 1 2 1 1 2 7 6 9 3 2 6 4 5 3 12 10 9 9 9 8 10 11 10 9 9 7 7 6 6 7 6 6 6 6 5 6 6 6 6
5 5 3 3 3 2 0 2 2 1 7 1 3 2 6 4 5 5 5 6 9 10 10 8 7 7 7 7 7 7 8 7 7 6 7 7 7 7 7 7 8 7 7
8 7 7 0 0 4 3 1 5 3 3 5 8 4 7 5 3 7 3 5 7 11 10 9 7 6 5 4 3 4 6 7 8 8 8 9 10 9 9 8 8 8 8
10 8 6 3 2 2 2 2 5 2 3 3 7 4 6 3 2 6 7 9 6 3 11 8 7 5 5 6 2 2 2 3 4 6 6 8 8 9 10 10 10 10 10
11 10 8 5 5 3 3 3 5 5 4 1 7 9 5 3 3 3 6 8 4 12 1 4 7 10 5 5 4 2 2 1 1 1 1 2 3 5 6 7 8 10 11
13 11 10 7 7 6 7 4 4 6 2 5 5 10 6 7 7 4 6 6 4 7 6 3 5 4 9 6 4 3 3 5 5 4 4 4 3 3 2 2 3 4 7
14 14 10 10 7 7 11 7 5 6 3 5 7 7 1 3 11 6 3 9 3 6 4 6 6 3 6 6 7 6 6 7 8 9 8 8 7 5 4 3 3 3 4
16 15 13 11 11 10 9 6 7 5 3 8 6 6 4 7 4 2 8 7 3 4 5 4 7 7 5 9 7 7 9 10 9 8 8 8 7 6 5 4 4 3 3
17 17 15 15 14 12 9 8 7 7 6 6 7 6 2 3 2 2 3 8 9 8 8 3 2 9 6 4 10 10 10 9 7 6 5 4 4 4 3 3 3 3 4
18 20 19 17 17 14 10 9 10 8 9 7 6 5 6 7 8 7 5 11 11 13 8 8 7 8 7 8 7 10 8 9 8 6 5 3 2 2 2 3 4 5 6
22 24 25 19 18 17 14 14 13 10 11 10 9 7 6 5 3 4 5 3 2 5 4 8 9 10 9 9 8 13 11 11 11 10 8 7 6 6 7 8 9 10 11
21 17 28 23 21 19 18 16 14 13 13 12 11 12 8 8 8 7 7 4 3 6 7 8 7 9 9 9 9 8 10 13 14 14 12 11 10 10 11 12 13 13 14
21 19 21 22 23 22 20 19 18 17 14 15 14 14 13 10 10 10 8 6 7 5 5 12 6 10 7 7 10 8 10 14 14 14 14 14 12 13 14 15 16 16 15
25 17 24 22 23 24 23 22 20 18 17 17 16 17 16 14 13 11 10 9 8 8 6 3 7 7 7 7 9 9 9 10 12 11 12 12 13 15 16 17 18 17 16
26 30 23 26 25 26 26 25 24 19 22 20 18 17 18 17 15 14 13 12 11 10 10 11 7 6 7 8 7 8 11 11 12 17 13 13 15 15 16 17 18 16 16
32 29 29 27 27 28 28 27 27 25 23 23 22 21 21 18 20 17 14 14 14 13 13 8 11 8 12 13 14 12 13 14 13 9 13 11 14 16 18 18 16 16 17
35 34 32 31 31 31 31 30 29 28 25 26 25 25 24 23 22 20 21 17 17 15 13 15 14 13 13 11 13 13 14 13 14 15 16 18 14 13 16 18 18 17 16
37 36 35 35 35 35 34 34 34 32 30 30 29 28 27 26 26 24 21 23 18 15 16 15 14 15 14 14 12 11 13 15 14 12 14 10 15 14 16 19 17 16 15
39 38 37 38 37 38 38 37 37 34 34 33 31 31 29 28 29 28 25 24 20 19 17 16 16 16 17 14 13 15 12 11 13 15 14 12 12 12 16 19 17 15 12
39 39 40 40 40 40 40 42 39 35 34 32 32 31 31 32 33 33 33 25 24 22 20 18 17 17 14 13 13 14 12 12 10 9 9 11 12 13 14 14 1 9 7
37 40 39 38 40 42 43 44 45 39 35 35 34 34 32 31 34 32 36 35 29 29 26 22 20 19 12 10 12 9 12 14 14 11 6 11 13 15 11 7 6 8 10
37 37 37 38 39 42 44 46 47 48 40 37 37 37 35 34 34 36 32 36 39 34 32 31 24 21 18 15 7 11 13 12 13 16 14 12 11 11 11 11 13 12 9
35 37 37 37 41 41 42 47 48 45 44 42 39 36 37 35 35 38 34 30 29 32 32 35 33 26 24 18 15 12 14 10 12 17 17 15 9 9 10 12 12 10 9
36 33 36 39 41 42 44 47 50 44 41 41 41 38 41 40 39 39 41 33 30 30 30 29 30 35 29 26 21 22 15 14 16 14 8 15 8 9 10 12 8 10 13

GFSMA_925_spd_036.txt.gz
Wind_Speed
8 2 8 6 7 10 3 4 6 5 4 5 3 6 7 13 13 10 10 9 10 11 10 10 8 7 7 6 5 4 4 4 3 2 2 2 3 3 2 2 2 2 2
7 1 4 3 8 7 6 5 4 2 4 4 1 5 8 8 13 7 10 10 9 9 10 9 8 7 6 6 6 4 4 3 4 3 3 4 4 5 5 4 4 4 4
6 3 4 6 5 3 6 6 4 4 5 8 6 3 5 8 9 13 7 9 10 9 8 9 10 9 8 7 6 6 6 5 6 6 5 5 6 6 7 7 6 7 6
3 3 1 6 4 1 6 3 9 9 4 9 1 4 9 7 6 18 11 13 10 9 8 8 9 10 9 8 8 8 8 8 8 7 6 6 5 6 7 8 9 9 9
7 3 2 4 4 2 1 5 2 3 8 6 3 10 7 6 5 8 11 11 14 9 9 10 10 8 7 6 7 6 6 8 8 7 7 7 8 9 9 10 9 9 9
9 7 7 5 1 4 2 2 4 3 6 6 7 9 8 4 6 9 8 11 18 14 9 9 12 8 8 7 5 4 4 4 4 4 5 6 7 8 9 10 11 11 10
10 11 5 5 7 4 5 6 2 2 3 2 4 9 5 4 1 4 14 14 17 11 9 11 11 8 9 7 6 6 5 4 4 3 3 2 2 3 5 6 7 7 8
12 11 10 7 6 6 6 6 4 4 5 5 1 7 3 7 6 5 13 10 4 14 9 10 8 12 11 7 4 3 5 6 5 5 4 3 3 2 1 0 2 3 4
16 15 10 10 7 6 9 5 5 2 4 6 2 3 2 2 6 6 7 13 7 10 6 11 12 8 13 6 6 5 6 7 8 8 7 6 5 4 4 5 6 7 8
20 18 15 11 10 8 13 9 6 2 4 6 1 1 1 3 2 1 8 12 8 7 10 12 13 11 11 9 7 6 8 10 9 7 7 7 6 7 7 6 6 6 6
22 19 17 16 14 14 12 10 8 8 4 4 7 7 4 5 3 3 1 6 8 11 12 8 15 12 13 12 13 10 10 9 7 5 4 4 3 4 4 4 4 4 5
23 21 19 20 18 16 12 11 12 8 9 7 7 9 8 5 7 6 3 8 14 13 15 11 8 13 12 15 13 12 12 11 9 7 5 4 1 1 2 3 4 6 7
24 26 25 20 20 19 15 12 12 12 12 10 12 6 8 8 2 2 6 3 4 12 9 11 13 11 9 11 15 16 13 12 11 11 10 8 6 6 6 8 9 10 11
26 25 28 28 25 20 20 17 15 15 13 15 13 15 10 8 6 5 6 5 1 6 9 10 15 14 13 11 8 12 13 12 12 12 12 12 12 11 10 11 11 12 13
20 23 29 31 29 25 23 22 21 19 16 18 18 17 17 10 10 10 10 8 6 1 4 11 7 13 10 13 12 9 11 13 14 13 13 15 16 14 13 13 13 13 13
28 17 29 33 28 27 24 25 22 21 21 20 20 20 19 18 11 13 11 11 9 7 2 7 14 14 13 8 10 12 11 13 13 14 15 15 13 13 13 14 14 14 12
22 30 23 31 31 28 28 27 27 23 24 25 23 23 25 20 18 14 16 14 11 11 8 13 6 14 16 13 9 9 11 11 11 16 19 14 12 13 13 14 15 16 13
35 27 31 29 29 31 30 32 30 29 26 31 33 27 24 25 24 21 12 18 16 13 13 12 13 8 12 13 13 11 11 12 16 12 19 18 15 13 14 16 17 16 16
35 37 29 31 34 32 33 33 33 32 33 30 29 31 27 24 24 28 25 17 19 17 12 14 14 12 13 16 16 14 15 16 15 15 15 17 15 13 14 14 18 17 16
38 38 38 36 33 33 33 34 33 31 32 30 29 30 31 31 31 30 29 28 22 20 23 20 19 19 16 19 20 20 20 18 19 17 16 18 12 17 16 14 13 14 13
42 40 39 37 36 35 36 35 35 35 35 35 33 31 33 34 35 37 33 32 30 29 21 24 21 19 18 15 23 23 18 14 15 16 15 16 17 13 14 16 17 18 15
38 37 37 38 38 39 40 41 38 35 35 36 35 35 35 37 39 40 39 34 36 32 30 25 20 20 24 23 17 23 22 20 7 10 10 15 12 13 17 16 8 8 12
38 39 38 39 41 43 44 46 46 42 39 37 38 37 36 37 40 42 42 39 34 34 36 35 27 25 18 22 19 16 17 11 9 8 9 8 10 13 15 11 6 2 6
38 39 38 39 40 44 46 48 49 50 44 43 42 42 39 38 39 43 42 46 44 42 41 39 36 35 29 20 16 19 15 12 11 13 13 8 14 14 8 8 6 4 4
37 38 37 38 41 42 43 49 49 50 45 45 44 43 43 42 43 43 42 39 43 45 44 41 41 29 24 23 18 17 14 14 10 12 14 18 17 14 6 8 9 9 5
36 34 36 39 41 43 43 46 50 44 42 44 43 43 46 47 45 47 46 37 33 36 35 34 42 40 32 25 24 21 20 17 11 10 16 19 21 12 4 9 8 6 8

GFSMA_925_spd_039.txt.gz
Wind_Speed
7 7 10 8 8 7 3 3 3 4 6 9 13 18 22 21 13 12 12 11 12 12 12 10 10 9 9 7 7 6 6 6 5 4 2 2 2 2 1 1 1 1 1
8 6 6 9 9 2 8 4 5 4 3 8 12 12 20 15 13 13 10 10 12 11 10 11 10 10 9 7 6 6 5 5 5 4 3 3 4 4 3 3 3 3 3
7 7 6 8 6 4 5 4 3 7 4 5 7 8 14 16 13 16 7 10 11 11 11 11 10 9 8 8 7 6 5 4 4 4 3 4 5 5 5 5 5 5 5
8 7 7 10 8 5 7 5 1 5 7 7 5 10 11 14 13 9 12 12 11 10 8 10 11 9 8 7 7 7 6 6 7 7 7 7 6 5 5 5 6 6 6
11 8 6 7 7 4 6 5 3 3 7 4 7 14 11 11 13 13 13 12 11 8 7 8 7 7 7 7 7 5 7 8 8 8 7 7 7 7 7 7 7 7 7
14 11 6 9 4 4 6 6 6 5 7 10 8 11 10 7 12 16 16 17 12 10 9 9 9 7 5 5 4 5 6 5 5 6 6 6 7 7 7 7 7 8 8
14 12 8 8 6 7 5 4 5 5 6 7 11 12 7 5 5 12 20 15 12 11 9 6 8 9 8 6 4 5 5 4 2 2 3 2 3 3 3 3 3 3 3
14 12 11 8 8 10 7 6 6 3 2 6 6 1 2 1 7 16 14 15 15 15 11 7 8 8 8 6 4 5 4 5 4 4 3 2 2 2 2 3 3 4 5
17 14 13 12 11 10 11 8 9 7 7 8 4 3 2 2 2 12 13 17 17 14 11 12 12 9 8 4 6 6 5 6 7 6 6 5 5 5 6 6 7 7 7
18 16 17 14 12 12 11 9 10 8 8 9 7 4 4 5 3 1 11 11 15 12 10 13 14 14 10 9 7 7 9 9 8 6 6 5 5 6 7 7 6 6 7
22 21 20 15 15 13 13 11 12 10 9 7 8 11 7 4 5 3 2 7 11 12 16 15 14 16 14 12 10 9 10 9 7 6 4 4 4 3 3 4 4 5 6
26 24 22 21 19 18 17 14 13 13 11 9 7 11 12 8 9 5 2 7 14 12 17 19 19 16 17 18 13 13 13 10 8 6 4 2 1 1 2 3 4 5 6
30 27 24 24 23 19 18 17 17 16 16 13 8 8 10 12 8 10 6 5 6 8 13 16 17 17 19 19 18 18 15 14 12 9 7 6 5 7 7 8 8 8 9
28 29 29 27 26 23 22 19 18 16 15 17 15 14 12 9 7 7 4 3 1 2 9 9 23 19 17 19 20 19 18 15 13 11 10 10 10 11 11 12 12 11 11
29 29 29 33 30 28 24 24 22 21 19 17 19 17 17 14 9 9 8 7 4 2 2 12 9 20 21 19 16 17 16 15 14 14 13 12 12 14 13 14 13 12 12
30 23 33 35 36 33 27 28 25 24 22 22 20 18 20 20 16 12 15 14 12 9 3 5 17 15 21 23 20 16 15 12 12 11 13 13 12 14 13 13 13 13 13
25 31 24 33 39 37 32 30 29 27 25 24 23 22 20 21 23 18 15 18 17 16 11 9 10 16 20 19 19 17 15 16 15 14 14 15 14 12 12 13 14 15 14
36 26 28 26 34 36 34 31 30 30 29 28 28 27 25 23 23 25 20 24 25 20 19 15 8 17 22 21 20 21 19 17 16 14 12 16 20 16 14 11 14 17 15
39 37 30 28 32 36 36 36 36 35 35 32 33 32 31 29 31 32 31 25 26 26 22 19 18 18 23 23 22 20 18 17 19 17 20 17 14 19 15 13 12 14 14
40 41 37 32 34 38 40 40 38 38 39 39 34 35 39 38 37 36 34 34 29 25 26 23 22 22 20 20 26 26 23 21 18 18 17 14 11 18 17 16 14 13 14
37 40 38 38 39 39 42 43 41 42 42 41 40 39 39 42 43 41 38 37 37 33 29 32 28 23 25 19 27 31 28 26 22 20 22 18 15 19 18 18 18 13 17
39 37 40 40 40 41 40 43 44 40 41 40 41 43 43 41 44 44 44 41 39 40 36 31 27 22 29 32 26 30 31 25 12 20 22 24 17 18 20 15 14 14 12
36 38 39 40 41 42 41 42 46 43 39 41 42 39 41 40 42 45 46 46 45 42 43 40 31 32 29 37 33 29 35 32 23 20 22 18 15 16 11 12 11 11 8
37 38 37 41 40 43 44 45 46 49 41 40 41 43 41 41 40 42 41 47 49 48 46 43 42 35 38 35 34 37 34 34 24 24 21 11 18 19 14 10 11 11 8
35 37 36 37 40 41 42 45 45 48 44 45 41 40 42 44 43 43 42 41 44 47 48 48 46 44 41 36 28 27 27 27 11 13 20 17 19 20 16 16 15 11 11
37 33 36 37 39 41 39 40 41 44 40 41 39 41 43 46 43 44 46 39 38 44 44 40 47 47 48 45 38 32 30 27 18 12 22 18 17 16 7 16 17 14 14

GFSMA_925_spd_042.txt.gz
Wind_Speed
11 7 6 5 3 5 3 3 4 5 5 7 9 12 14 13 12 13 13 14 12 12 11 10 10 9 8 7 7 7 7 6 4 3 2 1 1 1 1 1 1 2 3
10 8 5 5 6 2 4 1 1 3 4 11 15 16 16 16 13 13 11 12 12 11 9 9 9 8 8 7 6 5 5 5 4 4 4 3 3 3 4 3 4 4 4
10 7 9 8 4 4 4 3 2 2 4 13 14 16 17 16 13 13 11 9 12 11 10 8 7 7 8 7 7 5 4 4 5 3 3 3 4 4 5 5 5 6 7
10 9 8 9 8 6 4 7 2 3 3 4 4 14 16 14 14 9 10 7 8 10 10 8 8 7 6 8 8 6 6 5 5 5 5 6 6 5 5 6 7 7 7
13 10 7 10 9 6 6 5 3 6 6 5 4 12 15 13 14 9 10 8 7 7 7 7 6 7 7 8 7 6 6 6 7 7 7 8 7 7 7 7 8 8 8
15 11 7 10 7 5 5 8 6 6 8 11 9 10 14 14 14 9 11 10 7 7 7 8 8 6 4 5 5 4 5 5 6 6 7 7 7 8 7 7 7 6 7
16 14 11 11 7 7 6 7 7 9 8 8 14 8 6 9 17 14 11 12 10 9 7 7 6 6 6 4 3 3 3 4 4 4 4 4 3 3 3 3 2 2 2
17 15 15 13 11 8 8 7 6 7 6 7 6 3 2 3 7 19 15 16 12 10 9 8 6 6 6 4 3 3 3 4 3 1 1 1 2 2 3 3 3 5 5
19 16 15 13 12 11 10 9 8 6 6 8 5 4 2 2 3 10 16 18 15 14 12 11 8 7 6 4 3 4 4 5 5 5 4 4 4 5 5 5 6 7 7
23 19 15 15 12 14 12 12 10 9 10 12 6 4 3 10 3 0 6 15 18 16 17 16 11 10 10 8 5 6 7 8 7 6 5 5 5 6 6 6 6 7 6
26 23 18 18 17 16 16 12 14 12 11 13 12 9 6 6 6 3 3 5 15 16 17 16 14 12 14 11 9 9 10 9 7 6 5 4 4 4 3 2 3 3 4
30 27 21 20 18 19 17 16 16 16 13 12 12 12 11 6 7 4 2 6 13 14 17 19 17 16 16 16 14 12 12 11 9 8 6 4 3 2 1 1 3 5 5
33 30 25 24 23 22 20 19 17 17 17 15 13 10 13 13 8 9 6 5 7 13 14 22 22 22 20 20 19 17 17 14 12 11 9 8 6 6 5 5 6 7 8
32 30 30 27 26 25 23 23 21 19 17 17 15 13 12 11 11 9 9 6 0 6 10 11 22 26 25 23 20 21 20 19 17 14 13 11 10 10 9 9 9 9 9
29 29 31 31 29 28 26 25 23 21 20 17 19 18 17 15 12 11 12 13 8 3 5 13 12 24 26 27 23 25 24 22 20 18 17 15 13 12 12 12 12 12 10
30 29 31 34 32 32 30 28 27 24 23 21 20 21 22 21 19 18 15 14 14 11 3 12 17 17 25 29 26 24 24 22 20 19 17 18 16 15 13 13 13 12 11
28 31 31 33 36 35 34 32 31 30 28 27 24 23 22 24 27 24 20 17 19 17 13 14 13 18 18 26 28 26 24 24 22 19 18 18 18 18 16 13 13 13 12
37 27 34 29 35 36 38 38 35 34 32 31 30 27 29 27 27 30 27 25 22 22 21 20 18 17 20 24 28 28 25 24 25 23 21 19 18 20 19 16 14 13 13
40 36 29 32 34 34 37 40 38 36 35 36 35 33 34 32 32 30 30 31 28 25 25 25 25 19 20 24 28 28 28 26 25 24 22 22 20 19 22 20 17 15 13
41 41 37 38 32 35 35 37 40 39 37 37 37 37 37 37 36 35 33 33 33 31 27 28 27 23 22 25 28 29 31 31 30 26 24 24 23 20 20 21 20 20 18
42 42 43 41 40 36 38 39 40 42 42 40 39 40 40 40 40 40 39 38 36 36 36 31 29 25 23 25 29 32 33 34 33 29 27 26 24 21 22 24 24 22 21
40 38 43 41 43 41 40 41 42 43 44 42 42 42 42 42 43 44 43 43 41 39 35 29 27 24 30 35 31 35 33 25 14 33 32 30 27 27 26 25 25 19 20
38 41 39 41 39 41 42 42 44 45 41 42 42 40 41 44 45 45 46 47 46 47 46 40 35 37 33 38 38 35 35 29 28 29 31 34 31 32 29 27 25 21 19
35 37 39 39 38 41 41 43 42 44 41 39 41 42 41 40 42 44 44 42 49 53 53 51 47 45 43 40 41 42 40 41 37 33 34 24 31 32 26 24 23 19 19
33 35 36 37 40 38 39 41 41 44 42 41 38 39 41 42 42 40 41 39 39 51 49 54 56 55 53 45 44 38 33 27 20 27 34 35 27 30 26 27 22 21 20
34 34 34 36 38 37 37 38 39 42 39 36 37 41 42 46 41 39 41 38 39 46 36 39 50 55 57 55 49 45 38 32 29 18 34 32 26 23 8 23 25 27 24

GFSMA_925_spd_045.txt.gz
Wind_Speed
9 7 6 5 4 3 4 4 6 6 5 4 9 14 9 9 8 10 12 11 11 10 9 9 9 9 8 8 7 7 5 4 3 2 1 1 2 2 4 5 6 7 7
9 6 6 4 5 3 4 3 5 6 8 4 10 11 11 10 8 9 11 12 10 9 9 8 8 7 6 6 6 5 5 4 3 3 3 3 3 5 5 5 5 6 7
10 7 6 6 6 4 2 3 3 8 6 9 11 11 11 10 9 10 10 10 10 8 8 7 7 6 5 5 4 4 4 4 3 3 3 4 5 5 6 7 8 8 9
11 9 6 6 6 4 2 3 2 4 10 9 7 10 11 10 10 9 8 8 8 9 8 9 7 6 6 5 5 6 5 4 5 5 7 7 7 7 6 7 8 8 8
10 8 7 8 6 3 2 3 2 2 3 3 6 12 11 11 9 8 7 6 6 6 7 5 5 4 5 5 6 7 6 7 7 8 8 8 8 8 8 9 10 10 10
14 10 6 6 7 5 5 5 4 5 7 4 7 9 12 10 11 6 8 6 5 4 5 5 6 5 3 4 5 6 6 6 6 6 7 7 7 7 7 6 7 7 7
16 12 8 10 8 6 4 6 4 5 5 8 12 5 4 5 12 11 9 7 5 5 5 5 3 3 3 5 4 3 4 3 3 3 4 3 4 4 3 3 4 5 5
17 14 11 11 10 8 7 8 6 6 4 7 6 5 2 1 4 14 9 10 9 7 7 4 4 3 3 4 3 3 3 3 2 1 1 2 3 4 5 6 6 7 7
18 16 13 13 12 11 8 8 8 8 6 6 8 5 2 2 1 5 11 12 12 11 10 7 6 4 5 3 2 2 3 3 3 4 4 4 5 6 7 7 8 8 8
22 20 16 14 13 12 11 9 9 8 7 10 7 4 3 6 3 1 5 11 15 15 14 12 9 7 7 5 3 4 5 5 5 4 4 5 7 8 7 7 6 6 6
23 23 19 15 16 13 12 10 10 11 9 12 8 7 4 6 5 3 3 5 14 18 16 16 15 12 10 10 7 7 7 7 7 6 5 5 5 5 5 4 3 2 2
25 26 23 20 17 16 14 14 11 13 10 10 12 10 9 6 7 4 2 5 9 12 18 17 18 17 15 14 13 11 11 10 10 8 7 6 6 5 5 4 3 2 3
28 29 27 25 21 19 16 15 16 15 14 13 13 12 14 13 7 10 5 4 6 14 11 20 20 20 19 18 17 16 15 14 13 12 12 10 9 8 7 7 6 6 7
31 30 30 28 24 21 18 18 17 16 16 17 15 15 14 16 14 11 9 7 1 3 12 11 16 23 22 22 21 20 20 19 19 17 16 15 14 13 12 11 11 10 10
29 31 30 30 27 24 22 21 21 21 19 18 18 18 17 17 13 12 12 10 8 3 3 10 14 17 23 25 24 24 24 23 23 22 21 19 18 17 16 15 14 13 12
31 29 30 30 31 28 25 25 24 24 23 20 20 21 23 21 18 17 15 14 14 11 3 6 13 19 18 23 26 27 27 26 27 26 25 22 21 20 19 17 18 16 14
33 29 29 28 29 31 30 29 29 28 28 26 24 24 25 24 25 22 22 19 18 17 13 17 14 18 18 22 25 30 31 30 29 28 28 24 23 22 21 21 18 16 15
35 33 30 30 30 30 33 32 33 32 31 31 29 29 29 26 26 24 25 26 25 21 21 22 22 20 19 21 21 27 32 32 30 28 28 27 25 24 24 23 23 19 16
35 35 29 31 33 34 34 35 35 36 36 34 34 33 33 31 31 30 28 28 30 28 24 25 28 27 24 23 24 28 31 34 33 31 29 28 28 28 27 24 25 24 21
39 39 38 39 34 36 35 33 34 36 38 38 36 35 35 36 37 36 34 33 31 30 31 32 31 32 29 27 27 28 31 35 37 35 32 31 30 29 28 27 27 27 26
42 45 41 40 41 38 36 39 38 36 35 38 39 39 38 38 39 38 38 39 37 37 35 36 32 34 30 27 28 32 35 36 38 37 37 36 32 31 31 30 29 27 26
41 41 43 44 42 44 41 41 36 38 38 38 40 41 41 40 40 41 41 42 41 39 34 28 29 27 31 31 34 34 35 24 15 36 39 43 38 38 36 34 31 28 25
37 38 39 40 42 43 42 44 42 41 40 41 43 42 42 43 44 44 44 44 45 47 48 39 33 36 35 35 37 36 36 33 33 32 29 34 40 43 40 39 34 30 26
37 38 37 37 38 39 44 44 43 43 41 41 43 44 44 45 43 43 42 42 46 48 48 50 50 50 44 38 37 41 41 38 37 36 36 30 32 40 42 42 37 29 23
33 36 38 38 38 38 40 41 39 42 43 43 41 42 45 44 44 41 39 38 41 47 40 44 48 50 52 53 46 37 34 28 25 29 39 32 29 30 34 37 33 28 24
34 32 32 34 38 39 38 38 40 41 35 34 37 41 41 43 41 38 39 39 39 39 32 35 41 46 47 49 52 47 42 31 29 20 31 28 27 26 9 30 31 29 24

GFSMA_925_spd_048.txt.gz
Wind_Speed
6 6 6 5 4 4 6 7 6 4 5 7 9 8 6 4 7 8 9 10 8 6 7 7 7 5 5 5 4 3 2 2 2 2 1 2 3 5 5 6 7 8 8
7 6 5 4 4 4 5 5 5 4 4 4 7 9 5 6 5 7 8 8 7 6 5 6 5 5 4 3 3 3 2 2 1 2 3 3 4 6 7 7 8 9 10
8 5 4 4 6 6 5 6 8 6 4 6 6 7 6 6 5 7 8 7 7 8 6 5 4 4 4 3 2 2 3 3 3 3 3 4 5 6 6 7 8 9 9
9 7 6 5 6 6 6 5 7 6 6 4 5 7 6 5 5 6 6 6 7 5 6 6 5 5 4 4 5 6 6 5 4 4 6 6 6 6 7 7 8 9 10
10 8 7 7 5 4 5 6 5 6 7 5 7 7 5 5 5 5 4 4 5 4 5 4 3 4 5 5 5 7 7 7 6 7 7 7 6 6 6 7 6 6 6
12 9 7 9 7 4 2 2 3 4 6 6 8 7 5 4 4 3 3 2 2 2 3 4 3 4 5 4 5 6 5 5 6 5 5 5 5 4 3 3 3 4 5
14 12 9 8 8 5 4 5 2 3 7 8 9 6 4 4 7 6 5 4 2 2 2 3 3 3 3 4 4 4 4 3 4 4 3 2 1 1 2 2 3 5 7
15 14 11 10 9 7 5 6 3 2 5 8 4 4 2 1 1 9 7 7 5 5 5 4 3 4 4 3 4 3 3 3 2 1 1 1 3 4 4 5 6 7 9
16 16 14 10 10 8 7 6 6 6 5 6 8 3 2 2 1 3 8 8 9 9 8 6 5 3 3 3 3 1 1 1 1 2 2 2 3 5 5 6 7 7 8
19 17 16 12 10 9 8 7 6 6 6 9 8 4 3 3 2 0 4 8 10 11 11 10 9 6 4 4 3 1 1 2 2 2 2 3 4 5 5 4 4 5 5
18 19 17 13 11 11 10 8 8 8 9 11 8 6 4 3 3 2 1 4 10 15 15 14 12 10 8 8 6 5 4 5 5 4 2 3 3 3 3 2 0 1 3
19 19 19 17 14 13 11 9 9 8 10 9 11 7 6 4 6 3 2 5 7 6 16 17 16 15 14 13 11 10 9 8 8 7 7 6 6 5 5 5 5 4 5
24 22 22 21 19 15 14 12 11 10 12 11 10 12 12 10 6 9 5 3 3 4 6 12 18 17 17 17 15 14 14 13 13 12 12 11 10 10 9 9 9 9 10
28 23 22 23 22 19 16 14 14 14 14 15 13 12 13 12 13 10 6 4 0 2 4 11 11 13 17 19 19 18 19 18 18 18 17 16 15 14 13 13 13 13 12
28 25 23 23 24 22 19 18 17 17 17 16 17 16 15 14 13 12 13 10 6 1 2 7 9 11 14 18 20 22 22 22 21 21 21 22 20 19 17 17 15 16 15
27 25 23 25 26 25 24 22 22 20 20 21 20 18 18 17 15 14 13 12 12 9 2 4 11 14 14 16 18 23 25 25 25 25 25 25 25 24 22 21 19 17 15
31 28 26 23 26 27 27 27 25 23 23 23 23 20 20 18 19 20 19 17 16 14 12 21 19 19 18 20 20 22 24 27 29 29 28 28 28 27 25 24 23 21 18
31 32 28 26 27 28 28 27 29 27 26 26 26 25 25 23 23 22 21 22 22 21 21 22 27 26 26 24 23 23 25 27 29 31 31 30 30 29 27 26 27 25 22
35 33 32 32 32 30 29 28 27 29 29 29 29 29 29 28 28 28 27 26 26 25 27 29 28 27 31 29 29 29 29 30 31 32 33 33 31 31 31 30 29 27 25
37 36 36 35 33 33 31 30 29 29 31 32 33 34 33 33 32 31 31 32 31 30 30 31 29 27 27 34 32 34 34 35 35 34 35 37 35 34 32 31 31 29 26
40 38 38 38 37 35 33 31 32 32 31 31 32 34 36 37 36 34 33 34 34 33 29 28 25 22 27 24 27 28 31 33 37 36 38 39 39 40 38 35 34 32 29
40 40 41 41 41 41 40 39 37 35 36 38 39 38 37 36 37 37 36 36 37 35 29 25 27 26 31 32 31 30 28 23 19 27 36 42 43 45 44 42 39 34 31
36 39 40 39 42 44 43 41 41 41 40 40 39 39 39 40 39 38 39 39 41 41 41 37 34 33 36 32 33 30 29 32 31 32 28 28 31 41 46 47 45 40 35
37 38 37 39 39 42 44 44 43 42 42 43 43 44 43 43 41 41 40 41 44 43 42 41 44 49 46 45 36 36 38 36 36 35 33 25 31 33 39 42 45 46 42
33 36 37 37 38 39 39 39 39 41 42 43 42 43 45 45 43 40 38 37 42 39 33 38 41 42 41 41 38 37 27 25 29 33 33 32 34 35 35 44 45 46 45
33 30 31 34 38 39 38 38 38 39 33 33 38 43 43 44 41 39 38 37 36 34 30 35 36 38 39 41 39 40 44 31 28 20 31 32 37 29 14 36 46 48 44

GFSMA_925_spd_051.txt.gz
Wind_Speed
6 6 4 4 5 5 5 5 5 5 3 4 4 3 3 3 4 4 4 5 2 3 4 4 4 4 4 3 3 3 2 2 2 2 2 3 4 5 6 6 7 7 9
6 5 4 4 5 6 5 4 3 4 3 3 4 4 3 3 4 4 4 4 5 2 2 3 2 2 2 1 1 2 2 1 1 2 4 4 5 6 6 6 6 8 8
6 5 4 5 6 8 6 5 4 4 5 6 6 6 4 3 3 3 3 3 2 3 3 1 2 2 2 1 2 2 2 2 2 3 4 5 6 6 7 7 8 8 9
6 5 5 6 8 8 8 6 6 6 6 6 6 6 4 4 3 3 2 2 2 1 2 3 3 4 3 5 6 5 5 5 4 4 6 7 8 8 8 8 8 8 7
4 5 5 7 8 8 7 6 5 6 5 5 6 6 4 3 2 2 1 1 1 1 1 3 2 4 4 5 5 5 6 7 7 7 7 7 7 7 6 6 5 6 5
7 6 6 7 7 6 5 5 7 7 4 5 6 5 3 2 2 1 1 1 1 1 1 1 2 3 5 4 4 6 5 5 5 5 5 5 5 4 3 3 4 5 6
9 8 5 6 7 8 8 7 7 6 7 8 7 5 2 2 4 3 1 1 1 1 1 1 2 2 3 4 4 4 4 3 4 3 3 3 2 2 3 4 5 7 8
10 10 8 7 6 5 5 6 6 6 6 8 3 4 2 3 2 5 4 4 3 2 1 2 2 3 3 2 3 4 3 2 2 2 2 2 2 3 4 5 7 8 9
13 11 9 7 7 7 5 6 5 4 5 4 5 1 2 2 1 3 6 5 5 5 4 3 3 3 3 1 1 1 1 1 1 1 2 2 3 3 5 6 6 6 6
15 13 12 11 9 8 7 6 6 5 6 5 3 4 3 1 2 2 4 6 7 7 6 5 4 4 4 3 3 1 0 1 2 2 1 2 3 3 4 4 3 3 3
17 16 14 13 11 9 8 8 7 8 7 6 7 5 3 2 1 2 0 2 6 8 8 8 7 7 7 7 6 5 3 3 3 3 3 3 3 3 3 2 1 2 2
16 17 16 16 13 9 9 9 8 8 8 8 9 6 5 3 3 4 3 2 4 4 6 10 11 10 10 10 10 10 8 8 7 7 7 7 7 7 7 6 6 6 6
17 18 18 17 15 13 11 10 9 9 9 9 10 8 7 5 3 3 5 5 4 3 4 7 10 13 13 13 13 14 13 13 13 13 12 12 12 12 11 11 11 9 9
20 19 21 19 18 16 13 12 10 10 10 10 10 10 6 6 6 6 6 5 4 4 4 6 7 10 11 15 15 16 17 17 17 17 17 18 18 17 16 16 15 14 13
19 20 23 21 20 19 18 14 12 12 12 11 10 11 10 8 7 7 8 7 7 5 6 5 3 4 7 11 15 18 20 21 19 20 21 22 23 22 21 20 19 17 16
22 18 23 22 19 19 19 18 14 14 13 12 11 11 12 10 9 8 9 8 7 8 6 6 9 11 14 13 14 16 19 22 24 24 25 26 26 26 26 25 23 22 20
26 24 25 24 22 20 19 20 19 16 15 14 14 14 15 13 11 11 12 12 11 11 15 18 14 14 21 21 20 20 20 22 22 25 27 30 30 30 30 29 28 26 25
30 27 28 27 24 21 19 19 18 18 18 17 17 16 17 15 15 15 15 16 15 15 16 20 21 20 21 20 24 25 25 22 23 24 26 29 31 33 33 32 31 30 29
34 31 28 30 28 25 22 21 20 20 19 19 19 18 18 17 17 17 17 18 18 15 17 19 24 20 22 19 20 23 26 26 27 30 32 34 33 34 37 36 35 34 33
36 35 33 32 31 25 22 20 20 20 20 20 21 21 20 20 21 19 19 20 20 20 19 21 24 25 24 22 19 23 25 23 26 23 27 31 35 37 36 37 38 37 37
34 36 36 33 31 27 26 25 23 23 23 22 22 23 22 24 26 26 22 22 19 19 19 20 23 23 24 22 22 23 26 28 27 23 26 28 26 29 31 38 42 43 41
32 34 31 30 29 30 31 33 30 25 24 24 24 24 25 27 31 31 31 31 30 24 23 24 26 26 24 25 26 27 27 28 27 21 20 25 22 29 29 29 36 43 47
29 31 30 29 31 33 36 37 38 33 28 27 26 24 25 25 27 27 29 33 33 34 35 35 33 31 33 28 28 28 28 30 33 30 26 34 28 34 33 35 39 44 47
29 28 28 30 31 33 38 40 41 39 33 33 32 30 29 29 27 27 27 26 27 26 27 30 34 42 37 33 30 31 31 32 35 33 27 31 34 36 37 40 42 44 47
28 29 28 28 30 32 35 38 37 33 34 36 35 33 32 33 32 32 31 31 33 31 28 31 34 37 37 35 33 33 29 25 26 31 28 31 36 36 36 36 35 38 45
30 27 28 31 32 32 35 38 36 30 30 32 32 33 37 37 34 33 34 30 32 30 27 27 27 28 28 30 31 31 36 28 28 28 28 27 31 29 16 23 34 36 40

GFSMA_925_spd_054.txt.gz
Wind_Speed
6 7 5 4 4 5 6 6 7 6 5 5 5 5 6 7 6 5 7 5 6 4 4 5 3 4 3 3 3 2 2 3 4 5 4 4 5 5 5 5 6 7 8
6 6 5 5 5 5 6 5 5 6 6 6 5 5 5 7 6 4 6 4 4 3 2 2 1 1 1 1 1 1 3 3 3 4 4 4 5 6 6 6 6 6 8
5 5 5 4 5 4 5 5 5 5 8 7 6 6 6 7 8 5 5 5 3 2 1 1 0 0 1 0 2 2 3 3 3 4 4 5 6 6 6 5 6 7 8
5 4 4 6 6 5 5 6 7 7 7 5 7 6 6 6 7 5 4 2 3 3 1 1 2 2 2 3 3 4 4 5 5 6 6 6 6 6 6 5 6 5 4
6 6 5 5 6 6 6 9 7 6 7 7 8 7 6 6 4 7 4 3 2 2 2 2 1 1 2 2 3 3 4 5 5 5 6 6 6 5 5 4 4 4 4
6 6 6 6 5 7 7 6 6 3 5 5 9 7 5 4 4 4 4 4 3 2 2 1 2 4 3 1 3 4 3 3 4 4 4 4 4 3 1 2 3 4 5
6 6 5 7 6 6 4 6 6 5 6 6 7 6 2 2 3 1 2 2 4 2 2 0 1 1 1 4 1 1 1 2 2 2 2 2 2 1 2 4 5 6 7
8 7 6 8 8 7 6 6 6 7 6 8 4 4 5 8 4 3 2 1 0 1 1 1 0 1 1 1 2 2 1 1 0 1 1 2 2 3 4 5 6 6 5
10 8 7 5 8 7 9 9 8 7 10 7 5 6 2 1 2 4 5 3 2 3 1 1 1 2 1 1 1 1 1 2 2 1 1 2 3 4 4 4 5 4 3
12 10 9 8 7 5 4 7 6 7 6 9 6 7 4 6 3 3 5 4 4 5 4 4 3 4 4 2 3 5 2 2 3 2 2 3 4 5 5 5 4 3 1
12 12 10 7 6 6 7 5 5 6 7 5 7 6 4 3 2 7 2 5 4 5 6 6 5 4 5 5 5 6 5 4 5 5 5 6 6 7 7 7 6 6 6
13 13 12 10 8 7 7 8 7 6 7 6 6 5 6 4 4 4 3 3 3 1 3 6 7 7 7 8 9 11 11 10 10 9 10 10 10 11 11 11 11 10 9
14 14 14 12 11 10 8 8 8 7 7 7 7 8 6 5 4 3 4 4 3 2 4 6 8 9 9 10 10 13 15 16 15 15 16 15 15 15 15 15 14 14 13
15 13 14 15 14 12 11 9 9 9 8 8 8 8 8 8 7 6 6 6 5 5 5 7 5 7 9 10 12 16 16 20 20 20 20 21 22 21 20 20 20 19 18
16 15 16 17 16 15 14 12 11 10 9 9 9 10 10 9 7 7 8 8 7 6 4 5 3 3 5 8 11 14 16 20 23 23 25 26 26 26 26 26 25 23 22
19 17 18 19 18 17 17 15 13 12 11 11 12 10 11 10 8 9 9 8 8 10 7 8 7 8 10 12 13 16 15 19 24 26 27 31 31 31 31 31 30 29 27
21 20 19 18 19 18 18 17 16 14 13 13 13 13 13 11 11 10 10 11 11 12 14 16 14 13 14 15 16 16 18 19 21 26 28 28 33 36 36 36 35 34 32
24 23 21 19 21 21 19 20 19 18 17 16 15 15 15 14 15 14 13 14 14 14 17 18 20 20 19 19 20 19 20 23 25 27 31 33 32 32 33 38 40 39 38
25 24 23 22 22 22 21 21 21 20 19 18 18 18 18 17 18 17 16 16 17 17 18 20 21 20 22 21 22 23 23 24 25 26 29 32 36 37 39 38 39 42 43
27 27 26 25 24 23 23 22 21 21 20 20 20 20 20 20 20 19 18 18 18 18 19 21 23 22 22 21 20 22 24 22 24 24 27 27 31 34 38 38 40 43 46
29 28 27 28 25 24 25 25 24 23 22 22 22 21 22 23 24 23 20 20 19 19 20 21 22 22 22 21 20 26 30 30 29 26 29 27 28 28 29 32 34 38 46
32 29 29 29 28 27 28 29 27 24 25 24 24 24 23 23 26 29 30 29 26 22 23 23 25 25 22 24 26 28 32 32 29 27 28 32 30 35 34 34 35 37 38
31 30 29 28 30 30 30 32 33 30 26 26 25 25 25 25 25 24 24 25 26 28 32 33 30 29 29 26 27 28 31 31 32 32 26 36 32 35 34 34 35 35 38
31 29 29 29 30 31 32 35 35 32 30 29 27 27 27 27 26 24 23 23 23 23 24 25 26 26 25 24 23 26 29 31 32 30 24 27 30 32 33 33 33 34 36
30 30 29 29 30 31 32 35 35 29 30 32 32 31 31 31 31 30 30 29 29 29 28 31 34 36 34 31 29 27 27 26 27 32 26 28 32 32 33 36 35 36 36
31 30 30 30 31 31 31 35 36 29 29 31 30 32 36 36 33 32 31 30 30 28 26 27 27 26 22 22 22 24 25 22 25 25 22 26 36 35 25 33 31 28 27

GFSMA_925_spd_057.txt.gz
Wind_Speed
5 3 2 3 7 5 7 8 7 7 3 7 5 8 7 9 5 14 11 9 7 7 7 7 6 6 5 4 4 3 2 2 2 3 3 4 5 5 6 6 6 7 8
6 5 2 3 1 4 7 5 6 6 5 7 5 6 10 9 7 14 12 9 6 5 5 5 5 4 4 3 1 1 1 1 2 3 4 4 5 6 6 7 7 8 9
3 4 5 4 5 2 5 6 4 4 6 10 8 4 10 9 8 8 8 7 4 5 4 4 4 3 3 2 1 2 2 2 3 3 4 5 6 7 7 7 7 7 8
3 2 6 5 7 5 9 8 5 4 4 8 8 14 10 10 6 6 9 4 3 6 5 3 2 3 3 4 3 4 4 5 5 6 7 7 7 7 6 6 6 5 5
5 4 0 5 5 3 4 5 7 2 5 4 13 9 8 6 6 8 4 4 4 8 9 4 3 3 1 4 4 3 3 5 5 5 6 5 6 5 4 3 3 4 5
6 5 5 3 3 2 8 5 3 3 2 4 7 10 5 5 3 6 5 6 5 4 11 1 5 4 3 1 3 4 5 4 4 4 4 3 3 2 0 2 3 4 5
7 6 9 5 5 7 3 8 5 1 2 4 6 9 4 3 5 3 3 7 4 4 1 2 4 6 4 1 1 2 4 3 3 2 2 1 1 1 2 3 4 5 5
9 8 7 7 6 3 5 5 5 8 4 4 5 10 4 7 7 3 3 3 3 1 5 4 1 2 1 4 3 4 3 3 2 2 2 2 2 3 4 4 5 4 3
10 8 7 6 7 4 9 7 5 10 3 7 8 5 3 1 8 6 5 4 3 5 2 3 3 3 3 2 3 3 0 2 3 3 3 3 3 4 5 5 4 4 2
11 10 9 7 9 6 7 8 9 11 8 9 5 6 3 5 3 3 6 4 4 4 5 5 7 6 5 5 5 6 4 3 4 4 4 4 5 6 7 7 6 6 5
13 12 11 9 8 7 6 5 4 8 7 10 8 7 3 3 4 4 5 10 6 3 4 4 4 4 6 6 6 8 8 6 6 7 7 8 9 10 10 10 10 10 9
14 13 12 11 10 8 8 8 6 6 8 6 6 5 11 9 9 6 1 5 4 3 2 4 5 6 6 8 8 10 12 12 12 12 12 12 13 14 14 14 14 14 14
17 20 15 12 11 10 9 8 8 5 7 7 7 6 5 4 4 5 5 3 2 1 3 4 6 7 8 8 9 14 14 16 17 18 18 18 18 18 19 19 19 19 19
15 17 16 14 12 12 11 10 9 9 11 9 9 10 7 8 7 6 6 7 5 7 8 6 6 7 8 9 10 11 15 19 21 22 23 24 24 25 24 24 24 24 24
14 14 14 14 15 14 13 12 11 11 6 9 11 10 10 10 7 8 7 7 7 6 4 7 3 4 6 7 10 13 15 20 24 26 28 29 30 30 31 30 30 30 30
20 11 18 17 17 17 16 16 14 13 11 12 11 13 11 12 10 9 9 8 8 9 7 11 6 6 8 11 12 12 15 19 24 27 30 31 33 35 37 37 37 37 36
18 21 17 17 18 19 18 18 18 12 15 14 13 11 12 12 11 10 10 10 11 11 12 13 12 12 10 14 16 18 18 20 23 27 30 30 30 31 34 39 43 44 43
24 22 21 20 19 20 20 20 20 18 17 16 16 16 14 14 15 16 13 12 13 12 14 14 17 19 20 20 21 21 20 19 21 24 28 29 30 33 35 37 39 42 47
27 25 25 23 21 22 22 22 22 21 20 20 19 18 18 17 17 17 16 17 16 16 15 17 19 18 20 21 21 22 23 22 21 23 26 27 27 29 31 32 35 36 39
30 28 27 26 25 24 24 24 23 23 22 22 21 20 20 20 20 19 19 19 18 18 19 20 21 21 21 19 19 20 20 19 24 27 26 27 29 31 32 34 35 35 35
33 31 29 28 27 26 26 27 25 24 23 23 22 22 23 23 23 23 21 21 20 19 20 21 20 20 20 19 19 23 27 25 24 30 31 27 28 27 28 31 32 33 34
33 32 30 29 29 29 28 29 29 26 25 25 24 23 24 22 26 28 29 30 28 24 19 21 23 22 23 24 23 23 27 29 23 22 27 28 28 29 30 30 30 34 34
34 33 32 30 30 32 30 30 32 30 25 26 25 24 23 23 26 26 25 27 29 30 32 34 29 28 29 27 26 25 25 26 29 29 28 30 26 26 28 30 32 32 34
35 33 32 32 31 32 34 34 32 34 30 27 24 25 25 25 22 19 22 23 23 23 24 25 29 30 26 25 23 25 29 30 29 27 23 22 27 29 28 28 29 32 31
33 33 33 32 33 32 33 36 34 29 29 30 29 30 27 25 26 28 28 27 27 26 26 29 31 33 34 34 32 33 29 25 24 25 23 27 25 29 28 34 25 28 28
35 34 32 32 32 32 34 34 36 31 28 28 29 30 33 35 32 31 31 29 29 28 26 27 26 25 24 24 24 26 25 22 23 20 16 20 27 26 21 28 26 28 26

GFSMA_925_spd_060.txt.gz
Wind_Speed
6 6 7 8 4 8 9 9 6 16 7 10 10 12 12 19 18 17 15 11 11 10 9 8 7 6 5 4 4 3 3 1 1 2 3 5 6 8 9 9 9 10 11
4 6 2 4 7 6 10 8 7 11 12 11 9 12 10 15 16 12 14 10 8 8 7 6 6 5 4 3 2 1 1 2 3 4 4 5 7 8 8 9 9 9 9
4 2 4 2 3 9 6 5 1 7 10 10 12 10 12 11 12 12 8 7 7 7 6 5 4 5 5 4 2 1 2 3 3 4 5 6 7 7 8 8 7 7 7
4 2 0 4 7 7 3 6 1 5 11 16 13 10 10 10 9 8 10 8 6 6 5 3 4 3 4 4 3 4 5 5 6 6 7 7 7 7 6 6 6 5 5
6 9 6 6 6 1 9 3 2 2 8 9 12 16 8 12 11 8 8 7 10 7 5 3 4 3 2 3 4 3 4 4 5 5 5 5 5 5 4 3 3 3 4
4 1 7 5 4 4 1 9 6 4 3 10 14 13 8 7 10 8 8 12 7 10 8 2 4 4 2 2 3 4 5 5 4 5 5 4 3 2 1 0 2 3 4
6 4 4 6 2 3 8 4 5 2 5 8 5 11 4 4 5 11 11 10 4 14 7 3 5 3 4 2 1 2 4 4 4 4 3 2 2 1 1 2 2 3 2
6 6 7 5 6 7 7 2 4 5 4 1 4 11 1 6 12 5 9 6 5 8 11 6 2 5 5 6 2 3 2 3 3 3 3 3 3 3 3 3 3 3 3
6 8 6 6 5 5 9 7 6 4 7 4 1 2 2 0 3 6 3 7 3 2 10 5 7 5 4 6 5 2 2 2 3 4 4 4 4 5 5 6 7 6 6
12 9 8 5 5 4 5 5 5 4 4 3 4 4 2 2 1 2 9 14 5 7 6 7 12 11 8 7 9 6 6 5 5 5 6 6 7 8 9 10 11 10 10
14 14 12 10 8 7 7 8 6 3 6 13 5 8 5 7 7 6 2 7 8 10 10 2 8 14 10 4 13 11 8 7 7 8 9 10 10 12 13 14 15 15 15
18 14 14 12 10 8 8 8 6 7 4 2 2 5 8 4 3 8 5 4 14 10 8 8 8 6 10 9 8 12 13 13 13 13 14 14 15 16 17 19 20 20 20
23 22 18 16 14 12 8 9 9 5 6 4 6 6 7 4 6 7 9 7 1 11 5 9 11 9 9 13 12 14 17 17 16 17 19 20 21 21 22 23 24 24 24
24 26 25 18 14 13 11 11 9 10 8 8 7 9 9 7 3 4 8 10 5 7 7 5 9 11 11 12 13 13 14 18 20 23 24 24 26 27 28 29 30 30 29
10 25 26 21 16 14 13 13 10 13 9 11 11 10 12 7 9 6 8 6 7 3 3 7 5 8 7 9 13 15 17 20 21 23 25 27 29 31 33 35 36 36 35
20 20 23 21 20 17 16 15 14 13 12 12 12 14 12 12 13 8 9 9 9 10 3 17 14 9 8 8 10 13 16 20 22 26 27 28 30 31 34 36 38 40 41
19 23 16 19 20 20 18 18 18 15 18 15 16 11 18 12 16 12 8 12 12 11 12 16 15 16 18 18 18 21 23 25 22 22 26 28 30 33 35 36 37 40 40
30 21 23 18 20 20 21 21 21 19 16 19 17 16 13 13 13 15 17 14 11 10 10 15 19 22 21 19 21 22 24 26 25 26 26 28 30 32 34 34 34 38 37
28 26 22 25 22 22 23 23 24 23 21 19 20 20 20 19 19 16 16 15 15 16 19 20 21 18 19 24 28 28 27 27 26 25 27 27 26 32 33 36 39 39 39
36 31 29 26 27 26 26 25 25 24 23 23 21 24 21 21 22 21 21 22 20 20 20 20 21 23 23 24 22 17 19 25 25 20 26 34 33 28 26 30 32 30 30
34 34 32 30 29 28 28 28 28 26 26 25 25 24 24 24 23 23 22 20 19 21 19 19 20 19 16 20 24 24 22 23 30 28 29 23 28 31 29 27 29 31 29
37 35 34 32 31 30 31 30 30 28 26 27 26 27 24 24 28 29 28 26 25 26 26 20 19 19 22 23 22 24 26 23 15 20 21 33 27 27 27 27 30 33 34
36 37 35 34 34 34 33 32 33 33 30 28 28 27 26 25 28 28 29 30 32 32 33 34 30 29 26 31 27 26 23 23 23 29 27 29 25 24 28 25 22 38 29
37 36 36 36 35 35 36 36 34 37 33 30 30 30 29 29 28 23 28 30 29 30 29 30 32 31 28 26 28 29 29 28 28 30 23 20 25 27 24 32 31 20 27
35 36 36 36 37 35 35 38 38 34 37 35 35 32 27 30 32 31 31 30 27 24 20 20 23 27 30 29 28 31 28 22 20 22 23 20 16 23 24 26 18 26 31
37 36 36 37 36 35 36 37 39 38 30 30 31 34 35 39 36 26 28 30 28 29 26 25 25 26 23 23 27 26 28 21 18 13 9 16 17 16 10 10 29 26 26

GFSMA_925_spd_063.txt.gz
Wind_Speed
7 13 11 6 7 8 7 10 10 8 9 10 20 21 18 15 16 14 12 9 10 8 8 7 6 6 5 4 3 3 2 2 2 4 5 6 7 7 7 8 7 8 8
7 9 9 7 7 9 8 10 9 8 10 8 13 21 19 16 13 12 12 10 8 7 6 6 6 5 5 4 2 1 1 2 3 4 4 5 6 7 7 7 7 7 6
9 7 10 10 11 8 6 5 3 11 10 15 15 19 17 14 8 10 11 10 8 7 5 5 5 5 4 3 2 2 2 3 4 4 5 7 7 6 6 6 6 5 4
7 8 6 10 7 7 5 5 8 13 12 14 15 16 14 8 6 8 8 8 7 7 4 5 4 4 4 4 4 4 4 5 5 5 6 6 6 5 5 4 3 2 2
7 9 12 10 6 6 5 5 4 10 15 15 14 17 15 11 10 9 8 8 5 4 4 4 5 3 2 3 3 4 4 5 5 6 6 6 6 5 4 3 1 0 1
7 8 11 10 7 10 3 7 3 6 11 15 12 12 12 13 12 11 11 11 9 8 6 5 5 2 1 2 2 4 5 5 5 5 6 5 5 4 3 2 1 1 0
9 7 9 8 5 7 9 5 6 5 7 20 10 7 8 9 11 13 12 13 13 11 10 6 4 2 3 2 1 2 4 5 5 5 5 4 4 4 4 3 3 3 2
10 9 10 8 5 9 6 5 3 4 5 7 5 4 2 2 6 7 16 14 12 10 11 8 4 5 3 4 3 2 2 3 4 4 4 5 5 5 6 6 5 5 4
8 9 8 7 7 8 7 4 5 4 4 1 5 3 2 2 1 5 15 10 6 11 10 10 6 5 6 4 4 3 2 4 4 5 5 7 8 8 8 8 8 8 8
11 10 10 10 10 7 11 7 4 2 3 2 2 4 3 3 2 1 6 8 8 7 11 12 10 10 7 7 7 7 6 5 6 7 8 9 10 11 12 12 12 12 12
14 12 11 11 9 8 11 9 5 8 3 3 5 4 7 7 4 1 1 7 13 12 13 10 12 13 11 8 7 9 10 10 10 10 12 13 14 15 15 15 16 17 17
19 17 15 11 10 9 9 9 8 7 6 4 4 2 4 2 1 6 4 6 10 10 15 12 10 10 9 10 10 9 11 14 15 15 16 17 18 19 19 20 20 21 21
24 22 20 17 14 13 10 10 10 7 9 9 5 2 2 4 4 3 2 4 1 6 9 14 13 12 10 11 13 14 15 17 19 20 21 22 22 24 25 26 26 26 26
29 28 25 21 17 16 13 11 9 11 9 10 9 6 6 2 5 6 5 5 3 5 8 5 11 17 15 13 13 15 16 17 20 22 25 25 26 28 30 31 32 33 33
27 28 29 25 20 19 15 14 12 10 10 9 9 10 9 7 5 7 6 2 2 1 3 6 6 9 18 16 18 17 17 18 20 24 27 28 30 31 33 33 33 36 37
20 20 33 29 24 20 18 17 14 12 13 11 13 10 9 14 13 7 8 6 6 6 2 7 14 11 8 7 9 13 19 24 26 26 28 27 28 30 35 38 37 37 37
19 16 31 30 26 24 20 21 18 15 18 15 13 13 14 14 12 14 11 7 10 11 9 16 16 16 20 21 20 18 22 26 28 30 30 32 33 33 34 36 38 40 39
26 19 26 29 28 27 24 22 22 20 19 19 19 20 17 15 18 14 15 14 13 9 10 15 19 19 19 16 20 24 28 30 30 27 27 31 33 33 36 36 32 28 31
32 31 26 31 30 28 25 25 24 23 22 20 21 21 20 19 17 17 16 15 14 13 11 11 16 17 21 23 25 26 15 21 20 18 17 24 35 30 27 29 33 27 28
37 36 33 29 30 29 28 26 26 26 25 25 21 23 21 21 22 21 21 21 20 21 22 23 23 22 22 23 18 19 24 25 27 31 31 25 23 24 26 23 24 26 30
42 38 36 33 30 31 30 29 28 28 29 28 26 27 23 25 25 24 24 23 22 22 22 21 23 19 17 20 23 27 29 32 30 28 21 23 28 29 26 24 25 25 24
38 42 41 38 35 32 33 33 32 32 30 31 31 29 29 26 27 27 26 25 25 23 23 20 23 24 28 31 34 33 29 23 9 20 23 30 30 27 24 25 20 27 19
38 37 40 38 38 38 35 35 33 33 34 33 32 32 30 30 30 28 26 26 29 31 32 32 29 31 30 31 29 30 31 29 22 27 25 26 25 23 23 24 20 20 26
38 38 36 36 36 38 38 37 36 35 36 35 35 34 34 33 30 27 27 27 30 33 31 32 34 34 34 31 27 29 30 31 30 32 22 16 24 21 26 16 12 27 22
36 38 36 37 37 37 37 40 38 39 41 39 39 37 37 35 33 31 30 31 30 26 22 23 22 22 24 24 24 27 30 23 21 21 26 19 10 23 16 9 14 27 24
37 33 36 36 37 38 37 38 41 42 40 37 39 41 39 37 34 31 34 35 35 34 32 31 28 28 26 25 21 24 30 25 23 13 9 9 16 9 8 4 22 25 24

GFSMA_925_spd_066.txt.gz
Wind_Speed
13 11 12 10 10 8 8 12 10 9 10 10 12 16 16 12 13 11 11 8 8 8 7 6 5 4 4 3 2 1 0 2 3 4 4 5 6 7 7 7 6 6 7
13 11 12 10 11 9 8 6 6 6 8 12 17 18 16 13 13 10 10 8 7 6 5 5 5 5 3 3 2 2 2 3 4 4 5 6 8 8 8 7 8 7 6
11 10 12 13 10 9 8 7 6 7 5 16 20 15 14 13 13 10 9 8 7 5 4 4 4 4 3 4 3 3 4 5 6 7 8 9 9 8 8 8 7 6 5
12 11 13 12 10 7 9 7 8 12 10 17 15 14 11 11 9 7 8 6 6 5 4 3 3 3 4 5 6 6 6 7 7 7 8 8 8 8 8 7 6 4 3
9 12 12 13 9 8 5 9 9 14 13 13 12 12 12 10 9 7 7 7 5 5 4 4 3 2 3 5 6 6 6 6 6 7 8 8 8 7 6 5 4 3 2
10 13 14 9 8 9 7 11 11 13 15 14 14 13 11 12 11 9 8 8 8 6 5 6 6 4 3 3 4 5 6 7 7 7 7 7 7 6 5 5 4 2 2
13 13 13 9 8 8 10 10 10 8 15 13 10 9 9 11 14 15 12 13 12 10 9 8 8 7 6 5 5 5 5 5 6 7 7 7 7 6 6 5 5 4 4
14 14 14 12 8 11 8 9 8 8 8 14 6 3 2 4 11 18 17 17 16 13 13 11 9 9 6 4 5 6 5 5 6 7 7 7 7 7 7 7 7 7 7
13 13 14 12 8 12 11 8 7 9 7 7 6 2 2 3 3 3 8 18 14 17 14 11 9 8 6 5 5 6 7 6 7 8 9 9 9 9 10 10 10 11 11
13 15 14 13 12 12 11 8 7 7 5 4 3 3 3 1 2 3 3 10 12 12 12 13 11 9 7 7 7 8 8 8 9 10 11 11 11 12 13 14 14 15 15
17 17 15 14 13 11 10 8 9 7 4 4 3 3 3 2 2 2 2 4 10 12 12 14 12 14 13 11 9 9 9 11 13 14 15 15 15 16 17 17 18 18 19
21 18 17 16 14 13 14 11 9 7 7 4 2 2 2 3 2 3 2 6 7 8 13 16 16 15 14 14 11 12 12 14 16 19 21 21 21 21 21 21 23 23 23
26 22 20 18 16 17 15 14 12 10 10 8 4 3 2 0 1 2 1 1 2 5 4 11 17 15 14 14 14 16 17 18 21 23 25 26 26 27 27 26 27 28 29
28 25 25 22 17 16 16 14 14 13 11 11 9 7 6 3 1 6 3 1 2 3 3 4 4 16 19 19 19 20 23 23 24 26 28 29 29 30 31 30 30 32 33
30 28 27 26 22 19 18 16 16 14 14 11 11 11 10 7 4 4 7 4 0 1 2 2 3 10 12 12 19 20 21 21 24 26 28 30 31 32 32 33 35 37 38
31 30 29 28 25 22 20 19 17 14 14 13 12 11 12 12 10 7 5 5 6 3 2 3 13 13 10 12 13 18 21 22 25 29 32 33 35 36 36 37 38 39 39
30 31 28 32 30 26 23 21 18 15 15 15 13 13 14 12 11 9 9 8 7 6 5 14 14 15 16 19 18 17 22 24 23 20 23 25 25 26 29 28 25 25 23
25 32 26 28 34 30 25 25 22 20 18 17 15 14 14 11 12 14 12 11 12 11 10 14 17 17 18 18 21 24 22 13 21 20 24 29 29 25 24 27 25 23 24
29 25 27 25 32 33 29 28 26 24 22 21 19 19 20 18 19 16 16 14 13 13 12 12 17 21 24 24 23 22 14 24 30 30 27 24 21 25 26 22 20 23 24
40 31 28 29 32 35 33 31 29 27 25 25 23 22 22 23 21 22 20 19 18 18 19 20 22 24 23 22 19 19 28 33 34 27 25 19 26 24 20 22 20 19 21
42 41 36 33 33 36 36 36 33 29 28 27 27 25 26 24 24 22 22 22 21 22 22 23 23 24 25 22 23 30 31 29 30 27 19 28 29 26 23 20 18 18 19
46 45 42 40 38 37 38 37 35 32 30 30 30 29 29 28 28 25 25 25 24 24 25 25 26 23 26 30 31 29 27 26 11 22 21 33 27 23 20 19 13 18 23
41 40 43 42 41 42 39 38 36 35 33 33 33 33 32 31 30 29 28 26 27 28 29 29 29 31 32 33 31 30 30 24 22 31 26 24 23 20 17 11 8 19 25
39 39 38 41 40 42 42 41 38 36 36 36 37 37 36 35 32 30 29 29 30 30 30 30 33 35 34 31 31 28 27 25 26 31 19 9 19 14 14 4 10 22 22
36 37 38 38 40 41 41 43 41 39 40 41 39 39 38 38 36 32 31 31 31 31 29 29 28 25 25 24 24 26 28 22 13 25 26 14 6 12 6 2 9 20 21
37 35 37 38 38 40 42 42 41 41 38 38 37 42 42 42 39 36 35 34 35 38 35 33 31 30 29 28 25 24 24 23 19 11 7 5 8 4 4 3 11 18 24

GFSMA_925_spd_069.txt.gz
Wind_Speed
12 11 11 9 8 6 7 8 8 7 5 6 9 11 8 7 8 8 9 6 7 5 5 4 3 2 2 1 1 2 3 4 5 6 7 8 9 9 10 9 9 10 9
12 12 11 9 7 7 6 4 2 3 4 4 12 11 9 6 8 7 7 7 6 5 4 4 3 3 2 2 2 3 5 5 6 7 8 9 9 9 9 9 9 8 7
13 10 11 9 8 6 6 5 3 5 3 6 12 11 10 8 8 7 6 6 5 4 3 4 3 3 3 4 4 5 6 8 8 9 9 10 10 10 9 8 8 6 6
11 12 11 10 7 6 5 4 6 7 5 9 12 10 9 7 7 7 5 5 4 3 3 3 3 3 4 5 7 7 8 8 8 9 9 9 9 9 8 7 6 4 4
13 12 12 9 7 6 6 5 8 10 9 9 10 10 8 7 6 7 6 5 4 5 4 4 4 4 5 6 7 8 8 8 8 9 9 9 9 8 7 6 5 3 2
10 14 12 11 8 8 7 7 8 11 8 10 7 7 9 8 8 9 7 7 6 6 6 6 6 6 6 6 6 8 9 9 9 9 9 8 8 8 7 6 5 3 2
9 11 14 10 9 10 9 9 6 7 7 7 7 9 8 10 13 14 12 10 10 9 10 9 8 8 7 8 8 8 9 9 8 8 8 8 8 8 7 7 7 6 5
12 12 13 11 10 11 12 11 8 8 8 11 5 2 2 4 11 15 15 15 14 13 13 12 11 9 9 8 7 8 8 9 9 8 8 9 9 9 9 8 9 10 9
13 13 12 11 7 10 10 9 6 7 7 13 8 2 1 2 3 3 10 17 17 15 15 14 13 10 10 8 8 8 8 8 10 10 10 11 12 12 12 12 12 12 13
13 13 12 12 9 12 10 8 7 7 6 8 5 4 2 1 1 3 3 6 9 14 14 13 13 11 11 10 9 9 9 10 12 14 15 15 15 15 16 16 17 17 17
14 14 14 14 12 11 12 10 9 8 6 6 3 1 1 1 2 1 2 3 7 10 9 10 12 12 12 13 13 11 12 14 16 18 19 21 22 21 20 20 21 21 21
18 16 15 15 15 14 12 12 11 9 8 6 3 2 2 1 1 1 1 2 4 5 7 11 13 14 13 13 13 14 16 18 21 24 25 26 27 27 25 25 25 26 27
21 20 19 18 17 15 14 14 13 11 10 9 6 3 2 1 2 1 1 1 2 3 4 7 9 13 15 15 17 18 20 23 25 26 28 30 31 32 30 28 28 28 30
25 23 21 20 17 15 16 14 14 13 11 12 10 7 5 3 1 3 1 1 3 3 2 4 7 10 10 11 16 19 21 23 25 26 28 29 31 33 35 33 32 34 34
28 26 24 23 21 17 16 16 15 15 14 13 14 11 11 8 6 3 4 1 1 1 2 2 2 8 10 12 13 13 18 21 22 25 26 25 24 25 24 25 26 26 24
29 28 25 23 22 21 18 17 17 15 15 15 14 14 13 12 10 7 4 2 2 2 1 3 10 13 12 13 16 17 18 21 19 19 23 25 28 26 22 21 20 22 19
27 28 28 25 24 24 23 20 19 17 17 15 15 14 16 14 14 10 6 6 6 4 4 7 10 14 15 16 19 20 21 20 16 24 31 26 23 20 21 21 19 18 17
25 24 25 26 26 29 28 25 23 21 20 18 16 16 16 13 15 13 12 10 8 9 8 12 16 15 19 21 23 24 21 16 23 31 25 24 17 22 20 18 18 17 17
32 28 24 27 30 29 31 30 27 24 23 21 19 18 19 17 17 17 14 14 14 12 12 13 16 21 24 23 23 21 20 25 28 24 26 16 22 22 17 17 16 16 17
36 34 30 26 30 31 28 31 30 27 26 25 24 23 22 22 22 21 19 19 18 17 17 18 20 23 23 22 22 22 28 29 28 28 23 21 23 17 15 15 15 15 15
41 38 35 33 29 29 31 31 33 32 30 29 29 28 27 25 25 23 23 21 21 22 21 21 24 25 26 25 23 24 26 26 30 20 19 29 24 17 14 12 11 11 20
45 43 41 38 37 35 32 32 34 35 34 33 33 31 29 28 27 28 26 24 25 25 26 25 25 24 27 28 28 27 27 22 12 16 23 30 20 17 13 11 5 13 21
41 42 42 43 43 41 39 36 35 36 38 39 38 35 33 32 30 29 29 29 30 28 28 29 30 30 30 31 29 30 30 24 24 27 22 22 18 15 9 4 4 12 21
38 41 40 40 40 43 45 43 40 38 41 42 41 39 37 36 35 32 29 29 30 29 30 30 31 33 32 30 28 27 26 24 27 30 18 8 17 15 8 5 6 12 19
35 37 38 39 39 39 40 44 43 41 43 44 44 43 41 39 38 36 32 32 31 31 29 29 28 28 29 29 27 26 26 23 14 25 22 12 10 8 8 9 9 12 17
35 33 35 38 40 40 39 40 39 42 38 38 40 41 44 44 41 37 35 33 33 36 32 31 30 30 30 30 27 26 27 24 18 11 10 5 6 5 4 9 11 12 14

GFSMA_925_spd_072.txt.gz
Wind_Speed
8 7 8 7 7 6 3 5 4 1 2 3 2 4 3 2 4 5 5 3 3 2 2 1 0 1 1 2 2 3 4 5 7 7 7 9 9 10 9 9 8 8 8
6 7 6 5 3 3 5 3 1 2 3 3 4 5 3 1 2 3 3 2 2 2 2 2 3 2 3 3 4 4 6 7 8 8 9 9 8 8 7 8 7 7 6
8 9 7 4 3 3 3 2 1 1 3 3 5 4 2 1 1 1 2 1 2 2 2 3 4 4 4 5 6 6 7 9 10 9 9 9 8 8 7 7 6 5 5
9 8 6 6 4 3 2 1 2 1 3 2 2 1 2 2 3 3 3 3 3 3 3 3 4 5 6 6 7 8 8 9 9 9 9 9 8 7 7 6 5 4 4
10 7 8 7 5 4 2 2 1 3 2 1 2 3 2 3 4 5 6 5 5 4 5 5 6 6 7 6 7 8 8 9 9 9 8 8 8 7 6 5 4 3 3
10 9 9 7 6 5 4 3 1 3 2 3 3 4 5 6 7 9 9 9 7 6 6 7 7 7 8 9 8 8 8 8 8 8 8 8 8 8 7 6 5 5 5
9 10 11 9 8 7 6 3 1 6 3 2 3 4 8 10 11 12 13 12 11 10 10 10 10 9 8 8 8 8 9 9 9 9 9 9 10 10 9 9 8 9 8
11 7 11 9 7 8 8 7 4 4 5 4 1 2 3 4 6 10 12 13 14 13 13 12 12 10 9 8 7 8 8 9 10 10 11 11 11 11 11 11 11 12 12
10 9 10 9 8 8 7 7 5 4 5 8 5 0 1 2 5 4 5 8 11 13 13 12 12 10 10 10 9 9 9 10 11 13 14 15 15 15 15 14 15 15 16
11 10 11 12 11 10 9 6 6 5 5 5 5 4 3 3 1 4 4 4 6 8 10 10 9 10 10 10 11 11 12 13 15 17 19 20 21 21 20 20 18 20 19
12 11 12 10 10 9 10 8 7 6 4 5 3 1 2 3 1 1 2 6 5 6 9 10 10 11 10 11 12 12 13 16 18 21 23 25 26 25 25 24 22 23 24
15 13 12 11 11 10 10 10 10 8 6 5 3 2 3 2 2 1 1 2 4 4 7 8 8 9 10 12 13 15 16 19 22 25 26 27 27 27 26 25 25 25 24
18 17 15 14 13 12 11 9 10 9 9 7 5 3 3 4 3 3 2 2 2 4 4 7 9 8 9 11 12 13 16 18 21 22 22 23 22 21 21 20 17 17 18
19 16 16 16 15 12 11 11 12 12 11 10 9 6 4 3 3 4 4 3 2 3 3 5 4 10 11 13 14 15 16 17 19 20 18 21 23 23 22 19 18 16 16
20 20 17 17 16 15 12 12 12 12 12 11 11 10 9 7 6 5 5 5 2 2 2 4 3 10 12 13 15 17 18 21 18 14 23 26 22 19 19 18 16 15 12
17 21 20 20 19 18 16 13 13 13 12 12 12 12 12 10 9 8 7 5 3 2 2 4 11 14 14 13 16 20 22 20 15 20 27 24 21 17 19 16 14 13 12
17 18 21 20 20 18 18 16 14 14 14 13 12 13 12 12 11 9 8 7 8 6 5 11 14 17 17 19 22 23 22 20 20 25 23 23 16 19 18 15 14 13 11
24 19 18 21 21 21 22 21 20 18 17 16 15 14 14 12 11 10 10 11 11 9 9 12 17 19 21 22 23 24 23 20 24 22 25 16 21 19 15 14 13 12 13
31 27 23 19 20 20 22 22 24 24 21 19 18 17 15 14 14 12 12 13 12 13 12 13 17 20 22 24 26 26 24 24 25 24 22 19 24 16 14 13 14 14 13
36 34 31 28 24 21 22 23 23 25 27 23 21 21 19 18 17 16 16 16 15 16 16 17 19 22 23 24 24 25 27 28 30 27 23 29 25 16 15 14 13 10 17
40 39 37 34 31 28 25 24 25 24 28 28 25 23 23 22 21 20 20 20 18 19 18 20 22 20 20 21 19 21 24 28 30 13 23 31 25 16 16 14 11 11 18
40 40 40 39 38 36 34 29 26 26 27 30 29 27 25 24 24 23 23 23 23 23 23 22 20 18 22 23 24 26 23 17 8 18 21 31 24 14 14 13 11 12 18
40 41 41 40 41 41 40 38 35 31 30 30 31 31 30 29 27 26 24 24 26 26 27 27 27 25 26 27 27 27 21 18 13 23 19 16 22 15 14 12 10 12 18
37 39 39 40 40 43 44 43 41 39 37 36 35 34 34 33 32 29 27 26 27 27 27 28 30 31 31 29 27 24 24 23 23 24 18 7 20 16 13 12 12 13 16
34 37 38 38 39 41 40 42 42 42 41 42 41 40 39 38 37 34 31 31 30 31 27 27 28 28 28 27 25 25 22 17 14 12 16 11 13 9 12 15 13 15 17
33 32 35 38 39 39 40 39 38 40 33 35 38 42 43 42 41 38 35 33 29 35 30 29 29 29 28 27 25 24 22 17 15 8 9 6 13 10 5 7 11 13 14

GFSMA_925_spd_075.txt.gz
Wind_Speed
9 8 8 7 6 5 4 4 4 4 6 5 4 4 4 4 4 3 3 1 2 3 1 3 4 4 4 5 5 6 6 7 8 8 10 10 9 8 7 8 7 5 6
7 8 7 5 4 4 5 3 4 5 6 5 5 5 4 4 3 2 2 3 2 1 3 3 5 3 5 5 6 6 7 8 9 9 9 9 8 8 6 7 5 4 5
5 4 4 3 2 2 2 2 3 4 5 7 6 4 3 3 2 2 2 2 3 5 3 3 4 4 5 6 7 7 8 8 8 8 8 8 8 8 7 6 4 3 3
4 3 2 3 3 3 2 2 2 3 5 6 5 4 3 2 2 2 2 3 4 3 6 5 4 5 5 6 7 7 8 8 9 9 9 8 8 8 7 6 5 4 2
5 4 3 4 4 3 2 3 4 4 5 5 4 3 2 2 2 2 3 4 4 4 5 7 7 7 7 7 7 7 7 8 9 9 9 8 8 8 8 7 6 6 4
5 4 4 5 3 2 1 2 2 4 3 2 3 3 3 4 4 5 5 5 6 6 6 7 7 7 8 8 8 8 8 9 8 8 9 9 9 9 9 9 9 8 8
4 5 6 6 5 4 2 2 3 3 2 2 2 4 5 6 6 7 6 7 7 7 7 8 8 8 8 9 8 9 9 9 9 10 10 10 10 11 11 11 12 12 12
6 5 9 7 6 5 5 4 2 2 2 3 1 2 3 1 3 2 4 5 6 7 8 8 9 10 9 8 9 10 10 10 11 12 12 13 13 13 14 14 15 15 15
5 5 6 7 6 5 4 6 3 3 3 4 2 3 2 3 6 2 2 3 4 5 7 8 9 8 9 9 10 10 11 12 13 15 17 17 18 19 19 19 18 18 18
7 7 7 8 6 5 5 5 5 2 3 3 2 2 2 2 3 4 3 2 2 4 5 6 6 7 9 9 10 11 12 14 16 18 20 22 22 22 21 21 22 22 22
9 8 9 9 9 8 8 6 5 4 3 3 3 1 1 2 2 3 3 4 2 3 4 5 5 6 7 9 11 12 14 16 18 19 20 19 19 19 18 18 18 19 20
8 10 9 9 10 8 9 7 7 6 5 3 3 1 1 2 3 3 2 3 4 3 4 6 5 5 7 9 10 12 13 16 18 18 19 18 20 21 21 20 18 15 14
10 11 12 9 9 10 8 7 8 8 7 4 3 2 1 1 1 2 3 4 3 3 3 4 8 9 8 11 12 15 16 17 19 17 16 24 23 22 19 18 16 14 13
12 12 13 11 11 8 8 8 8 8 7 6 5 5 3 2 1 1 3 5 4 3 4 3 2 7 9 11 13 16 15 20 19 14 21 24 23 19 18 19 18 16 14
12 14 14 13 12 11 10 9 9 9 8 7 7 8 6 4 3 2 2 2 3 4 4 3 4 9 10 10 13 17 17 19 15 18 23 23 19 16 19 18 16 16 14
17 13 15 15 13 13 13 12 9 10 10 9 8 8 8 7 6 5 4 4 3 4 5 6 8 10 13 11 14 17 16 18 17 21 20 22 14 19 18 15 15 14 12
19 16 15 15 15 15 15 15 14 11 11 10 9 9 9 9 8 7 6 6 6 5 10 12 10 11 13 13 16 17 15 15 16 19 23 14 19 18 15 13 13 12 13
23 21 16 14 15 15 16 16 17 14 14 12 11 10 10 9 9 9 8 9 9 8 9 13 13 13 13 14 15 16 15 14 14 16 17 16 19 15 13 12 12 12 10
27 22 21 18 16 16 17 19 18 17 16 15 13 13 12 11 11 10 9 9 10 9 10 12 15 14 14 14 16 16 14 14 15 19 15 18 20 14 14 13 12 11 11
30 27 26 24 22 18 18 17 17 18 17 17 17 15 15 14 14 12 11 11 11 11 12 13 15 16 15 14 14 16 17 16 18 16 14 18 18 15 14 14 13 12 13
28 30 28 27 26 23 21 20 19 18 18 17 18 19 18 18 18 16 13 13 12 13 13 14 16 17 16 14 15 15 16 17 18 10 12 18 16 12 12 12 13 13 14
28 28 29 29 29 29 29 30 26 19 19 19 18 21 22 22 22 20 19 19 19 15 16 16 18 18 18 16 15 15 16 16 13 12 15 19 16 12 10 7 15 15 15
28 27 28 27 31 34 36 37 36 28 23 22 22 21 21 21 23 20 19 20 21 22 23 22 22 21 22 18 16 16 15 15 18 20 18 18 15 13 7 12 15 15 16
26 28 26 28 31 34 39 41 41 38 30 28 27 26 24 25 23 22 19 18 18 19 20 22 25 24 22 19 17 16 16 16 16 17 13 11 15 13 7 10 16 16 16
23 25 25 25 28 35 37 38 37 33 33 33 32 31 30 29 30 32 27 23 21 23 21 24 25 26 26 24 22 18 17 17 18 17 14 15 11 13 11 11 11 12 15
24 23 24 25 27 31 35 36 35 30 30 32 33 35 36 38 35 38 35 26 26 27 22 21 21 22 23 24 22 22 18 19 19 18 9 9 13 12 7 5 5 9 10

GFSMA_925_spd_078.txt.gz
Wind_Speed
11 10 10 9 8 7 7 7 7 7 6 7 8 8 8 8 7 7 6 5 5 4 3 4 4 4 5 4 5 6 7 8 9 9 11 11 10 9 8 8 7 5 5
9 8 7 6 5 6 6 5 6 6 7 7 7 7 7 7 7 6 6 5 6 3 2 1 3 3 3 5 6 7 7 8 9 10 10 10 10 9 8 7 5 4 4
6 5 4 4 5 5 4 4 4 5 7 7 7 6 6 6 6 5 5 4 3 5 6 4 3 4 4 5 6 7 8 9 9 10 10 10 10 9 8 7 4 4 4
5 4 2 3 4 4 4 4 4 7 6 8 7 6 6 5 4 4 5 4 3 2 4 7 6 6 6 6 6 7 8 9 10 10 10 10 9 9 8 7 5 4 5
4 3 2 4 4 4 4 4 5 4 6 7 9 6 5 4 3 4 3 3 2 2 3 5 8 7 8 7 7 8 8 8 9 9 9 9 10 9 9 8 8 7 7
5 3 4 4 4 4 4 4 4 4 3 3 3 5 2 1 1 1 2 1 1 2 2 3 4 5 9 9 8 7 8 8 8 9 9 9 10 11 10 10 10 11 11
3 4 5 5 3 2 3 3 4 3 5 2 3 2 3 3 2 1 1 1 1 1 2 3 3 3 4 9 8 8 8 9 10 10 11 13 13 14 14 13 12 12 13
4 3 5 5 3 3 3 3 1 3 3 1 5 4 2 8 6 3 2 0 0 1 1 2 3 3 3 3 4 8 8 10 12 13 14 16 17 18 19 19 19 18 16
4 4 5 6 4 4 6 4 2 3 5 2 2 8 4 5 2 4 3 2 0 1 1 1 1 2 2 3 5 8 11 13 14 15 16 17 17 18 19 20 21 22 22
4 5 6 6 5 5 4 4 2 1 3 5 2 2 5 5 5 3 7 4 3 2 3 1 2 2 2 3 5 9 11 13 13 14 14 14 15 16 18 19 19 19 18
6 6 6 6 6 6 4 3 3 2 2 3 2 1 2 1 1 6 4 6 7 4 4 2 3 2 3 4 6 8 9 10 13 14 11 14 18 19 20 19 18 17 16
7 8 8 8 7 7 6 6 5 4 4 3 3 3 3 5 5 3 1 4 3 5 4 4 4 4 5 5 5 10 11 14 15 12 12 18 19 20 19 19 19 16 14
9 9 10 9 9 8 6 7 6 6 6 5 5 5 2 1 2 3 4 5 3 5 4 5 4 4 4 5 7 13 12 17 16 11 15 17 19 18 17 19 17 15 15
10 8 11 10 9 9 7 7 7 6 6 7 6 7 5 3 2 2 4 6 1 3 5 4 1 2 5 7 7 14 12 16 14 13 17 17 16 16 19 18 16 15 14
9 10 10 11 11 11 10 9 8 8 7 8 9 8 8 7 5 4 3 3 6 4 1 5 4 3 8 10 11 14 14 17 14 18 17 16 13 19 18 15 14 13 12
13 10 12 12 12 12 11 10 8 9 9 9 10 9 10 10 8 8 7 6 5 6 5 6 6 8 9 11 11 14 15 17 15 17 19 12 17 18 15 13 11 11 12
16 15 14 15 13 13 13 13 12 8 9 10 9 10 11 11 11 10 9 9 9 9 10 11 11 9 11 11 13 13 14 14 14 17 18 13 19 15 12 11 10 10 8
18 16 16 13 14 15 15 15 13 11 11 11 11 11 11 12 12 12 12 12 12 10 12 13 13 13 10 11 12 14 14 14 14 12 20 15 17 17 11 9 10 9 8
20 19 18 16 15 17 17 17 16 15 15 15 13 13 13 12 14 14 12 12 13 12 11 13 14 14 12 13 11 13 13 14 15 16 15 16 17 15 13 11 10 10 10
20 21 22 20 18 17 18 18 18 17 17 16 16 16 14 15 15 15 14 13 13 13 13 14 15 14 13 11 12 14 16 15 16 17 12 13 18 12 13 11 12 11 12
22 22 23 23 22 21 21 20 19 19 19 19 17 16 17 17 18 18 16 15 14 15 15 15 15 14 14 11 12 16 16 16 17 14 13 16 16 13 9 7 12 13 14
24 24 24 25 25 25 26 25 23 21 20 19 19 18 19 20 22 23 22 22 19 16 17 17 17 16 14 15 14 15 16 17 16 13 12 20 16 15 12 10 13 16 14
24 25 26 26 27 28 29 31 30 29 26 23 22 22 21 22 24 22 22 24 26 26 26 23 21 20 19 17 17 16 16 16 18 19 18 17 14 15 14 11 14 15 12
23 25 26 27 28 29 32 33 35 34 31 31 29 27 26 25 23 23 22 22 22 21 24 26 26 25 23 19 18 17 16 17 18 18 15 17 15 17 13 12 16 14 10
21 23 24 25 27 29 31 33 34 29 30 33 34 34 33 31 31 30 29 26 25 26 24 26 27 28 27 27 24 19 20 19 20 20 17 18 17 16 16 15 12 14 13
21 21 23 24 26 28 28 31 32 28 28 30 31 34 38 39 37 35 35 32 30 31 27 26 21 24 26 26 26 30 23 22 22 20 18 12 17 16 14 12 8 12 12

GFSMA_925_spd_081.txt.gz
Wind_Speed
11 11 6 9 5 9 8 8 7 7 7 8 8 9 8 7 5 10 8 7 5 4 3 4 4 4 4 5 6 7 8 8 9 10 10 10 9 9 9 8 7 6 5
11 9 6 5 7 8 8 5 8 5 11 8 7 6 7 7 6 6 9 8 9 7 5 4 3 4 4 5 6 7 7 8 9 9 9 9 9 9 9 9 8 6 5
3 5 5 7 8 6 5 4 3 4 6 7 7 4 8 5 7 3 4 6 3 6 9 8 7 7 6 6 6 6 7 7 8 9 9 9 9 9 8 9 8 8 6
5 2 2 5 7 4 5 6 4 6 4 9 6 6 5 8 4 3 5 3 3 3 5 9 8 8 8 6 5 6 7 7 7 8 8 8 8 8 8 8 9 9 8
4 1 2 5 4 3 5 9 6 4 3 3 7 7 3 4 4 8 4 2 4 3 3 6 6 6 9 7 6 5 5 6 7 7 8 8 9 9 9 9 10 10 10
4 3 5 3 2 1 7 8 6 7 5 2 4 6 1 1 1 3 5 6 5 2 3 2 4 1 7 8 6 6 6 6 7 8 10 11 12 13 13 13 13 13 12
4 5 8 5 5 4 5 5 6 2 2 1 11 5 6 8 6 2 2 2 5 2 2 3 1 2 1 6 5 7 6 7 9 11 13 15 16 17 18 18 18 17 16
4 5 1 6 4 3 5 1 2 6 6 6 10 11 1 10 8 7 3 2 2 2 3 3 2 1 0 1 4 7 8 10 12 14 15 16 17 18 19 19 20 20 20
4 2 5 0 2 3 8 4 2 7 12 5 3 6 3 3 7 9 5 5 2 3 2 3 3 2 1 2 5 6 9 13 13 14 14 14 15 17 19 19 18 17 15
5 4 5 4 4 1 6 6 3 4 5 7 2 6 5 7 4 3 8 5 5 7 2 3 4 4 1 4 4 6 12 10 11 14 13 14 18 20 20 17 18 17 14
6 7 6 6 5 6 5 4 2 4 1 8 3 2 3 0 2 7 5 9 5 4 6 2 3 2 1 2 4 6 9 11 13 14 12 18 20 21 18 18 18 16 14
8 8 8 8 8 7 4 5 5 3 5 6 9 5 9 9 17 11 5 2 7 3 4 4 2 2 2 3 2 11 12 12 17 13 16 19 21 19 18 19 16 15 13
13 15 10 9 9 8 4 6 5 5 5 5 5 10 11 6 5 10 7 1 2 6 2 4 3 1 4 5 7 12 14 11 16 12 18 20 19 17 19 17 15 14 12
7 14 7 8 9 9 8 8 7 7 10 7 7 9 10 7 4 4 7 8 5 6 6 3 2 3 5 7 10 14 14 15 19 13 15 20 16 19 18 14 13 13 12
8 11 9 9 10 10 9 8 9 9 6 6 9 8 9 12 7 6 4 8 9 6 3 7 3 3 5 9 12 12 15 16 18 15 11 18 17 19 16 12 11 11 10
10 5 10 11 10 10 10 10 11 10 9 9 10 14 11 15 8 7 9 7 7 11 7 9 6 7 8 11 13 15 15 19 20 9 8 18 16 18 14 11 9 9 6
12 10 8 12 10 12 11 12 13 5 9 9 11 7 9 14 12 11 11 11 10 10 12 14 12 12 9 14 14 15 15 17 15 13 11 17 14 14 14 11 9 8 8
16 16 15 13 14 14 14 14 15 13 12 11 11 11 11 13 14 17 13 10 11 11 11 13 16 18 17 14 14 15 15 14 14 15 15 17 9 12 12 10 9 9 9
18 17 17 17 16 17 16 16 16 17 14 13 13 13 13 13 13 15 14 16 16 16 15 17 16 16 16 15 15 15 15 14 15 11 18 10 13 17 12 9 9 9 12
19 20 20 20 19 18 17 18 19 18 18 17 16 16 15 15 15 15 15 15 16 15 16 16 18 18 16 14 14 15 15 16 16 17 16 11 18 12 12 9 7 9 14
22 22 21 22 23 21 21 22 20 21 21 19 18 17 19 18 18 18 17 18 17 15 17 17 18 17 15 12 12 15 19 18 18 15 17 14 18 15 11 10 6 6 16
22 23 24 24 25 26 26 25 23 22 22 21 20 20 21 18 23 24 25 24 20 14 16 18 18 18 17 16 16 17 18 18 17 15 14 18 19 15 15 9 6 7 17
21 24 26 26 27 28 29 28 30 29 26 23 22 23 22 24 26 25 25 27 29 28 28 25 21 21 21 19 18 17 18 18 20 21 20 18 15 15 14 12 10 15 12
19 23 25 27 27 29 31 32 32 33 30 31 29 25 26 27 25 21 25 24 24 26 29 32 35 35 30 27 25 21 20 22 22 23 20 19 18 16 15 11 12 13 10
20 21 21 25 28 29 31 31 34 30 31 33 32 33 33 30 29 32 31 25 25 27 25 29 30 30 29 27 25 23 23 22 21 22 20 19 19 17 15 14 12 10 8
17 19 21 26 28 30 28 30 31 28 30 30 31 34 37 38 36 35 34 32 31 33 26 27 23 31 34 36 34 33 28 25 24 23 23 19 17 17 16 20 12 13 12

GFSMA_925_spd_084.txt.gz
Wind_Speed
13 13 9 8 9 13 6 11 9 6 3 11 12 8 7 10 11 9 11 8 6 5 4 4 3 2 2 2 3 4 5 5 6 7 8 8 8 8 7 7 6 4 3
10 10 3 7 6 13 6 8 11 8 6 10 6 8 11 3 7 6 8 11 9 8 7 5 4 3 2 2 2 3 4 5 6 7 7 8 8 8 8 7 6 4 2
9 12 6 8 6 3 5 4 5 3 0 7 6 6 8 8 3 3 4 6 8 9 10 8 6 5 4 4 3 3 4 6 6 7 7 8 8 9 9 9 7 6 5
7 4 5 7 9 3 5 5 4 5 8 11 9 10 8 6 5 6 3 3 3 7 8 9 7 7 5 4 4 4 5 6 6 7 8 9 10 11 11 11 9 8 6
3 5 5 4 5 2 7 7 4 3 4 6 5 6 10 8 7 9 4 6 7 5 4 3 4 5 7 5 4 5 5 6 6 8 10 11 13 14 15 14 13 12 9
4 5 2 3 5 8 10 8 3 5 3 8 6 5 2 3 2 6 9 12 4 7 6 2 5 1 5 6 6 5 6 7 9 11 13 15 16 17 18 18 17 16 14
5 6 5 8 5 1 7 4 3 5 3 4 7 9 7 7 7 6 4 15 5 8 3 2 3 2 2 4 5 5 7 9 12 15 17 17 18 18 18 18 18 17 17
5 3 5 9 6 7 3 2 2 10 3 9 7 4 3 8 8 6 5 4 0 4 8 4 2 2 4 7 6 7 9 13 15 16 17 16 16 18 19 18 16 14 11
6 2 5 4 5 5 4 4 1 5 9 3 6 4 1 2 5 8 9 7 7 4 3 3 6 2 3 4 9 3 8 14 14 16 16 13 19 19 18 15 15 13 10
8 6 5 6 11 5 9 5 0 4 3 7 4 3 6 2 0 2 10 2 6 6 5 8 8 6 3 8 7 6 10 11 15 17 14 17 19 20 15 16 13 13 11
7 8 8 6 7 6 8 5 3 1 6 7 12 4 6 6 2 2 2 6 10 13 4 3 3 8 3 2 2 6 12 11 15 19 16 18 20 17 16 15 12 12 12
10 12 10 8 5 6 11 4 3 1 4 4 8 10 14 3 9 5 3 2 10 5 7 4 3 1 2 3 4 8 16 15 13 19 17 19 18 17 17 14 12 11 11
15 14 14 13 8 8 6 7 7 5 5 5 6 9 12 12 10 5 11 10 6 6 2 7 5 2 2 6 7 10 15 16 13 17 16 18 16 18 16 13 12 11 9
7 13 11 11 11 11 9 8 6 6 10 6 10 10 12 13 15 6 6 9 4 8 3 6 9 5 2 6 10 13 14 18 19 20 18 14 16 18 15 12 11 10 8
11 5 7 10 7 9 9 10 9 10 5 7 9 10 14 13 13 10 6 8 5 3 3 3 5 6 1 5 12 17 15 18 19 22 21 10 13 15 15 11 10 9 6
16 5 7 11 10 11 11 10 11 9 11 10 10 12 11 13 15 17 7 11 9 6 2 8 13 10 7 12 17 15 21 19 18 22 10 10 8 12 14 10 9 8 7
10 13 12 16 14 12 13 13 10 6 11 10 12 6 14 12 16 18 13 10 14 11 10 15 13 14 18 19 20 18 19 17 20 21 19 14 7 10 13 10 9 8 8
15 13 11 12 13 14 12 14 13 11 11 11 10 9 11 12 15 15 15 16 15 15 14 17 20 24 19 22 19 18 19 17 16 20 22 15 11 10 15 10 9 8 8
17 16 17 17 18 17 16 14 15 14 14 13 14 12 15 14 14 15 16 14 14 15 16 17 21 19 19 20 22 20 18 20 18 19 18 18 12 13 14 12 8 6 8
19 19 19 19 21 19 19 18 17 17 17 18 15 16 17 18 18 17 18 18 20 20 19 18 19 20 23 24 21 16 11 17 17 16 18 20 13 15 17 12 9 7 8
21 20 20 21 19 21 19 20 20 20 21 22 21 20 21 21 22 19 18 18 21 20 19 20 21 20 19 9 16 16 16 16 19 21 22 18 18 24 25 13 11 10 9
19 19 21 21 21 22 23 24 26 23 22 24 24 22 22 21 19 25 23 24 26 21 19 17 19 17 23 20 16 17 21 20 13 16 19 27 25 22 21 14 10 11 9
18 19 20 22 23 24 27 26 24 26 23 23 25 26 25 22 24 27 29 29 29 29 29 28 28 26 23 26 22 20 17 21 22 26 24 25 22 24 24 16 12 13 9
12 18 22 21 25 25 25 27 30 30 27 28 29 26 26 27 28 22 22 26 29 30 29 30 34 37 38 37 35 29 25 26 26 25 24 20 27 26 18 13 13 14 13
12 13 17 21 22 24 25 28 25 30 29 30 32 30 30 32 29 28 31 32 28 27 27 28 28 31 31 30 28 28 23 19 21 25 22 25 27 27 19 14 15 15 14
15 16 16 19 24 28 24 24 27 28 25 25 28 31 34 38 36 37 37 33 34 36 30 30 28 26 30 35 35 34 33 24 23 22 27 22 23 21 19 16 17 18 18

GFSMA_925_spd_090.txt.gz
Wind_Speed
13 9 7 5 6 3 3 4 5 3 4 7 9 15 13 7 7 6 5 3 2 2 2 2 2 2 2 2 3 3 4 4 5 5 6 6 6 6 6 6 5 5 4
11 7 6 4 5 2 5 2 3 1 4 9 17 15 12 9 6 6 5 4 3 2 2 1 1 1 2 2 3 3 4 5 5 6 7 7 8 9 8 8 6 6 6
11 12 9 8 6 3 2 2 2 3 3 5 10 9 9 7 7 5 4 3 3 3 2 2 1 1 2 2 3 4 4 6 7 8 10 11 11 12 11 10 9 7 7
11 6 10 7 7 4 3 4 2 2 1 3 3 7 8 7 7 4 5 4 3 2 3 3 3 2 2 3 3 4 6 8 10 12 13 14 15 16 15 13 12 11 10
8 5 9 8 2 5 5 4 1 0 4 5 5 6 9 9 8 8 8 5 5 4 1 0 2 3 3 3 4 5 7 10 12 14 15 16 16 16 16 14 11 11 12
6 3 7 7 0 8 5 3 1 1 3 1 3 8 9 15 13 11 9 8 6 5 4 2 2 2 3 4 6 7 9 11 14 15 16 15 15 17 16 14 11 8 9
9 7 8 6 3 5 5 1 1 4 1 3 4 2 0 7 15 16 14 12 10 6 5 4 3 3 4 6 8 11 12 13 14 16 15 14 17 17 15 13 11 9 5
9 9 7 8 6 6 4 2 1 2 0 4 2 1 3 1 3 11 17 17 15 12 9 8 7 5 5 5 7 10 12 11 13 16 16 16 18 16 14 14 12 11 8
10 11 9 8 6 7 4 1 3 3 4 5 3 2 2 1 4 1 8 18 14 15 11 9 7 7 7 7 8 9 10 10 12 16 17 19 19 17 15 13 12 11 8
12 8 10 8 8 9 6 3 1 3 3 11 7 9 4 2 1 3 3 7 11 10 11 12 11 8 10 10 11 9 11 13 14 15 17 19 20 19 15 13 12 11 9
11 10 10 12 8 10 9 5 2 1 4 7 9 9 8 10 15 2 2 4 10 11 12 14 15 14 10 9 9 4 11 12 16 16 17 19 19 19 15 13 12 11 10
11 11 10 11 8 8 7 7 4 1 2 3 5 6 9 6 7 5 2 2 4 8 13 13 11 7 7 11 9 5 12 14 16 18 16 19 18 17 15 13 12 11 8
14 12 13 13 9 8 8 8 7 5 4 4 5 5 6 7 9 10 4 4 3 4 4 13 10 6 4 3 3 6 16 17 19 16 16 19 16 14 14 13 11 11 8
15 15 15 14 11 9 9 10 9 7 6 6 7 6 7 6 7 9 12 5 3 3 6 6 8 4 3 5 7 14 16 19 21 17 19 19 15 12 12 12 12 11 10
14 19 17 16 13 12 12 10 9 7 6 5 5 7 8 7 5 6 8 13 4 2 2 4 6 9 7 12 16 16 17 20 21 18 20 21 16 12 12 12 12 12 12
15 15 13 17 14 15 13 12 11 9 8 10 8 7 6 8 6 6 8 7 8 2 1 4 3 10 14 15 16 17 20 21 20 22 21 18 16 14 13 14 13 13 12
19 18 14 15 16 15 15 15 12 10 9 9 11 10 11 9 8 6 7 7 6 5 3 7 10 13 15 17 19 23 25 23 20 18 13 16 17 13 14 16 16 15 14
17 18 15 16 18 16 16 17 16 13 11 13 11 13 13 11 11 8 8 9 8 6 7 10 14 16 17 18 21 22 18 15 12 10 16 21 20 14 12 16 18 18 16
20 18 17 15 17 20 17 17 17 16 15 14 14 13 11 11 12 12 11 12 11 11 11 12 15 18 19 19 20 16 17 16 19 20 22 21 16 16 17 18 19 20 19
20 19 19 19 17 17 17 19 18 18 17 17 16 17 18 17 17 15 15 15 15 15 15 16 15 17 17 17 16 21 22 25 27 27 23 19 21 21 20 18 19 21 22
23 22 20 20 20 19 20 20 21 21 19 20 19 19 18 18 19 19 20 21 19 19 19 18 18 18 19 20 21 22 23 30 32 26 23 26 27 23 22 22 22 23 22
20 20 19 20 19 20 20 18 21 22 22 23 24 23 22 21 21 21 23 20 19 22 22 22 23 21 24 25 26 27 28 28 13 19 20 33 29 30 29 28 25 26 20
7 15 19 18 18 19 17 18 19 22 24 24 23 26 26 24 23 21 22 23 22 23 24 28 29 30 29 29 27 28 29 26 24 27 25 30 32 35 35 27 21 22 21
9 7 7 9 13 12 14 16 19 22 24 25 25 25 24 24 25 25 25 26 26 26 26 25 27 30 31 29 29 29 30 29 30 31 22 18 27 35 30 22 15 16 18
11 13 12 9 6 8 10 11 16 18 20 23 24 25 24 26 27 26 26 28 30 31 30 30 32 34 32 30 28 29 31 27 23 24 18 16 33 27 28 25 19 18 16
9 10 9 8 8 8 8 9 12 14 15 20 21 21 22 22 22 25 27 29 32 33 32 31 33 32 31 29 28 30 33 28 20 22 20 18 26 22 8 22 15 16 20

GFSMA_925_spd_093.txt.gz
Wind_Speed
9 7 4 2 4 5 3 5 4 7 5 2 4 9 8 6 3 1 1 1 2 2 2 3 4 4 5 6 6 6 7 7 8 8 8 8 8 8 7 7 7 7 7
6 3 2 2 2 3 2 4 3 7 5 4 7 8 8 5 4 1 1 2 2 2 2 3 4 5 6 6 6 7 7 8 9 10 10 11 10 10 10 10 9 9 10
6 4 3 2 2 2 2 4 3 4 5 4 6 6 6 5 5 3 3 3 4 3 3 3 4 5 6 6 6 7 8 10 12 13 14 14 13 13 13 13 13 11 11
4 4 5 1 1 2 1 3 4 4 4 4 1 3 5 7 7 6 6 6 5 3 4 5 6 6 6 7 8 9 10 13 14 16 17 17 16 14 13 13 14 13 12
6 3 4 2 2 0 1 4 6 5 4 4 4 5 7 7 8 9 9 7 6 6 6 6 6 6 7 7 9 11 13 15 17 17 18 17 16 16 15 12 11 10 11
3 2 5 3 2 2 1 3 4 4 5 5 4 8 9 10 12 11 10 10 9 8 7 6 7 6 8 9 11 13 16 17 18 19 18 17 17 17 14 12 11 8 6
7 4 5 5 1 2 2 3 4 7 4 4 6 6 4 4 6 13 13 12 11 9 9 8 9 9 9 10 12 15 17 17 16 17 18 19 19 18 15 13 11 9 7
7 6 4 4 1 2 2 4 6 6 5 6 4 3 4 3 3 7 13 16 14 12 12 12 11 9 9 11 12 14 16 15 14 16 18 20 21 19 16 14 13 12 9
10 7 6 5 2 3 1 2 5 7 7 5 6 3 2 1 5 3 4 8 14 14 13 12 9 8 9 11 14 15 14 15 16 16 18 20 22 21 18 15 14 11 8
9 7 6 7 6 6 3 1 3 5 5 9 5 7 3 3 0 4 3 4 7 13 10 10 11 12 12 13 15 16 14 16 18 19 17 20 21 21 19 16 15 12 9
8 8 7 8 8 7 6 3 1 2 4 7 9 8 5 5 9 2 2 5 6 9 12 11 13 16 16 15 15 13 15 18 19 20 18 18 20 19 19 16 14 13 10
10 10 10 8 7 6 4 7 4 2 1 3 5 7 10 6 6 5 2 3 5 5 8 9 10 11 12 8 12 11 16 19 20 20 19 19 19 17 16 16 13 13 12
14 13 12 10 8 7 6 8 7 7 3 3 3 4 5 6 8 11 4 3 2 4 5 5 5 6 9 6 8 12 18 19 20 20 20 20 20 16 13 14 13 11 13
15 13 12 12 10 9 9 11 9 7 8 6 5 4 4 4 4 6 9 5 3 3 5 6 12 5 8 10 14 15 16 19 20 20 21 19 17 15 13 12 13 12 12
17 16 15 15 12 11 10 9 10 9 7 7 4 4 3 2 1 3 4 5 2 1 2 6 4 6 12 12 13 16 19 17 16 18 17 18 19 15 12 12 13 13 13
16 16 16 18 15 13 11 11 11 9 10 9 9 7 5 2 2 2 2 1 3 1 1 2 3 10 10 11 14 18 19 15 14 13 13 19 21 20 13 12 14 14 15
15 16 13 12 14 14 13 13 12 11 11 9 8 11 9 8 7 4 3 2 2 1 2 4 8 12 13 15 15 16 16 15 13 14 18 22 21 17 15 13 15 17 16
16 18 16 14 15 16 14 14 14 14 12 12 13 11 11 9 9 8 6 6 5 5 6 9 13 15 16 16 15 12 11 13 18 20 21 21 16 19 18 16 17 18 18
17 18 18 19 14 17 17 16 16 15 15 14 14 14 12 11 12 10 8 9 8 8 8 9 11 15 17 15 14 14 15 18 20 23 23 19 17 21 19 18 17 17 19
22 20 20 20 18 16 16 18 18 18 15 16 16 16 15 15 16 15 15 15 14 15 15 13 14 16 17 17 16 17 21 22 25 25 19 14 22 22 23 24 22 19 20
19 21 21 22 20 19 18 19 18 18 18 18 18 18 18 18 17 17 18 19 20 19 19 18 18 19 22 22 22 22 24 25 26 21 18 25 26 25 25 26 23 17 17
15 19 19 20 22 21 18 18 16 17 18 19 19 18 19 19 21 22 21 21 21 20 21 21 22 23 27 27 27 27 25 22 8 19 23 33 31 31 30 28 19 14 15
13 8 7 14 19 22 19 19 17 17 18 19 19 19 20 20 19 21 23 21 22 21 22 23 23 25 26 26 26 28 29 26 27 29 26 30 31 33 34 23 20 13 11
14 15 12 9 9 7 9 17 19 18 19 19 20 20 21 22 22 22 22 24 25 25 25 27 29 30 29 28 27 27 27 28 30 32 21 20 28 33 27 23 17 13 13
7 10 9 8 8 9 11 8 7 10 12 15 17 16 16 18 18 18 19 22 26 28 28 29 31 31 31 31 28 28 29 26 21 24 18 18 29 26 25 27 15 14 11
8 5 8 10 12 17 18 18 11 9 8 10 13 12 12 12 12 13 13 15 21 25 25 27 29 31 29 29 27 27 28 27 20 16 18 14 23 18 9 21 10 18 29

GFSMA_925_spd_096.txt.gz
Wind_Speed
7 6 6 6 6 6 5 5 6 6 4 3 2 5 4 4 4 4 3 3 2 3 3 4 5 6 6 7 8 9 9 9 10 10 11 12 12 12 12 10 11 10 9
5 2 3 3 4 5 6 6 8 9 5 6 5 2 1 3 5 4 5 5 5 5 5 5 5 6 7 8 8 8 9 10 12 13 14 14 15 15 14 14 14 12 10
3 2 4 5 4 5 6 6 6 7 5 5 2 1 3 4 5 6 6 7 7 7 7 7 7 7 8 8 9 10 12 13 15 16 16 16 15 14 15 15 14 14 12
2 1 3 4 4 4 6 7 7 6 5 5 4 4 4 5 6 6 7 7 7 8 8 8 8 9 9 9 10 12 14 16 18 18 18 17 16 15 14 13 12 12 12
3 1 2 2 5 4 5 7 8 7 7 6 7 6 6 7 8 8 8 7 7 8 8 8 8 9 10 11 13 15 17 18 19 18 18 17 16 16 14 11 11 8 8
3 2 1 2 6 4 5 7 7 8 8 8 9 10 8 8 8 8 8 8 8 8 9 8 8 9 10 12 14 16 19 20 17 16 17 18 19 17 16 14 13 10 5
2 1 1 1 3 4 4 5 7 7 8 9 7 8 5 6 5 5 8 10 9 9 9 9 10 10 10 12 14 16 18 19 18 16 17 18 20 19 17 16 16 13 10
4 2 2 2 1 4 4 5 9 7 7 8 5 3 4 4 6 5 6 7 9 10 10 10 10 9 11 14 15 16 17 17 19 19 18 19 20 20 18 16 14 12 9
6 5 4 3 1 2 2 4 8 8 9 6 9 4 2 1 6 4 5 5 5 7 7 9 9 9 12 15 16 16 16 18 20 20 18 17 18 18 18 15 14 11 9
7 6 5 4 2 2 0 2 5 7 8 10 4 9 7 5 1 3 5 5 6 6 8 10 11 11 14 15 15 15 15 18 20 19 19 18 17 16 17 15 14 11 10
4 5 3 3 4 4 4 1 2 4 6 8 10 7 3 5 9 3 2 8 7 6 7 8 8 11 13 11 11 12 15 18 19 18 19 19 18 14 13 14 13 11 9
7 7 6 5 6 4 4 5 3 1 3 4 5 7 9 5 6 4 1 3 6 8 9 6 6 8 11 9 10 14 16 17 19 17 17 18 17 15 10 12 12 11 10
10 8 7 7 5 4 5 6 5 3 2 3 3 4 4 4 5 6 4 2 2 4 7 12 5 3 8 9 12 15 16 17 16 16 17 18 18 16 11 9 11 11 10
11 9 8 8 7 7 5 6 6 5 4 5 4 3 2 2 2 3 4 5 2 3 5 7 10 9 9 12 12 15 18 15 12 12 13 16 18 19 15 9 9 10 11
13 11 9 9 10 9 8 7 7 7 5 4 3 3 3 3 3 2 3 3 1 1 2 3 2 7 9 10 13 15 17 13 9 10 11 16 20 19 15 10 10 10 11
11 13 11 12 12 10 9 8 9 7 7 6 6 6 4 4 3 5 4 4 3 2 1 3 5 9 11 12 14 14 12 11 11 13 15 18 19 16 16 12 11 12 11
8 9 10 8 10 13 12 11 10 9 9 8 6 5 8 6 7 6 7 7 6 6 4 6 9 13 15 17 17 15 11 11 13 15 17 17 17 16 15 14 12 12 11
11 11 10 10 9 8 9 10 11 11 10 9 9 9 7 6 6 6 8 9 9 8 7 10 13 15 17 17 16 14 15 16 17 18 18 15 12 16 14 14 13 11 11
14 13 13 13 12 9 11 12 13 12 12 13 11 10 10 8 8 7 8 9 9 9 9 11 14 17 19 18 19 18 18 19 20 20 17 12 13 18 18 18 17 12 11
12 13 15 14 14 13 12 12 16 15 14 14 14 13 12 11 12 12 11 11 12 12 12 14 15 18 18 20 20 18 24 26 26 25 19 13 22 21 21 21 20 14 10
6 9 13 15 15 15 16 15 14 15 16 15 16 15 14 14 14 13 14 15 16 17 17 17 15 17 20 19 19 19 22 25 28 20 24 27 28 27 26 25 20 15 10
6 6 5 8 13 15 17 17 16 16 15 16 17 17 15 13 14 15 16 17 16 18 19 18 18 17 22 22 22 23 22 18 12 19 26 32 29 32 28 25 15 16 12
11 13 13 12 10 8 14 16 17 16 17 17 16 16 16 16 16 17 18 17 16 17 18 20 22 23 22 25 26 27 22 22 19 29 25 26 25 30 27 21 20 14 11
8 11 12 11 11 11 8 5 11 11 13 12 11 12 13 15 15 15 17 19 20 20 20 20 22 24 25 27 26 24 25 26 28 28 21 13 19 31 24 23 20 11 9
3 5 10 10 15 17 17 13 10 7 5 4 4 5 8 8 10 11 11 13 17 18 17 18 20 23 24 24 23 24 24 15 18 19 16 16 18 20 26 28 20 13 12
6 9 16 16 13 15 16 18 16 13 15 14 11 13 14 13 15 15 15 14 16 19 21 24 25 25 25 25 24 22 23 16 17 13 13 7 15 16 11 19 16 22 27

GFSMA_925_spd_099.txt.gz
Wind_Speed
9 7 9 8 7 7 6 6 7 7 8 7 5 3 2 4 4 4 5 7 5 5 4 5 6 6 7 8 8 9 10 10 12 13 14 15 15 15 14 14 11 9 8
6 6 5 6 7 6 6 7 8 8 7 8 9 6 4 2 5 6 4 5 8 7 7 7 7 7 7 8 9 10 11 12 14 15 16 16 15 15 14 14 14 11 10
6 6 7 7 7 6 7 8 7 7 6 6 5 4 3 3 3 5 4 4 4 8 8 8 8 8 9 9 10 11 13 14 15 17 17 16 16 15 14 13 12 11 11
4 5 6 6 6 6 6 6 6 6 5 4 4 4 3 4 4 4 4 5 5 4 6 8 7 8 9 11 13 14 15 16 16 14 16 18 17 15 12 12 12 9 7
4 4 5 6 6 6 6 5 6 6 5 5 5 4 4 4 3 2 4 5 5 5 5 6 7 8 10 12 14 15 17 18 15 14 15 17 19 16 14 11 11 8 3
4 4 4 5 6 5 5 6 6 5 5 6 5 4 3 3 3 2 2 3 4 6 5 8 9 7 9 12 14 16 17 17 18 15 15 16 18 17 16 14 11 10 5
3 3 3 4 5 5 6 6 4 4 5 8 4 3 3 4 4 3 3 3 4 5 6 7 8 8 9 12 14 16 18 17 17 17 15 15 16 18 17 15 12 9 9
3 2 2 2 4 5 5 6 6 3 4 8 4 2 3 2 5 4 4 4 3 4 4 7 9 9 11 13 15 16 16 17 18 16 15 14 14 15 16 15 12 9 8
3 2 1 2 2 3 3 4 6 5 4 5 9 3 1 3 4 3 4 4 5 4 5 8 9 9 11 12 13 13 14 16 17 15 15 15 13 12 13 13 11 9 9
6 5 4 4 3 3 2 2 4 5 6 6 4 7 7 5 3 1 3 4 4 4 6 6 6 8 11 9 11 12 14 15 16 14 13 15 14 10 9 10 11 9 7
5 7 7 6 4 3 3 2 2 5 6 6 7 3 2 4 5 3 3 5 4 6 6 5 4 6 9 9 9 13 15 15 14 14 15 15 13 11 7 8 8 8 6
6 7 5 5 4 5 4 4 3 3 4 4 5 5 6 4 7 5 3 3 4 5 6 6 3 4 6 7 10 13 15 17 13 11 12 15 16 14 7 5 7 6 5
6 7 7 6 4 5 5 5 6 3 1 1 2 3 3 3 3 4 5 4 3 4 3 6 5 5 5 8 10 15 17 17 12 9 9 13 15 16 10 4 5 6 5
7 7 6 7 6 5 5 5 5 4 3 2 2 2 2 2 2 2 3 6 3 1 1 3 3 5 7 9 12 14 14 15 11 9 12 14 16 16 12 6 5 6 6
9 8 6 6 6 6 6 6 7 7 5 4 4 3 3 3 3 3 3 3 4 4 4 2 3 5 8 11 13 14 12 11 11 11 14 16 15 14 13 10 7 8 7
6 9 8 8 9 9 7 8 7 8 7 6 5 6 5 4 4 4 5 4 4 6 6 5 8 9 11 13 14 17 14 14 13 14 16 17 15 13 12 12 9 9 10
3 4 5 6 6 9 10 10 9 9 9 9 8 6 6 7 6 7 6 7 6 5 9 11 10 11 13 13 15 15 13 13 15 17 18 17 13 11 12 12 11 9 8
7 6 5 6 7 6 7 9 9 8 10 9 9 9 8 6 7 7 7 8 8 7 8 11 11 11 11 12 14 14 12 14 14 14 17 13 9 15 16 15 14 13 12
10 8 9 7 7 7 7 10 9 10 9 9 10 9 8 9 8 7 7 8 9 7 8 10 13 12 12 11 13 12 13 14 14 17 17 15 14 19 18 17 17 16 14
10 8 8 8 7 8 8 8 9 10 11 11 10 11 10 11 10 9 10 10 10 12 11 12 15 14 13 12 11 11 15 16 18 18 14 15 21 22 20 19 15 10 11
7 6 6 7 8 8 7 8 10 10 9 10 10 10 12 12 12 12 12 11 11 12 13 14 15 15 15 14 14 14 15 19 18 16 15 19 21 19 17 15 13 14 14
8 5 4 2 3 4 10 13 13 12 10 11 11 10 9 11 9 12 12 12 12 14 14 14 15 15 16 15 15 16 18 19 19 16 17 22 19 18 16 13 15 16 12
12 10 10 9 5 1 8 11 12 13 13 10 9 9 8 5 11 10 12 15 16 16 15 14 15 17 18 17 17 19 18 18 21 23 20 20 16 16 16 15 18 16 8
9 10 10 10 10 11 3 1 3 2 1 4 4 5 4 4 9 12 12 11 11 11 11 12 13 16 16 16 16 18 19 20 21 20 15 16 16 19 17 17 18 13 9
6 10 14 13 15 15 11 9 8 8 10 10 8 8 8 10 12 11 11 11 11 11 12 16 18 19 21 22 21 19 19 19 22 21 17 17 17 19 18 19 11 12 9
17 17 18 17 16 17 16 16 12 12 11 11 9 10 11 11 12 12 11 9 10 12 15 17 17 16 16 15 15 16 17 19 20 17 11 11 18 18 13 16 14 17 17

GFSMA_925_spd_102.txt.gz
Wind_Speed
9 7 6 5 5 6 6 6 7 8 7 7 7 7 7 8 8 8 8 9 7 6 6 6 6 6 6 7 8 10 11 12 14 14 15 16 15 15 16 15 12 12 11
6 6 5 5 5 5 5 5 6 7 8 9 9 7 6 7 7 7 8 7 9 9 8 8 8 7 8 9 10 11 13 14 15 16 16 16 16 14 13 13 11 10 11
4 5 5 5 5 4 4 4 5 6 8 8 7 7 6 6 6 6 6 6 4 8 8 8 8 8 9 10 11 12 13 14 13 14 14 16 17 14 12 11 10 8 9
5 5 5 5 4 4 4 5 5 6 5 5 6 5 5 5 5 5 5 5 5 5 5 8 7 7 9 11 13 13 13 14 13 13 15 16 17 15 12 12 11 7 4
4 3 4 3 4 4 4 4 5 3 3 3 3 4 4 5 4 6 5 5 5 4 4 4 7 8 10 11 13 14 14 14 14 13 14 16 16 15 13 12 10 6 3
5 5 4 3 5 5 5 4 3 3 3 3 4 6 5 6 5 5 5 5 5 3 3 3 4 5 10 11 13 14 15 15 14 14 14 14 15 15 14 11 9 7 5
5 3 4 3 5 4 3 2 2 2 4 3 3 5 6 5 6 5 4 3 4 3 3 2 4 5 6 11 12 13 14 14 15 15 14 13 13 13 14 11 9 9 7
4 4 4 3 3 5 4 4 3 1 4 5 3 2 3 7 5 4 3 3 2 3 3 3 4 5 6 7 10 13 14 15 14 14 14 14 12 11 11 11 9 8 9
5 4 4 3 3 2 4 2 3 4 5 5 6 5 3 3 3 3 3 3 2 3 2 2 3 4 5 6 9 11 14 14 14 14 14 14 13 9 9 9 8 8 7
6 6 5 5 4 3 2 2 2 3 3 5 5 7 7 4 3 4 5 4 3 2 2 2 2 3 5 6 8 12 15 16 15 14 14 14 12 11 6 7 6 6 5
7 7 7 6 6 4 3 2 1 2 3 4 5 2 3 3 4 3 3 3 5 1 2 2 2 4 5 5 8 12 17 18 15 12 11 13 13 13 8 5 5 4 4
7 6 6 5 5 4 4 4 3 2 1 3 3 3 5 5 7 5 1 1 2 2 2 3 2 3 4 6 7 14 16 18 14 11 11 13 14 14 11 6 5 4 4
8 10 9 8 6 7 5 5 5 4 3 1 2 2 3 4 4 5 6 4 3 3 2 1 4 3 6 7 9 14 14 17 14 11 12 14 14 14 13 8 7 7 7
6 7 8 7 6 6 6 5 6 7 5 3 3 3 3 2 3 4 6 8 6 4 3 2 2 5 7 9 10 15 14 15 12 11 13 15 13 14 14 11 8 10 10
7 7 7 8 7 8 6 6 6 7 6 5 4 5 6 5 5 5 5 6 8 8 7 3 6 7 10 14 16 14 15 15 17 15 16 17 15 11 12 12 11 11 12
8 9 8 7 8 8 8 8 6 7 6 7 7 5 6 7 7 7 8 8 8 10 8 15 11 13 13 16 15 16 16 14 14 12 18 17 15 8 11 12 12 12 12
6 6 8 8 6 8 10 9 7 6 8 7 6 6 7 7 8 9 9 10 11 11 12 15 15 14 14 15 16 14 14 14 12 14 15 16 12 5 11 12 13 13 14
7 5 6 7 4 5 6 9 7 7 8 7 7 7 7 7 7 8 9 9 11 10 12 13 14 15 12 13 13 14 13 14 14 11 18 16 13 12 17 14 14 15 16
9 8 7 5 6 5 6 7 8 8 7 8 7 7 8 8 8 10 8 9 10 10 10 12 14 15 13 13 13 14 13 13 15 15 16 13 11 19 18 16 15 15 14
12 11 10 9 8 7 7 7 8 8 8 8 8 8 8 9 9 9 11 10 11 11 13 14 15 16 15 12 12 15 15 16 17 19 16 14 19 17 17 14 13 13 13
13 13 11 10 9 8 9 8 8 8 7 8 8 9 10 9 10 11 11 11 11 12 14 15 15 16 15 14 17 17 18 18 20 19 19 18 20 18 15 12 7 11 17
8 8 7 6 5 6 13 15 13 10 9 7 7 6 7 7 6 6 7 9 11 12 14 15 18 17 16 14 16 18 20 21 20 19 20 25 20 18 15 14 8 16 15
7 6 5 5 2 2 7 11 13 11 9 8 6 6 5 3 4 7 9 11 11 12 14 13 17 19 19 17 18 18 18 20 23 24 21 21 18 19 18 17 16 17 13
7 7 7 8 7 5 3 2 4 6 8 8 4 5 4 2 5 6 7 9 10 10 10 8 13 16 16 16 16 19 21 23 23 22 19 20 20 19 19 19 16 14 12
6 9 7 7 8 9 6 8 8 6 7 8 7 6 6 5 6 6 5 6 9 9 10 12 16 18 17 16 14 14 16 17 21 20 20 20 19 21 20 21 14 7 15
14 15 10 9 11 12 10 9 10 7 8 8 7 5 8 7 6 7 6 7 6 9 14 14 12 11 12 12 12 9 12 16 18 17 15 19 17 18 15 17 16 22 19

GFSMA_925_spd_105.txt.gz
Wind_Speed
8 9 2 7 3 6 7 5 7 6 7 6 7 6 8 8 8 10 7 7 7 7 6 7 7 8 8 10 11 12 13 14 15 15 15 16 16 15 13 11 9 9 10
4 7 6 6 2 8 7 8 4 5 8 10 6 6 7 8 7 8 9 9 9 8 8 8 8 8 9 10 11 12 13 14 14 13 14 15 16 14 12 10 8 6 9
1 3 4 1 7 5 6 5 5 4 8 9 8 4 8 6 7 6 6 8 8 10 8 8 7 8 9 9 11 12 13 14 14 13 14 16 17 15 13 12 9 4 6
4 3 5 5 5 2 4 1 3 5 4 7 4 6 6 8 6 5 6 5 5 7 8 7 7 8 9 10 11 13 13 13 14 14 14 15 17 16 14 12 11 7 1
3 1 3 5 4 1 1 3 4 5 3 3 11 7 5 7 7 7 6 5 5 2 6 6 6 8 10 11 12 13 14 15 15 15 14 14 15 16 14 13 10 9 4
4 2 4 2 6 1 4 9 8 5 5 4 7 7 6 6 5 6 6 7 5 5 5 2 4 2 8 9 13 13 14 15 15 16 15 13 12 14 14 13 10 9 6
5 3 6 4 3 6 8 1 4 3 2 1 6 7 6 7 6 6 5 5 4 3 3 2 4 4 5 3 12 14 15 15 15 15 16 15 12 11 12 12 11 10 8
4 4 1 3 2 4 2 2 6 6 5 2 7 2 5 6 6 8 4 4 1 3 4 2 2 3 5 5 6 12 16 16 16 17 17 15 14 10 10 10 10 10 10
5 1 3 3 2 0 4 1 3 6 4 4 5 9 3 1 8 7 6 4 4 4 1 2 2 2 4 3 7 10 16 17 17 16 16 16 15 12 8 8 8 8 8
6 5 5 3 4 5 3 2 2 7 8 5 3 6 6 5 4 4 7 5 6 7 2 6 2 4 3 8 7 11 16 19 17 14 14 16 17 16 9 7 7 6 6
7 7 6 5 4 4 3 2 1 7 7 9 4 3 3 2 3 11 0 10 5 4 2 1 4 5 2 0 7 11 16 18 18 14 14 16 17 18 14 7 6 6 5
9 6 7 5 5 6 2 4 3 3 7 8 8 6 6 10 13 8 3 3 4 3 1 2 3 4 7 5 5 13 16 14 17 15 15 16 16 17 16 11 7 7 6
8 9 8 6 6 7 3 5 5 2 2 3 8 10 1 7 8 9 11 6 4 3 3 7 3 2 4 8 9 13 18 11 17 17 15 17 17 17 17 12 9 9 8
6 12 8 6 5 5 7 6 8 7 8 4 4 8 10 4 3 4 9 12 9 9 12 11 15 4 9 10 10 17 16 20 19 20 16 18 19 17 16 14 12 11 11
6 8 7 7 7 7 7 6 9 6 5 5 7 6 7 12 6 7 6 7 8 8 9 2 3 10 7 12 18 16 18 18 19 12 13 17 19 16 12 13 14 14 13
1 11 7 7 7 7 7 7 10 10 7 8 8 7 5 11 11 8 8 10 10 11 8 16 17 15 12 14 16 18 17 20 19 8 10 17 18 14 9 12 14 15 16
4 1 4 6 6 8 8 8 10 3 6 7 8 5 6 7 8 12 14 11 9 11 13 12 16 16 18 9 12 12 16 18 12 11 12 16 16 15 15 18 17 17 17
4 5 5 6 7 7 8 9 10 8 8 8 8 7 7 8 4 7 9 8 8 12 10 10 13 14 15 7 7 10 13 13 14 9 15 16 12 16 20 17 15 15 17
8 8 8 7 8 8 7 7 9 8 8 8 7 8 7 7 7 8 8 11 12 10 9 13 15 13 15 17 8 13 13 10 16 17 18 7 9 22 19 18 13 10 13
11 10 10 9 9 10 9 9 9 9 9 9 9 9 8 9 8 8 9 8 10 11 13 14 17 19 16 14 11 16 18 15 16 18 18 15 17 21 18 19 12 9 12
13 13 12 11 9 10 10 11 11 11 10 11 10 8 12 10 8 8 9 9 9 11 13 16 16 18 16 18 16 15 19 19 21 20 20 18 21 18 19 18 8 5 13
13 13 13 12 11 9 8 13 14 10 9 9 10 9 8 4 6 6 10 12 12 10 12 13 15 17 17 16 18 18 19 20 19 17 22 22 18 15 15 15 2 8 18
8 8 7 5 3 4 12 14 16 15 11 9 9 7 9 3 0 6 10 12 11 12 12 13 14 16 17 14 14 17 19 20 22 23 23 24 28 22 20 16 9 16 14
5 6 7 6 4 3 1 4 7 6 9 4 5 3 1 2 6 5 5 7 7 8 9 8 10 13 15 18 18 18 20 22 22 21 20 16 17 19 18 22 23 11 6
6 7 9 6 4 3 1 2 5 5 5 5 5 6 5 3 5 6 6 6 8 6 8 11 14 11 10 10 8 8 12 16 15 17 17 19 19 24 23 19 18 7 22
9 14 9 4 4 4 4 3 3 3 5 5 6 7 5 5 6 7 7 8 8 11 14 12 9 10 9 9 10 6 14 13 17 15 15 22 20 16 14 14 22 22 23

GFSMA_925_spd_108.txt.gz
Wind_Speed
5 14 5 7 2 2 6 11 10 8 8 8 7 10 7 6 12 8 8 8 8 7 7 8 8 9 9 11 11 12 14 15 15 14 15 16 15 13 10 8 6 7 10
3 3 1 8 3 7 7 4 4 8 10 10 6 8 12 4 8 7 12 11 10 9 8 8 8 9 10 10 11 13 14 15 15 15 15 16 17 15 12 9 7 5 7
5 6 5 5 3 9 8 3 2 5 14 11 9 7 9 10 5 8 6 11 11 10 8 7 7 8 9 10 12 13 14 14 15 15 15 16 17 16 14 11 9 5 3
2 2 2 4 3 2 4 3 8 2 14 11 10 11 10 7 6 3 7 8 5 8 9 7 7 8 9 11 12 14 14 15 15 15 15 15 16 16 14 12 11 7 2
3 3 7 2 2 5 7 10 7 9 5 5 7 8 11 6 10 9 6 6 7 8 7 3 2 6 7 10 13 14 14 15 16 16 16 15 14 15 15 12 11 9 4
1 3 2 3 7 7 13 8 9 3 7 2 11 8 10 5 14 7 10 13 6 11 8 2 6 2 2 7 12 15 15 15 16 17 16 15 13 12 14 13 12 11 7
2 2 4 6 9 1 9 9 10 11 5 4 5 7 6 9 11 13 12 18 7 11 6 1 5 4 5 1 8 14 16 17 16 17 17 15 14 11 11 12 12 12 9
4 4 1 2 9 2 4 3 5 11 5 3 9 4 1 11 14 13 8 11 7 9 10 6 5 2 3 4 4 12 16 18 17 16 16 18 16 12 8 9 10 10 10
4 2 1 4 2 3 2 3 6 10 9 6 5 6 4 2 2 6 7 6 9 9 9 7 10 4 1 6 3 10 15 19 18 16 16 18 18 15 10 7 7 8 8
8 5 2 0 1 4 2 4 3 5 11 15 5 3 6 4 2 4 15 12 10 9 8 8 14 9 2 15 8 10 15 16 19 18 17 18 18 18 13 7 5 5 5
6 8 6 4 2 2 2 3 7 9 12 13 19 13 7 1 21 7 3 16 12 9 8 3 6 4 5 9 7 12 14 16 17 18 20 18 18 18 17 10 5 4 4
10 6 7 5 5 2 2 2 5 7 9 11 13 18 19 11 15 11 5 18 12 7 23 33 22 31 27 15 2 11 13 15 17 19 22 19 18 18 17 13 8 6 5
2 14 9 8 5 5 2 3 4 3 6 10 12 14 15 1 2 14 6 10 9 4 10 12 29 43 39 17 11 15 12 18 21 20 18 18 18 17 15 13 11 8 7
11 10 12 7 5 5 5 4 5 6 5 6 8 11 16 16 23 17 12 2 4 11 2 13 10 18 7 13 17 13 12 16 18 19 16 15 18 17 13 12 12 11 9
14 13 12 9 8 5 6 5 7 7 7 4 7 10 11 14 18 19 11 14 11 3 1 14 15 26 9 14 13 16 16 14 14 17 13 12 15 16 13 13 14 14 13
7 11 5 6 6 7 6 7 8 8 7 6 6 9 5 11 15 17 19 19 17 13 3 14 19 15 17 16 10 17 18 16 18 17 14 12 11 13 16 16 16 15 15
3 2 3 5 4 5 8 8 10 5 5 5 5 8 7 8 10 14 16 17 16 17 10 19 18 18 18 16 11 14 14 19 10 14 13 15 10 12 17 16 15 15 15
5 6 5 6 7 8 9 8 8 7 10 7 6 7 7 9 6 8 12 14 17 14 12 14 17 19 20 23 10 16 15 13 17 17 15 20 10 15 19 19 15 13 12
6 7 9 8 9 9 9 7 8 7 6 7 8 6 8 7 8 9 10 13 13 16 14 15 18 21 24 14 20 14 15 19 15 21 24 25 10 18 20 22 19 12 11
14 12 10 10 9 9 8 9 8 9 8 6 7 7 8 9 8 9 8 10 11 14 14 18 18 18 18 15 10 17 20 19 24 22 22 23 22 26 23 23 19 9 9
13 12 10 9 9 7 11 11 11 9 9 10 10 8 7 10 9 10 9 10 12 12 14 16 17 20 18 22 20 21 21 23 22 19 23 26 26 27 28 26 9 3 5
8 8 10 10 7 8 9 7 10 9 7 9 10 10 9 4 3 4 5 7 10 14 14 13 15 16 18 20 19 18 18 17 11 19 24 29 28 27 22 15 18 12 6
8 6 5 4 7 8 9 9 11 12 11 7 8 8 6 3 4 2 4 8 11 10 11 14 16 15 15 15 19 22 19 18 18 23 20 20 21 21 23 19 19 15 12
7 6 10 9 1 3 5 8 7 7 6 4 1 2 4 1 4 5 5 8 7 8 7 8 12 17 19 14 10 10 16 17 14 17 16 5 19 24 28 18 20 18 8
8 11 9 6 1 5 5 3 0 4 6 6 4 7 2 4 7 7 8 6 6 8 10 8 11 8 10 11 12 11 15 17 14 18 22 18 18 23 20 19 20 23 20
15 12 8 2 2 1 1 3 3 8 6 8 10 7 7 8 8 8 7 8 9 11 15 12 14 15 10 12 17 14 13 14 14 10 21 20 19 21 9 11 24 25 26

GFSMA_925_spd_111.txt.gz
Wind_Speed
7 8 8 6 5 7 3 7 9 7 3 5 9 11 11 10 8 9 9 9 9 8 8 6 5 6 7 8 9 9 10 11 11 11 12 13 14 11 8 6 4 5 7
5 4 1 7 4 6 8 6 4 4 4 8 8 12 9 7 6 10 11 11 10 9 7 6 6 6 7 8 9 10 10 11 12 12 12 13 15 15 12 9 6 2 5
5 2 4 8 8 5 1 1 6 10 9 11 11 13 10 9 5 7 10 10 10 8 7 6 5 5 7 8 10 10 11 12 13 13 13 13 14 15 12 11 9 5 3
4 4 2 3 4 7 4 5 6 5 14 12 11 12 10 9 9 8 9 7 6 7 6 4 4 5 6 7 10 11 11 12 13 13 13 13 13 14 13 11 12 8 4
3 4 5 3 3 3 4 7 4 13 12 11 12 14 14 7 9 6 9 7 7 6 4 1 2 3 4 6 8 10 12 12 13 14 13 12 11 12 13 12 11 9 5
2 2 4 2 2 5 7 10 11 9 7 3 7 12 13 11 7 11 10 9 10 8 8 3 7 7 4 4 7 9 12 13 12 14 14 13 11 10 12 12 12 10 6
2 2 7 8 4 5 9 9 12 15 9 8 7 6 8 10 12 14 8 10 9 9 8 4 6 5 5 4 5 10 12 15 13 14 15 15 13 10 9 11 11 11 10
3 1 3 4 4 4 6 8 11 15 8 9 5 4 3 4 9 13 15 13 15 8 14 8 10 7 5 6 3 8 11 16 17 15 15 16 15 11 8 8 9 10 9
4 1 1 2 1 5 3 7 9 12 16 17 5 2 2 1 3 2 6 13 28 32 31 26 25 17 11 7 9 12 10 14 18 18 17 15 15 15 9 5 6 7 7
7 3 3 1 2 4 2 5 8 11 14 18 12 11 17 19 3 4 19 23 28 32 28 31 32 33 13 11 11 14 16 13 17 18 16 14 15 15 12 6 4 5 5
7 8 6 5 2 3 1 4 6 7 11 13 18 20 25 26 18 8 3 19 24 17 18 23 31 25 15 17 19 12 15 12 18 18 15 15 13 13 12 8 4 2 3
10 8 8 6 5 5 3 2 3 4 6 9 12 14 12 8 8 11 4 15 16 13 13 5 25 22 14 6 5 11 13 12 18 16 15 14 13 12 10 8 6 4 1
6 9 8 9 6 6 4 2 5 3 5 9 11 12 12 16 13 13 17 25 10 11 6 14 12 15 16 6 8 11 9 13 15 15 15 14 13 12 8 7 7 6 4
7 6 9 9 10 6 7 3 5 5 6 6 6 11 11 10 7 9 1 12 3 11 12 10 8 10 4 5 11 10 14 15 11 15 16 9 9 10 7 8 8 7 7
6 8 9 10 8 6 5 4 3 3 4 7 3 9 9 8 11 11 12 9 1 4 6 6 5 5 7 9 10 10 15 13 17 12 9 8 9 9 9 10 10 11 10
13 11 12 13 12 10 7 7 5 3 6 4 5 4 7 9 10 9 10 14 12 6 1 3 3 5 10 15 14 19 16 16 12 15 15 11 9 10 10 9 9 11 11
10 15 12 9 11 8 9 8 6 7 4 5 3 1 3 5 8 7 10 11 16 11 6 9 11 16 19 20 16 10 18 22 19 22 19 20 14 11 17 17 12 9 10
11 14 17 13 11 9 8 8 6 5 7 8 7 3 4 3 5 6 8 10 9 9 10 12 17 22 17 12 15 9 19 22 18 17 21 19 17 21 23 27 26 16 9
14 12 10 10 11 10 9 9 6 6 7 5 9 7 6 4 5 5 5 7 9 9 12 10 14 16 10 17 19 18 20 22 21 23 20 19 21 21 23 23 23 17 6
16 12 12 11 11 9 9 9 7 5 7 7 4 3 6 7 5 4 5 4 6 8 9 12 15 16 11 13 15 21 24 24 26 22 20 22 19 22 19 21 21 14 5
19 13 11 10 8 9 10 8 11 8 8 8 7 6 6 7 3 3 5 6 8 8 8 9 10 14 15 21 18 18 22 23 24 15 26 24 25 21 22 20 19 11 8
13 12 11 8 7 5 6 4 5 10 8 8 7 5 5 2 3 2 0 5 8 9 9 7 6 10 13 13 20 22 18 17 8 18 23 23 22 23 23 20 20 13 7
12 12 10 9 9 7 9 8 6 9 7 5 6 5 4 3 4 2 4 5 7 7 7 7 8 10 13 17 13 13 17 17 14 18 19 14 22 24 22 18 22 21 16
18 19 14 7 4 2 6 6 6 5 7 5 4 4 4 1 2 2 3 4 6 7 9 7 7 11 12 14 11 11 13 14 11 11 24 9 23 25 18 16 22 24 23
15 14 11 10 5 1 2 2 3 7 8 7 6 6 4 5 7 5 3 4 4 6 8 10 13 8 6 13 12 11 19 20 12 9 25 15 20 24 15 14 25 25 23
17 15 13 8 5 2 2 4 4 9 13 13 11 10 8 9 9 8 8 9 9 12 15 14 24 21 20 19 18 16 17 19 17 7 23 15 18 17 9 13 23 24 29

GFSMA_925_spd_114.txt.gz
Wind_Speed
9 5 3 4 4 5 7 8 8 7 6 1 4 7 12 10 2 4 5 4 4 3 3 2 3 4 6 7 8 9 10 10 10 9 10 11 11 9 8 5 3 4 7
7 2 2 2 4 6 9 7 8 7 7 1 5 7 7 7 2 5 5 5 4 3 3 3 5 6 7 8 9 10 11 11 11 11 10 11 12 10 9 8 5 1 5
2 1 3 4 7 6 4 6 6 9 6 3 7 5 7 4 2 3 4 4 4 4 3 3 4 6 7 8 9 9 10 11 12 12 11 10 11 11 10 10 7 4 6
3 4 2 4 4 5 5 7 6 5 5 4 4 8 6 6 2 2 4 1 2 1 1 4 6 7 8 9 10 10 10 11 12 11 11 11 10 11 10 9 8 6 7
4 3 5 6 2 1 6 10 9 7 13 11 7 8 9 7 7 4 6 4 5 6 6 7 7 8 9 10 12 13 12 11 11 11 11 10 9 9 10 10 9 7 7
3 4 3 2 6 7 9 11 11 12 5 6 9 13 16 8 9 8 7 6 7 13 19 17 17 18 13 9 13 16 17 12 10 11 11 10 8 7 8 9 10 8 8
2 3 5 4 3 8 11 13 16 15 15 8 1 6 9 12 11 9 8 8 6 10 10 10 13 13 10 4 8 14 15 13 11 12 12 11 8 6 6 7 9 9 8
3 2 4 4 4 5 8 12 15 15 14 11 3 2 2 2 16 5 5 19 18 17 11 8 10 12 10 7 6 10 11 13 13 14 13 12 11 6 4 5 7 9 7
4 1 2 3 3 5 5 10 12 15 18 20 10 4 2 1 3 9 19 17 18 14 15 13 10 7 9 11 10 9 12 12 13 13 13 13 12 9 4 3 4 6 7
6 4 3 2 1 3 3 8 11 13 15 14 12 14 10 5 2 1 2 9 11 12 7 3 9 11 13 17 16 14 15 13 12 13 12 14 11 9 5 2 2 3 4
8 7 7 5 4 1 2 4 7 8 12 13 14 6 7 7 6 3 3 5 3 9 7 9 18 19 20 15 9 8 12 14 13 13 14 14 12 8 5 2 0 1 1
7 6 8 7 6 3 0 0 2 4 7 8 9 10 3 2 2 1 2 3 6 3 9 11 12 19 16 7 10 11 15 14 15 14 14 15 13 9 4 3 1 1 3
11 12 7 8 7 4 4 2 0 2 3 5 7 8 8 7 6 0 1 1 3 4 6 11 8 12 10 4 9 13 17 11 11 14 16 16 12 10 4 4 3 3 3
11 10 12 10 9 7 6 5 4 2 1 3 2 5 5 5 6 6 5 1 2 3 5 6 6 8 9 12 15 16 16 12 16 20 17 11 7 6 6 5 6 6 5
13 10 14 12 9 9 6 7 5 3 3 1 4 4 6 6 3 3 6 4 3 1 3 2 5 7 10 13 14 17 18 18 22 20 15 12 8 7 8 9 8 8 8
13 11 14 12 13 11 10 9 7 5 4 3 2 1 2 3 3 4 3 6 5 6 1 4 7 10 12 13 17 16 17 14 9 16 14 10 7 11 12 14 14 12 8
15 14 12 11 9 8 12 10 10 8 5 7 5 4 3 1 1 2 3 2 4 5 1 1 5 12 9 14 13 15 14 17 15 15 13 13 12 12 13 13 14 10 9
11 10 14 12 11 9 11 13 12 10 10 9 8 7 6 4 3 3 2 2 3 3 2 4 4 9 9 14 15 15 16 16 15 13 14 13 12 12 13 19 15 3 3
13 9 10 13 13 13 13 11 10 9 10 7 9 12 10 6 5 4 2 2 1 3 4 5 6 7 7 13 15 14 15 16 16 14 15 16 13 16 14 15 18 13 7
17 13 11 11 11 12 11 12 13 5 9 8 4 1 6 7 7 6 4 3 4 6 5 6 6 6 7 12 10 17 20 16 12 18 17 18 20 21 17 15 13 10 9
22 18 13 13 10 10 13 13 10 8 8 6 4 5 4 6 6 6 6 3 3 2 3 5 6 5 6 10 15 14 13 13 7 20 18 23 20 22 23 21 15 12 15
22 19 14 12 11 9 9 7 8 9 10 8 6 5 2 3 5 6 4 2 3 2 2 1 2 6 6 9 8 10 14 10 6 17 16 19 21 21 22 27 23 21 21
16 13 11 9 9 10 11 10 8 7 9 8 8 7 6 4 3 4 5 6 5 5 2 1 2 3 5 5 6 9 9 9 5 24 15 12 21 17 21 24 24 23 25
20 18 11 11 9 6 4 4 6 8 9 10 9 9 7 5 5 8 10 8 7 4 3 2 4 5 5 4 1 5 7 7 5 15 21 8 21 17 8 21 23 26 24
17 18 12 10 11 7 3 1 2 7 11 11 10 8 6 7 7 7 6 7 7 9 15 19 23 21 17 15 11 5 10 9 6 8 24 7 18 19 7 19 24 26 23
15 16 16 13 8 3 3 1 5 11 13 13 11 9 9 9 8 7 6 8 11 13 16 17 18 19 19 18 17 14 10 13 8 8 22 6 17 16 7 7 19 26 24

GFSMA_925_spd_117.txt.gz
Wind_Speed
3 1 4 3 6 7 8 7 7 8 7 8 4 7 9 6 3 3 5 4 3 2 1 3 5 7 8 9 10 11 12 13 13 12 12 12 13 12 12 11 8 6 7
3 3 5 6 6 9 9 7 8 7 7 7 3 3 6 3 2 3 5 4 2 1 2 5 7 8 10 10 10 11 12 12 13 13 12 11 12 12 11 11 9 3 2
3 4 8 7 7 7 5 8 8 5 4 1 3 2 4 4 3 3 2 2 3 2 3 5 7 9 9 11 13 14 15 15 14 14 13 12 11 13 11 12 8 3 4
5 7 6 7 6 9 8 8 8 1 2 3 3 3 3 4 3 2 2 3 3 5 6 7 9 10 9 9 12 14 15 15 14 14 15 14 11 11 12 11 9 4 6
7 7 5 4 6 8 10 9 9 3 8 4 4 3 6 5 5 6 7 8 8 10 9 10 10 11 8 7 10 12 14 14 14 15 15 15 12 10 11 11 9 4 5
3 4 4 3 5 8 9 10 9 6 3 6 8 9 10 6 4 5 5 6 7 7 8 8 7 7 5 3 6 12 14 16 15 16 17 15 13 10 9 9 9 5 6
3 2 6 6 6 7 9 11 9 8 10 5 0 2 2 3 5 5 4 4 5 4 6 7 7 4 3 1 3 10 11 15 17 16 17 16 15 10 7 7 7 6 5
4 2 4 5 5 6 7 9 11 11 11 7 3 4 2 4 8 7 7 6 5 3 4 1 3 4 5 5 7 7 11 13 17 15 15 15 16 12 6 4 4 4 3
5 3 2 3 4 4 6 8 10 11 6 11 8 3 2 2 1 2 6 7 3 2 2 3 4 5 5 8 11 7 11 14 16 14 15 16 15 14 8 3 1 1 1
6 4 3 1 3 3 5 5 6 9 7 6 8 6 3 3 2 2 7 4 4 4 5 6 9 10 9 12 14 9 10 15 15 15 15 16 15 15 11 6 3 2 2
8 7 6 5 2 2 4 4 4 6 7 9 5 2 2 2 3 3 2 5 11 12 7 11 13 12 12 8 7 10 14 15 15 17 16 15 16 15 12 8 6 5 4
9 6 11 8 6 4 3 4 3 3 4 5 4 3 2 1 1 1 1 3 5 4 8 10 10 16 15 9 11 14 15 15 16 16 18 16 15 12 10 8 7 7 7
14 11 8 11 9 6 6 4 4 5 3 3 2 2 4 3 3 2 1 1 2 4 5 7 9 13 14 14 17 18 15 15 17 20 19 14 12 10 10 8 7 7 8
16 13 13 13 11 9 7 7 5 4 3 4 3 2 4 2 1 4 2 1 2 3 3 5 9 13 13 16 15 13 10 12 16 17 12 9 9 8 8 9 8 7 7
16 13 12 13 11 11 9 9 8 6 7 6 4 5 7 5 4 3 2 2 2 1 2 3 5 10 11 13 14 17 14 12 15 15 13 10 7 6 8 10 11 10 8
13 15 12 16 13 11 10 10 9 7 6 6 7 4 5 4 4 5 5 1 5 4 1 2 5 9 7 7 11 12 14 12 8 10 12 13 11 9 7 10 11 10 8
14 14 12 13 14 13 11 11 11 10 9 7 8 7 7 6 6 4 2 3 1 2 4 2 2 6 6 10 10 10 10 11 10 12 12 10 9 9 10 11 13 10 5
12 14 15 14 14 11 10 13 11 11 11 11 9 8 8 6 6 6 4 3 2 1 2 3 4 4 4 10 11 11 13 13 9 13 12 11 10 11 7 12 11 10 7
12 11 12 15 14 11 11 10 11 11 11 11 11 13 13 10 9 7 5 4 2 1 1 2 3 3 5 11 11 12 13 11 15 14 14 17 18 16 14 16 16 13 11
15 15 11 10 12 12 12 11 11 9 5 11 10 9 9 11 12 10 8 7 5 5 4 3 3 3 4 6 9 12 12 9 16 15 18 17 21 24 23 19 17 15 11
19 16 13 12 12 11 11 11 12 14 13 15 12 10 9 7 10 9 9 8 7 5 3 2 2 2 2 5 8 8 8 6 8 19 15 20 23 27 27 26 24 23 18
15 16 14 12 11 9 8 10 10 11 15 15 13 11 10 8 7 7 8 7 6 5 4 4 2 1 1 3 5 7 8 8 4 15 7 18 19 24 30 27 22 22 23
15 20 16 15 13 11 9 8 8 7 9 13 13 12 10 7 6 7 9 6 4 3 3 3 3 3 3 1 1 3 4 5 7 13 5 8 14 21 24 24 20 19 27
23 24 20 11 11 8 6 6 6 8 8 9 10 11 9 8 7 9 9 7 4 3 4 4 5 6 7 7 6 2 1 3 5 10 8 4 13 11 17 23 20 19 22
22 19 21 20 14 10 9 4 2 6 8 7 5 4 5 5 7 10 10 8 5 4 3 6 8 9 8 7 6 4 1 2 2 4 12 4 12 6 10 19 22 20 25
15 18 18 14 12 11 9 6 7 12 13 12 7 4 6 5 6 7 8 9 13 12 13 14 13 13 11 8 6 4 3 4 3 2 13 3 8 8 3 9 17 20 19

GFSMA_925_spd_120.txt.gz
Wind_Speed
1 4 6 5 8 8 7 6 5 5 7 7 4 5 5 3 4 3 3 2 2 1 3 5 7 8 10 10 11 13 14 15 15 15 14 13 12 12 12 12 10 6 2
2 3 5 6 7 7 6 6 6 6 7 6 3 5 7 5 5 4 4 3 2 3 4 5 7 8 8 9 11 12 13 14 15 16 15 13 12 13 12 13 10 4 3
3 6 6 7 7 6 5 4 3 2 4 4 5 4 6 6 4 4 3 2 2 3 4 6 7 7 7 9 10 12 14 14 15 16 15 14 11 12 12 13 10 5 5
5 6 7 8 9 8 8 7 6 5 5 3 3 4 4 1 2 3 4 4 6 6 7 9 10 9 8 6 8 11 14 15 15 17 16 14 11 11 12 13 10 6 7
5 5 6 8 8 7 10 8 7 4 3 3 0 5 0 2 4 5 6 6 7 9 8 9 9 7 6 4 5 8 12 14 15 17 17 15 13 11 11 13 11 6 6
4 3 3 6 6 6 10 9 9 6 4 1 3 2 2 2 3 4 6 5 5 8 7 6 7 8 5 4 2 7 9 14 14 16 17 16 15 12 10 12 10 6 5
4 2 4 6 6 5 9 8 6 6 5 3 4 8 8 3 3 4 5 4 5 7 7 6 5 5 5 3 6 7 10 12 14 15 16 17 15 14 10 9 8 5 3
4 4 4 6 5 4 6 7 5 3 6 5 3 4 2 2 4 1 2 1 3 5 4 3 2 4 4 6 10 8 8 11 14 13 15 15 16 16 11 7 7 4 2
6 4 3 5 4 5 5 7 7 5 3 7 6 3 2 2 2 2 2 1 3 4 4 5 3 7 11 11 10 7 8 12 13 14 13 14 14 15 12 7 5 5 3
6 4 3 3 2 3 4 4 5 6 3 4 6 8 4 3 2 3 5 7 8 11 8 9 8 11 10 8 7 10 10 11 12 14 14 13 12 13 12 9 5 3 3
7 7 4 4 3 2 3 2 3 3 4 5 3 2 3 3 3 2 3 5 7 8 4 7 7 10 8 10 12 12 13 11 14 14 14 11 10 9 10 9 7 4 3
10 10 9 6 5 3 3 4 3 2 1 2 3 2 2 2 1 3 2 2 6 4 4 6 10 13 14 13 11 11 13 13 13 14 12 12 12 10 10 9 9 7 5
15 13 9 11 9 7 6 5 5 5 4 3 2 0 3 2 2 3 1 1 2 4 4 5 12 12 14 12 10 9 9 11 14 14 11 9 8 8 9 10 8 7 7
16 14 13 11 10 9 8 8 7 7 6 6 5 4 4 4 2 1 1 1 1 2 3 5 5 11 12 12 12 11 10 10 11 15 14 9 5 4 6 8 9 8 7
16 14 14 14 14 13 12 10 10 8 9 8 7 8 8 8 7 5 3 3 1 1 2 3 5 9 9 8 12 12 11 9 10 10 12 11 9 6 6 8 10 10 8
15 16 15 13 15 15 14 13 11 10 9 8 8 5 4 6 6 6 7 5 5 3 2 2 1 5 10 8 11 10 10 9 9 10 11 8 8 7 8 11 16 13 6
13 14 15 16 16 16 14 13 12 11 10 9 9 10 9 8 8 8 7 6 5 4 3 4 4 2 4 6 9 11 11 10 11 13 10 8 9 8 7 11 15 7 4
12 12 16 15 13 15 15 16 14 13 12 11 10 11 9 9 9 8 7 7 6 6 6 6 4 3 3 7 9 11 10 10 11 16 12 14 12 10 10 12 13 13 9
13 11 12 15 16 15 15 14 15 14 13 13 11 11 10 9 10 11 10 8 7 6 5 4 4 3 3 6 8 9 12 17 17 15 16 16 15 13 11 12 10 7 6
16 13 13 12 13 15 15 14 15 13 13 12 11 9 8 9 13 11 10 9 7 7 7 5 3 2 3 4 6 7 8 15 16 17 18 21 20 22 23 21 15 11 9
20 17 13 13 11 13 14 16 13 12 14 13 12 10 9 8 9 10 10 9 8 6 4 4 3 1 1 3 4 5 5 7 16 17 16 19 21 24 25 23 21 18 16
20 19 18 14 13 11 12 13 11 13 17 16 13 12 12 10 9 8 8 8 7 7 6 4 4 2 3 2 1 3 4 4 2 10 13 16 19 25 26 27 19 19 22
21 19 16 13 16 12 10 7 7 10 9 14 15 15 12 10 9 8 9 9 8 7 6 5 6 6 5 4 2 1 3 5 5 8 10 12 13 22 21 23 20 19 19
15 14 12 14 18 14 8 5 7 9 9 9 11 15 13 11 10 10 9 7 6 6 6 7 8 8 8 7 5 2 3 6 4 8 5 6 12 14 14 19 21 20 17
11 11 18 19 22 20 17 11 6 5 6 8 7 10 10 9 9 11 10 8 5 2 1 4 5 3 2 3 6 6 5 7 3 3 7 5 6 10 13 15 15 18 22
7 9 16 17 19 17 15 12 12 7 8 7 7 6 6 5 4 6 11 9 9 6 7 9 8 7 6 6 4 4 4 4 4 3 6 3 3 5 5 7 11 12 16